[[{"header":{"parameterUnit":"m.s-1","parameterCategory":1,"la1":30.6,"la2":28.766,"lo1":-90.7593,"lo2":-88.6598,"dy":0.0162,"dx":0.0183,"nx":116,"ny":114,"refTime":"2023-07-02T12:00:00:Z","depth":0,"parameterNumber":2,"parameterNumberName":"U-component_of_WINDS"},"data":[0.0,0.0,0.0,0.0,0.0,0.0,0.0,0.0,0.0,0.0,0.0,0.0,0.0,0.0,0.0,0.0,0.0,0.0,0.0,0.0,0.0,0.0,0.0,0.0,0.0,0.0,0.0,0.0,0.0,0.0,0.0,0.0,0.0,0.0,0.0,0.0,0.0,0.0,0.0,0.0,0.0,0.0,0.0,0.0,0.0,0.0,0.0,0.0,0.0,0.0,0.0,0.0,0.0,0.0,0.0,0.0,0.0,0.0,0.0,0.0,0.0,0.0,0.0,0.0,0.0,0.0,0.0,0.0,0.0,0.0,0.0,0.0,0.0,0.0,0.0,0.0,0.0,0.0,0.0,0.0,0.0,0.0,0.0,0.0,0.0,0.0,0.0,0.0,0.0,0.0,0.0,0.0,0.0,0.0,0.0,0.0,0.0,0.0,0.0,0.0,0.0,0.0,0.0,0.0,0.0,0.0,0.0,0.0,0.0,0.0,0.0,0.0,0.0,0.0,0.0,0.0,0.0,0.0,0.0,0.0,0.0,0.0,0.0,0.0,0.0,0.0,0.0,0.0,0.0,0.0,0.0,0.0,0.0,0.0,0.0,0.0,0.0,0.0,0.0,0.0,0.0,0.0,0.0,0.0,0.0,0.0,0.0,0.0,0.0,0.0,0.0,0.0,0.0,0.0,0.0,0.0,0.0,0.0,0.0,0.0,0.0,0.0,0.0,0.0,0.0,0.0,0.0,0.0,0.0,0.0,0.0,0.0,0.0,0.0,0.0,0.0,0.0,0.0,0.0,0.0,0.0,0.0,0.0,0.0,0.0,0.0,0.0,0.0,0.0,0.0,0.0,0.0,0.0,0.0,0.0,0.0,0.0,0.0,0.0,0.0,0.0,0.0,0.0,0.0,0.0,0.0,0.0,0.0,0.0,0.0,0.0,0.0,0.0,0.0,0.0,0.0,0.0,0.0,0.0,0.0,0.0,0.0,0.0,0.0,0.0,0.0,0.0,0.0,0.0,0.0,0.0,0.0,0.0,0.0,0.0,0.0,0.0,0.0,0.0,0.0,0.0,0.0,0.0,0.0,0.0,0.0,0.0,0.0,0.0,0.0,0.0,0.0,0.0,0.0,0.0,0.0,0.0,0.0,0.0,0.0,0.0,0.0,0.0,0.0,0.0,0.0,0.0,0.0,0.0,0.0,0.0,0.0,0.0,0.0,0.0,0.0,0.0,0.0,0.0,0.0,0.0,0.0,0.0,0.0,0.0,0.0,0.0,0.0,0.0,0.0,0.0,0.0,0.0,0.0,0.0,0.0,0.0,0.0,0.0,0.0,0.0,0.0,0.0,0.0,0.0,0.0,0.0,0.0,0.0,0.0,0.0,0.0,0.0,0.0,0.0,0.0,0.0,0.0,0.0,0.0,0.0,0.0,0.0,0.0,0.0,0.0,0.0,0.0,0.0,0.0,0.0,0.0,0.0,0.0,0.0,0.0,0.0,0.0,0.0,0.0,0.0,0.0,0.0,0.0,0.0,0.0,0.0,0.0,0.0,0.0,0.0,0.0,0.0,0.0,0.0,0.0,0.0,0.0,0.0,0.0,0.0,0.0,0.0,0.0,0.0,0.0,0.0,0.0,0.0,0.0,0.0,0.0,0.0,0.0,0.0,0.0,0.0,0.0,0.0,0.0,0.0,0.0,0.0,0.0,0.0,0.0,0.0,0.0,0.0,0.0,0.0,0.0,0.0,0.0,0.0,0.0,0.0,0.0,0.0,0.0,0.0,0.0,0.0,0.0,0.0,0.0,0.0,0.0,0.0,0.0,0.0,0.0,0.0,0.0,0.0,0.0,0.0,0.0,0.0,0.0,0.0,0.0,0.0,0.0,0.0,0.0,0.0,0.0,0.0,0.0,0.0,0.0,0.0,0.0,0.0,0.0,0.0,0.0,0.0,0.0,0.0,0.0,0.0,0.0,0.0,0.0,0.0,0.0,0.0,0.0,0.0,0.0,0.0,0.0,0.0,0.0,0.0,0.0,0.0,0.0,0.0,0.0,0.0,0.0,0.0,0.0,0.0,0.0,0.0,0.0,0.0,0.0,0.0,0.0,0.0,0.0,0.0,0.0,0.0,0.0,0.0,0.0,0.0,0.0,0.0,0.0,0.0,0.0,0.0,0.0,0.0,0.0,0.0,0.0,0.0,0.0,0.0,0.0,0.0,0.0,0.0,0.0,0.0,0.0,0.0,0.0,0.0,0.0,0.0,0.0,0.0,0.0,0.0,0.0,0.0,0.0,0.0,0.0,0.0,0.0,0.0,0.0,0.0,0.0,0.0,0.0,0.0,0.0,0.0,0.0,0.0,0.0,0.0,0.0,0.0,0.0,0.0,0.0,0.0,0.0,0.0,0.0,0.0,0.0,0.0,0.0,0.0,0.0,0.0,0.0,0.0,0.0,0.0,0.0,0.0,0.0,0.0,0.0,0.0,0.0,0.0,0.0,0.0,0.0,0.0,0.0,0.0,0.0,0.0,0.0,0.0,0.0,0.0,0.0,0.0,0.0,0.0,0.0,0.0,0.0,0.0,0.0,0.0,0.0,0.0,0.0,0.0,0.0,0.0,0.0,0.0,0.0,0.0,0.0,0.0,0.0,0.0,0.0,0.0,0.0,0.0,0.0,0.0,0.0,0.0,0.0,0.0,0.0,0.0,0.0,0.0,0.0,0.0,0.0,0.0,0.0,0.0,0.0,0.0,0.0,0.0,0.0,0.0,0.0,0.0,0.0,0.0,0.0,0.0,0.0,0.0,0.0,0.0,0.0,0.0,0.0,0.0,0.0,0.0,0.0,0.0,0.0,0.0,0.0,0.0,0.0,0.0,0.0,0.0,0.0,0.0,0.0,0.0,0.0,0.0,0.0,0.0,0.0,0.0,0.0,0.0,0.0,0.0,0.0,0.0,0.0,0.0,0.0,0.0,0.0,0.0,0.0,0.0,0.0,0.0,0.0,0.0,0.0,0.0,0.0,0.0,0.0,0.0,0.0,0.0,0.0,0.0,0.0,0.0,0.0,0.0,0.0,0.0,0.0,0.0,0.0,0.0,0.0,0.0,0.0,0.0,0.0,0.0,0.0,0.0,0.0,0.0,0.0,0.0,0.0,0.0,0.0,0.0,0.0,0.0,0.0,0.0,0.0,0.0,0.0,0.0,0.0,0.0,0.0,0.0,0.0,0.0,0.0,0.0,0.0,0.0,0.0,0.0,0.0,0.0,0.0,0.0,0.0,0.0,0.0,0.0,0.0,0.0,0.0,0.0,0.0,0.0,0.0,0.0,0.0,0.0,0.0,0.0,0.0,0.0,0.0,0.0,0.0,0.0,0.0,0.0,0.0,0.0,0.0,0.0,0.0,0.0,0.0,0.0,0.0,0.0,0.0,0.0,0.0,0.0,0.0,0.0,0.0,0.0,0.0,0.0,0.0,0.0,0.0,0.0,0.0,0.0,0.0,0.0,0.0,0.0,0.0,0.0,0.0,0.0,0.0,0.0,0.0,0.0,0.0,0.0,0.0,0.0,0.0,0.0,0.0,0.0,0.0,0.0,0.0,0.0,0.0,0.0,0.0,0.0,0.0,0.0,0.0,0.0,0.0,0.0,0.0,0.0,0.0,0.0,0.0,0.0,0.0,0.0,0.0,0.0,0.0,0.0,0.0,0.0,0.0,0.0,0.0,0.0,0.0,0.0,0.0,0.0,0.0,0.0,0.0,0.0,0.0,0.0,0.0,0.0,0.0,0.0,0.0,0.0,0.0,0.0,0.0,0.0,0.0,0.0,0.0,0.0,0.0,0.0,0.0,0.0,0.0,0.0,0.0,0.0,0.0,0.0,0.0,0.0,0.0,0.0,0.0,0.0,0.0,0.0,0.0,0.0,0.0,0.0,0.0,0.0,0.0,0.0,0.0,0.0,0.0,0.0,0.0,0.0,0.0,0.0,0.0,0.0,0.0,0.0,0.0,0.0,0.0,0.0,0.0,0.0,0.0,0.0,0.0,0.0,0.0,0.0,0.0,0.0,0.0,0.0,0.0,0.0,0.0,0.0,0.0,0.0,0.0,0.0,0.0,0.0,0.0,0.0,0.0,0.0,0.0,0.0,0.0,0.0,0.0,0.0,0.0,0.0,0.0,0.0,0.0,0.0,0.0,0.0,0.0,0.0,0.0,0.0,0.0,0.0,0.0,0.0,0.0,0.0,0.0,0.0,0.0,0.0,0.0,0.0,0.0,0.0,0.0,0.0,0.0,0.0,0.0,0.0,0.0,0.0,0.0,0.0,0.0,0.0,0.0,0.0,0.0,0.0,0.0,0.0,0.0,0.0,0.0,0.0,0.0,0.0,0.0,0.0,0.0,0.0,0.0,0.0,0.0,0.0,0.0,0.0,0.0,0.0,0.0,0.0,0.0,0.0,0.0,0.0,0.0,0.0,0.0,0.0,0.0,0.0,0.0,0.0,0.0,0.0,0.0,0.0,0.0,0.0,0.0,0.0,0.0,0.0,0.0,0.0,0.0,0.0,0.0,0.0,0.0,0.0,0.0,0.0,0.0,0.0,0.0,0.0,0.0,0.0,0.0,0.0,0.0,0.0,0.0,0.0,0.0,0.0,0.0,0.0,0.0,0.0,0.0,0.0,0.0,0.0,0.0,0.0,0.0,0.0,0.0,0.0,0.0,0.0,0.0,0.0,0.0,0.0,0.0,0.0,0.0,0.0,0.0,0.0,0.0,0.0,0.0,0.0,0.0,0.0,0.0,0.0,0.0,0.0,0.0,0.0,0.0,0.0,0.0,0.0,0.0,0.0,0.0,0.0,0.0,0.0,0.0,0.0,0.0,0.0,0.0,0.0,0.0,0.0,0.0,0.0,0.0,0.0,0.0,0.0,0.0,0.0,0.0,0.0,0.0,0.0,0.0,0.0,0.0,0.0,0.0,0.0,0.0,0.0,0.0,0.0,0.0,0.0,0.0,0.0,0.0,0.0,0.0,0.0,0.0,0.0,0.0,0.0,0.0,0.0,0.0,0.0,0.0,0.0,0.0,0.0,0.0,0.0,0.0,0.0,0.0,0.0,0.0,0.0,0.0,0.0,0.0,0.0,0.0,0.0,0.0,0.0,0.0,0.0,0.0,0.0,0.0,0.0,0.0,0.0,0.0,0.0,0.0,0.0,0.0,0.0,0.0,0.0,0.0,0.0,0.0,0.0,0.0,0.0,0.0,0.0,0.0,0.0,0.0,0.0,0.0,0.0,0.0,0.0,0.0,0.0,0.0,0.0,0.0,0.0,0.0,0.0,0.0,0.0,0.0,0.0,0.0,0.0,0.0,0.0,0.0,0.0,0.0,0.0,0.0,0.0,0.0,0.0,0.0,0.0,0.0,0.0,0.0,0.0,0.0,0.0,0.0,0.0,0.0,0.0,0.0,0.0,0.0,0.0,0.0,0.0,0.0,0.0,0.0,0.0,0.0,0.0,0.0,0.0,0.0,0.0,0.0,0.0,0.0,0.0,0.0,0.0,0.0,0.0,0.0,0.0,0.0,0.0,0.0,0.0,0.0,0.0,0.0,0.0,0.0,0.0,0.0,0.0,0.0,0.0,0.0,0.0,0.0,0.0,0.0,0.0,0.0,0.0,0.0,0.0,0.0,0.0,0.0,0.0,0.0,0.0,0.0,0.0,0.0,0.0,0.0,0.0,0.0,0.0,0.0,0.0,0.0,0.0,0.0,0.0,0.0,0.0,0.0,0.0,0.0,0.0,0.0,0.0,0.0,0.0,0.0,0.0,0.0,0.0,0.0,0.0,0.0,0.0,0.0,0.0,0.0,0.0,0.0,0.0,0.0,0.0,0.0,0.0,0.0,0.0,0.0,0.0,0.0,0.0,0.0,0.0,0.0,0.0,0.0,0.0,0.0,0.0,0.0,0.0,0.0,0.0,0.0,0.0,0.0,0.0,0.0,0.0,0.0,0.0,0.0,0.0,0.0,0.0,0.0,0.0,0.0,0.0,0.0,0.0,0.0,0.0,0.0,0.0,0.0,0.0,0.0,0.0,0.0,0.0,0.0,0.0,0.0,0.0,0.0,0.0,0.0,-4.2941,-4.2221,0.0,0.0,0.0,0.0,0.0,0.0,0.0,0.0,0.0,0.0,0.0,0.0,0.0,0.0,0.0,0.0,0.0,0.0,0.0,0.0,0.0,0.0,0.0,0.0,0.0,0.0,0.0,0.0,0.0,0.0,0.0,0.0,0.0,0.0,0.0,0.0,0.0,0.0,0.0,0.0,0.0,0.0,0.0,0.0,0.0,0.0,0.0,0.0,0.0,0.0,0.0,0.0,0.0,0.0,0.0,0.0,0.0,0.0,0.0,0.0,0.0,0.0,0.0,0.0,0.0,0.0,0.0,0.0,0.0,0.0,0.0,0.0,0.0,0.0,0.0,0.0,0.0,0.0,0.0,0.0,0.0,0.0,0.0,0.0,0.0,0.0,0.0,0.0,0.0,0.0,0.0,0.0,0.0,0.0,0.0,0.0,0.0,0.0,0.0,0.0,0.0,0.0,0.0,0.0,0.0,0.0,0.0,0.0,0.0,0.0,0.0,0.0,0.0,0.0,-4.3086,-4.2736,0.0,0.0,0.0,0.0,0.0,0.0,0.0,0.0,0.0,0.0,0.0,0.0,0.0,0.0,0.0,0.0,0.0,0.0,0.0,0.0,0.0,0.0,0.0,0.0,0.0,0.0,0.0,0.0,0.0,0.0,0.0,0.0,0.0,0.0,0.0,0.0,0.0,0.0,0.0,0.0,0.0,0.0,0.0,0.0,0.0,0.0,0.0,0.0,0.0,0.0,0.0,0.0,0.0,0.0,0.0,0.0,0.0,0.0,0.0,0.0,0.0,0.0,0.0,0.0,0.0,0.0,0.0,0.0,0.0,0.0,0.0,0.0,0.0,0.0,0.0,0.0,0.0,0.0,0.0,0.0,0.0,0.0,0.0,0.0,0.0,0.0,0.0,0.0,0.0,0.0,0.0,0.0,0.0,0.0,0.0,0.0,0.0,0.0,0.0,0.0,0.0,0.0,0.0,0.0,0.0,0.0,0.0,0.0,-4.4373,-4.4314,-4.4314,-4.4314,-4.3809,-4.2959,-4.3369,-4.3422,-4.3032,-4.2444,0.0,0.0,0.0,0.0,0.0,0.0,0.0,0.0,0.0,0.0,0.0,0.0,0.0,0.0,0.0,0.0,0.0,0.0,0.0,0.0,0.0,0.0,0.0,0.0,0.0,0.0,0.0,0.0,0.0,0.0,0.0,0.0,0.0,0.0,0.0,0.0,0.0,0.0,-4.111,-4.1087,-4.1072,-4.1085,0.0,0.0,0.0,0.0,0.0,0.0,0.0,0.0,0.0,0.0,0.0,0.0,0.0,0.0,0.0,0.0,0.0,0.0,0.0,0.0,0.0,0.0,0.0,0.0,0.0,0.0,0.0,0.0,0.0,0.0,0.0,0.0,0.0,0.0,0.0,0.0,0.0,0.0,0.0,0.0,0.0,0.0,0.0,0.0,-4.1852,-4.2678,0.0,0.0,0.0,0.0,0.0,0.0,0.0,0.0,0.0,0.0,0.0,0.0,0.0,-4.443,-4.4487,-4.4487,-4.4487,-4.4487,-4.4487,-4.4411,-4.4306,-4.4362,-4.4023,-4.3444,-4.3795,0.0,-4.1831,-4.1744,0.0,0.0,0.0,0.0,0.0,0.0,0.0,0.0,0.0,0.0,0.0,0.0,0.0,0.0,0.0,0.0,0.0,0.0,0.0,0.0,0.0,0.0,0.0,0.0,0.0,0.0,0.0,0.0,0.0,0.0,0.0,0.0,0.0,0.0,0.0,0.0,-4.0915,-4.0979,-4.1045,-4.1035,-4.106,-4.1097,-4.0929,-4.0849,-4.0818,-4.0721,0.0,0.0,0.0,0.0,0.0,0.0,0.0,0.0,0.0,0.0,0.0,0.0,0.0,0.0,0.0,0.0,0.0,0.0,0.0,0.0,0.0,0.0,0.0,0.0,0.0,0.0,0.0,0.0,0.0,0.0,0.0,0.0,0.0,0.0,0.0,0.0,0.0,0.0,0.0,-4.1085,-4.1681,-4.262,-4.3461,-4.3895,0.0,0.0,0.0,0.0,0.0,0.0,0.0,0.0,0.0,-4.4285,-4.4373,-4.444,-4.4515,-4.4515,-4.4515,-4.4515,-4.4515,-4.444,-4.4335,-4.4109,-4.3693,-4.3141,-4.3032,-4.2462,-4.1648,-4.2044,-4.2127,-4.1995,0.0,0.0,0.0,0.0,-4.1341,-4.0972,0.0,0.0,0.0,0.0,0.0,0.0,0.0,0.0,0.0,0.0,0.0,0.0,0.0,0.0,0.0,-4.1,0.0,0.0,0.0,0.0,0.0,0.0,0.0,0.0,0.0,0.0,0.0,0.0,-4.0837,-4.0903,-4.0996,-4.0996,-4.1047,-4.1094,-4.096,-4.0887,-4.0897,-4.0742,-4.071,0.0,0.0,0.0,0.0,0.0,0.0,0.0,0.0,0.0,0.0,0.0,0.0,0.0,0.0,0.0,0.0,0.0,0.0,0.0,0.0,0.0,0.0,0.0,0.0,0.0,0.0,0.0,0.0,0.0,0.0,0.0,0.0,0.0,0.0,0.0,0.0,0.0,0.0,-4.1504,-4.2006,-4.2905,-4.3825,-4.4241,0.0,0.0,0.0,0.0,0.0,0.0,-4.4005,-4.4135,-4.4244,-4.4285,-4.4383,-4.444,-4.4515,-4.4515,-4.4515,-4.4515,-4.4515,-4.444,-4.4383,-4.406,-4.3623,-4.3086,-4.2678,-4.2279,-4.1917,-4.2274,-4.2292,-4.2079,-4.1736,-4.1481,-4.1323,-4.1323,-4.0832,-4.0182,0.0,0.0,0.0,0.0,0.0,0.0,0.0,0.0,0.0,0.0,0.0,0.0,0.0,0.0,-4.1074,-4.1013,-4.0994,-4.0933,0.0,0.0,0.0,0.0,0.0,0.0,0.0,0.0,0.0,-4.0715,-4.0699,-4.0816,-4.1,-4.0992,-4.1032,-4.1085,-4.0953,-4.0906,-4.0904,-4.0885,-4.082,-4.0703,0.0,0.0,0.0,0.0,0.0,0.0,0.0,0.0,0.0,0.0,0.0,0.0,0.0,0.0,0.0,0.0,0.0,0.0,0.0,0.0,0.0,0.0,0.0,0.0,0.0,0.0,0.0,0.0,0.0,0.0,0.0,0.0,0.0,0.0,0.0,0.0,0.0,0.0,0.0,-4.3825,-4.4766,0.0,0.0,0.0,0.0,-4.4048,-4.4005,-4.4005,-4.4005,-4.4177,-4.4285,-4.4285,-4.443,-4.4515,-4.4515,-4.4515,-4.4515,-4.4515,-4.4515,-4.444,-4.4383,-4.444,-4.417,-4.3642,-4.3422,-4.3087,-4.2577,-4.1917,-4.1648,-4.1648,-4.1604,-4.1165,-4.0533,-4.0533,-4.0042,-3.9375,0.0,0.0,0.0,0.0,0.0,0.0,0.0,0.0,0.0,0.0,0.0,0.0,0.0,-4.1103,-4.1037,-4.0885,-4.0866,-4.0742,-4.0442,0.0,0.0,0.0,0.0,0.0,0.0,0.0,-4.0534,-4.064,-4.0642,-4.0729,-4.0935,-4.0944,-4.0999,-4.109,-4.0969,-4.0887,-4.081,-4.0604,-4.0557,-4.061,-4.0419,-4.0386,0.0,0.0,0.0,0.0,0.0,0.0,0.0,0.0,0.0,0.0,0.0,0.0,0.0,0.0,0.0,0.0,0.0,0.0,0.0,0.0,0.0,0.0,0.0,0.0,0.0,0.0,0.0,0.0,0.0,0.0,0.0,0.0,0.0,0.0,0.0,0.0,0.0,-4.3962,-4.4744,0.0,-4.4726,-4.4546,-4.4336,-4.4017,-4.4085,-4.4135,-4.4135,-4.4285,-4.4354,-4.4354,-4.444,-4.4515,-4.4515,-4.4515,-4.4515,-4.4515,-4.4515,-4.4487,-4.444,-4.4181,-4.3836,-4.3474,-4.3123,-4.275,-4.2432,-4.2145,-4.1934,-4.1762,-4.1648,-4.1148,-4.0481,-4.0481,-3.9656,-3.8532,0.0,0.0,0.0,0.0,0.0,0.0,0.0,0.0,0.0,0.0,0.0,-4.1047,-4.1108,-4.1097,-4.1013,-4.082,-4.0801,-4.0653,-4.0323,0.0,0.0,0.0,0.0,0.0,0.0,-4.0931,-4.0812,-4.0573,-4.0593,-4.0699,-4.0874,-4.0894,-4.0964,-4.1094,-4.0957,-4.0857,-4.0791,-4.0482,-4.0419,-4.0519,-4.0233,-4.0215,-4.0323,0.0,0.0,0.0,0.0,0.0,0.0,0.0,0.0,0.0,0.0,0.0,0.0,0.0,0.0,0.0,0.0,0.0,0.0,0.0,0.0,0.0,0.0,0.0,0.0,0.0,0.0,0.0,0.0,0.0,0.0,0.0,0.0,0.0,0.0,-4.2354,-4.3006,-4.358,-4.4493,-4.4988,-4.4745,-4.4484,-4.425,-4.4036,-4.4135,-4.4184,-4.4184,-4.4344,-4.4383,-4.4383,-4.4487,-4.4515,-4.4515,-4.4515,-4.4515,-4.4515,-4.4515,-4.4515,-4.4487,-4.4181,-4.3868,-4.3609,-4.3123,-4.277,-4.2534,-4.2369,-4.2205,-4.2019,-4.1805,-4.1217,-4.0481,-4.0481,-3.9638,-3.848,0.0,0.0,0.0,0.0,0.0,0.0,0.0,0.0,0.0,0.0,0.0,-4.1091,-4.1097,-4.1111,-4.1018,-4.0829,0.0,0.0,0.0,-4.0543,0.0,0.0,0.0,0.0,-4.1819,-4.1819,-4.1412,-4.0527,-4.0603,-4.0699,-4.0796,-4.0875,-4.0964,-4.1094,-4.0961,-4.0864,-4.077,-4.0577,-4.0441,-4.036,-4.012,-4.008,-4.0176,0.0,0.0,0.0,0.0,0.0,0.0,0.0,0.0,0.0,0.0,0.0,0.0,0.0,0.0,0.0,0.0,0.0,0.0,0.0,0.0,0.0,0.0,0.0,0.0,0.0,0.0,0.0,0.0,0.0,0.0,0.0,0.0,0.0,-4.0272,-4.1705,-4.2776,-4.2814,-4.4111,-4.4931,-4.4688,-4.4482,-4.427,-4.4017,-4.4135,-4.4184,-4.4184,-4.4344,-4.4411,-4.4411,-4.4487,-4.4515,-4.4515,-4.4515,-4.4515,-4.4515,-4.4515,-4.4515,-4.4487,-4.4487,-4.4335,-4.406,-4.3575,-4.3231,-4.2958,-4.2494,-4.2287,-4.2287,-4.2019,-4.1347,-4.0524,-4.0524,-3.9989,-3.9199,0.0,0.0,0.0,0.0,0.0,0.0,0.0,0.0,0.0,0.0,-4.1065,-4.1107,-4.1093,-4.1101,-4.1018,0.0,0.0,0.0,0.0,0.0,0.0,0.0,0.0,0.0,-4.2451,-4.2544,-4.2138,-4.1231,-4.1338,-4.1229,-4.0871,-4.0885,-4.0961,-4.1091,-4.0962,-4.085,-4.0704,-4.0468,-4.0286,-4.0177,-4.0099,-4.0038,-3.9975,0.0,0.0,0.0,0.0,0.0,0.0,0.0,0.0,0.0,0.0,0.0,0.0,0.0,0.0,0.0,0.0,0.0,0.0,0.0,0.0,0.0,0.0,0.0,0.0,0.0,0.0,0.0,0.0,0.0,0.0,0.0,-4.031,-4.0635,-4.1915,-4.2047,-4.2253,-4.294,-4.3039,-4.3361,-4.404,-4.3581,-4.3546,-4.4223,-4.4277,-4.4255,-4.4255,-4.4401,-4.4468,-4.4468,-4.4487,-4.4515,-4.4515,-4.4515,-4.4515,-4.4515,-4.4515,-4.4411,-4.4199,-4.4199,-4.3968,-4.3493,-4.3389,-4.3196,-4.292,-4.2631,-4.245,-4.2287,-4.2246,-4.16,-4.0718,-4.0718,-4.0098,-3.9269,0.0,0.0,0.0,0.0,0.0,0.0,0.0,0.0,0.0,0.0,-4.1031,-4.1077,-4.1094,-4.1423,0.0,0.0,0.0,0.0,0.0,0.0,0.0,0.0,0.0,-4.2699,-4.2221,-4.2221,-4.1801,-4.09,-4.0768,-4.0559,-4.0313,-3.9999,-3.9914,-4.0054,-3.9935,-3.9794,-3.9646,-3.9397,-3.916,-3.899,-3.9269,-3.9545,-3.9781,-3.9762,-3.9762,-3.9762,-3.9762,-3.9785,-3.9724,-3.9458,0.0,0.0,0.0,0.0,0.0,0.0,0.0,0.0,0.0,0.0,0.0,0.0,0.0,0.0,0.0,0.0,0.0,0.0,0.0,0.0,0.0,0.0,0.0,0.0,-4.0234,-4.0669,-4.1682,-4.1754,-4.1901,-4.2489,-4.2694,-4.3088,-4.3823,-4.3536,-4.3618,-4.4392,-4.4345,-4.4314,-4.4344,-4.4458,-4.4515,-4.4515,-4.4515,-4.4665,-4.4993,-4.4993,-4.52,-4.5557,-4.5557,-4.5207,-4.4594,-4.4594,-4.4124,-4.3303,-4.3303,-4.3124,-4.2882,-4.2786,-4.267,0.0,0.0,0.0,0.0,0.0,-4.0574,-3.9796,0.0,0.0,0.0,0.0,0.0,0.0,0.0,0.0,0.0,0.0,0.0,-4.1058,-4.1229,-4.1933,0.0,0.0,0.0,0.0,0.0,0.0,0.0,-4.2706,-4.2737,-4.2354,-4.1589,-4.149,-4.1032,-4.0234,-3.9692,-3.9457,-3.95,-3.8739,-3.8458,-3.8607,-3.8532,-3.8385,-3.8158,-3.7945,-3.7682,-3.7425,-3.7988,-3.871,-3.9438,-3.9513,-3.9551,-3.9551,-3.9599,-3.9599,-3.9526,-3.9317,0.0,0.0,0.0,0.0,0.0,0.0,0.0,0.0,0.0,0.0,0.0,0.0,0.0,0.0,0.0,0.0,0.0,0.0,0.0,0.0,0.0,0.0,0.0,0.0,-4.0362,-4.0502,-4.0502,-4.1193,-4.1728,-4.178,-4.2676,-4.3415,-4.3861,-4.3909,-4.4087,-4.4484,-4.4393,-4.4344,-4.4383,-4.4562,0.0,0.0,0.0,-4.5087,-4.5688,-4.5707,-4.6036,-4.6732,-4.6826,-4.6274,-4.5239,-4.5332,-4.472,-4.3541,-4.3414,-4.3269,-4.3027,-4.2918,-4.2844,-4.2729,-4.2169,-4.1805,-4.1648,-4.1604,-4.1183,-4.0604,0.0,0.0,0.0,0.0,0.0,0.0,0.0,0.0,0.0,-4.0996,-4.1,-4.1265,-4.1995,-4.2263,0.0,0.0,0.0,-4.1172,0.0,0.0,-4.0595,-4.0747,-4.2011,-4.2481,-4.2077,-4.2147,-4.1825,-4.1074,-4.0422,-3.9923,-3.9552,-3.8723,-3.8414,-3.8607,-3.8532,-3.8332,-3.8035,-3.7828,-3.7543,-3.7238,-3.7202,-3.7673,-3.8452,-3.9003,-3.9237,-3.9245,-3.9156,-3.9183,-3.9298,-3.9452,-3.9575,-3.9656,-3.9962,0.0,0.0,0.0,0.0,0.0,0.0,0.0,0.0,0.0,0.0,0.0,0.0,0.0,0.0,0.0,0.0,0.0,0.0,0.0,0.0,-4.0196,-4.0307,-4.0432,-4.0502,-4.1245,-4.178,-4.1797,-4.18,-4.2352,-4.3767,-4.3604,-4.3735,-4.4447,-4.443,-4.4383,-4.4383,-4.5078,-4.5472,-4.5472,-4.6149,-4.6243,-4.5707,-4.5707,-4.5452,-4.499,0.0,0.0,-4.4998,-4.5645,-4.5552,-4.4862,-4.4209,-4.3937,-4.3824,-4.2979,-4.2414,-4.2086,-4.2187,-4.2061,-4.1805,-4.1648,-4.1516,-4.1394,0.0,0.0,0.0,0.0,0.0,0.0,0.0,0.0,0.0,0.0,-4.0583,-4.0535,-4.0996,-4.1082,0.0,0.0,-4.1033,0.0,0.0,-4.0027,-4.0598,-4.0788,-4.151,-4.1611,-4.0957,-4.0962,-4.0833,-4.0611,-3.9947,-3.9379,-3.8839,-3.8054,-3.7566,-3.7301,-3.7263,-3.7117,-3.6878,-3.6588,-3.6293,-3.6058,-3.6199,-3.646,-3.6919,-3.8069,-3.872,-3.9064,-3.9007,-3.9007,-3.9073,-3.935,-3.9556,-3.9747,-4.0042,-4.0196,-4.0234,0.0,0.0,0.0,0.0,0.0,0.0,0.0,0.0,0.0,0.0,0.0,0.0,0.0,0.0,-3.9975,-4.0077,0.0,-4.0272,-4.0289,-4.0377,-4.0598,-4.1091,-4.153,-4.1797,-4.1848,-4.2315,-4.3063,-4.4094,-4.4018,-4.4139,-4.4738,-4.4925,-4.4842,-4.4477,-4.5247,-4.5519,-4.5106,-4.5528,-4.5715,-4.5694,-4.5687,-4.5726,-4.5772,-4.6148,-4.5854,-4.4949,-4.5355,-4.5039,-4.4077,-4.3661,-4.3498,-4.3462,-4.2948,-4.2534,-4.2269,-4.2409,-4.2145,-4.1762,-4.1762,-4.1692,-4.1604,0.0,0.0,0.0,0.0,0.0,0.0,0.0,0.0,0.0,0.0,0.0,-3.9799,-4.0018,-3.9894,-3.9648,0.0,0.0,0.0,0.0,-3.995,-4.0696,-4.1074,-4.0929,-4.0469,-3.9689,-3.9575,-3.9647,-3.9914,-3.9299,-3.8666,-3.8081,-3.7386,-3.6684,-3.5995,-3.5995,-3.59,-3.5725,-3.5372,-3.509,-3.4889,-3.5248,-3.5429,-3.5671,-3.714,-3.8118,-3.8746,-3.8894,-3.895,-3.8979,-3.9298,-3.9513,-3.975,-4.0061,-4.0214,-4.0289,-4.0233,-4.0099,0.0,0.0,0.0,0.0,0.0,0.0,0.0,0.0,-3.9661,-3.9762,-3.9848,-3.9954,-4.0098,-4.0196,-4.0272,-4.0325,-4.0379,-4.0598,-4.0989,-4.17,-4.2085,-4.2329,-4.2414,-4.3347,-4.4173,-4.4614,-4.4633,-4.4726,-4.5007,-4.5251,-4.5133,-4.4552,-4.5266,-4.5397,-4.474,-4.4899,-4.5207,-4.5686,-4.5706,-4.597,-4.6516,-4.6666,-4.6162,-4.5068,-4.5167,-4.4579,-4.3411,-4.3228,-4.3027,-4.2882,-4.2882,-4.2786,-4.2609,-4.2649,-4.2269,-4.1736,-4.1849,-4.1762,-4.1604,0.0,0.0,0.0,0.0,0.0,0.0,0.0,0.0,0.0,0.0,0.0,0.0,0.0,0.0,0.0,0.0,0.0,0.0,-3.817,-3.9588,-4.0341,-3.9994,-3.997,-3.9823,-3.9526,-3.9526,-3.967,-3.9996,-3.9261,-3.861,-3.7998,-3.7258,-3.6582,-3.5995,-3.5995,-3.5841,-3.5524,-3.5369,-3.5063,-3.4708,-3.4652,-3.4983,-3.5609,-3.6559,-3.7389,-3.8108,-3.8691,-3.8921,-3.9064,-3.9575,-3.967,-3.9717,-4.0215,-4.0344,-4.0289,-4.0215,-4.0118,-3.9958,-3.9827,-3.9781,-3.975,-3.9769,-3.9724,-3.9717,0.0,-3.9867,-3.9911,-4.0036,-4.0176,-4.0272,-4.0291,-4.029,-4.0325,-4.0379,-4.1044,-4.1613,-4.178,-4.3137,-4.4129,-4.4214,-4.4286,-4.4566,-4.515,-4.5105,-4.4943,-4.4751,-4.4689,-4.458,-4.4515,-4.5256,-4.5641,-4.5547,-4.6318,-4.6393,-4.5707,-4.5697,-4.5397,-4.4777,-4.5491,-4.5645,-4.5294,-4.5771,-4.5771,-4.535,-4.4375,-4.3552,-4.2882,-4.2882,-4.2786,-4.2609,-4.2786,-4.2591,-4.2205,-4.1977,-4.1762,-4.1604,0.0,0.0,0.0,0.0,0.0,0.0,0.0,0.0,0.0,0.0,0.0,0.0,0.0,0.0,0.0,0.0,0.0,0.0,-3.8012,-3.9546,-4.0302,-3.9819,-3.9797,-3.9705,-3.9483,-3.9502,-3.967,-3.9996,-3.9716,-3.904,-3.7998,-3.7725,-3.7033,-3.5996,-3.5994,-3.5896,-3.571,-3.5392,-3.5119,-3.4907,-3.4567,-3.4587,-3.4883,-3.5696,-3.6489,-3.7373,-3.8534,-3.8998,0.0,0.0,-3.9743,-3.9897,-4.0234,-4.029,-4.0234,-4.0157,-4.0098,-4.0038,-3.9941,-3.9922,-3.9899,-3.9769,-3.9829,-3.9911,-3.9804,-3.9911,-4.0036,-4.0096,-4.0215,-4.0291,-4.0309,-4.0326,-4.0379,-4.0449,-4.119,-4.1953,-4.2489,-4.3618,-4.4592,-4.5121,-4.5214,-4.5263,-4.5416,-4.5225,-4.5011,-4.4768,-4.5036,-4.4974,-4.4533,-4.5273,-4.5479,-4.5031,-4.5359,-4.5378,-4.5012,-4.5003,-4.4824,-4.4515,-4.4853,-4.4782,-4.4378,-4.4595,-4.4469,-4.4051,-4.361,-4.3208,-4.2882,-4.2882,-4.2844,-4.2786,-4.2862,-4.2747,-4.245,-4.2351,-4.2187,-4.1995,0.0,0.0,0.0,0.0,0.0,0.0,0.0,0.0,0.0,0.0,0.0,0.0,0.0,0.0,0.0,0.0,0.0,0.0,0.0,-3.9339,-4.0055,-3.9775,-3.9775,0.0,-3.9575,-3.9526,-3.967,-3.9996,-4.0057,-3.9387,-3.7998,-3.8064,-3.7358,-3.5996,-3.5994,-3.5923,-3.5779,-3.5433,-3.5168,-3.4943,-3.463,-3.4427,-3.4386,-3.5181,-3.5864,-3.6582,-3.8127,-3.8897,0.0,0.0,-3.9788,-4.0001,-4.0234,-4.0272,-4.0196,-4.0137,-4.0057,-4.0036,-3.9994,-3.9998,-3.9979,-3.9829,-3.9933,-4.0036,-3.9804,-3.9933,-4.0117,-4.0117,-4.0215,-4.0291,-4.0307,-4.0379,-4.0526,-4.079,-4.1588,-4.2467,-4.3333,-4.4209,-4.5009,-4.5638,-4.5781,-4.5712,-4.5526,-4.5265,-4.502,-4.482,-4.5157,-4.5106,-4.4533,-4.5046,-4.5103,-4.4505,-4.4515,-4.4515,-4.4515,-4.4515,-4.4515,-4.4515,-4.4515,-4.4306,-4.3923,-4.3777,-4.3408,-4.2882,-4.2882,-4.2882,-4.2882,-4.2882,-4.2882,-4.2882,-4.2882,-4.2824,-4.267,-4.267,-4.2512,-4.2287,0.0,0.0,0.0,0.0,0.0,0.0,0.0,0.0,0.0,0.0,0.0,0.0,0.0,0.0,0.0,0.0,0.0,0.0,0.0,-3.8719,-3.9446,-3.9702,-3.9772,-3.9772,-3.9693,-3.9575,-3.967,-3.9996,-4.0057,-3.9387,-3.7998,-3.8064,-3.7358,-3.5996,-3.5994,-3.5841,-3.5592,-3.5512,-3.5158,-3.4632,-3.4749,-3.4583,-3.4409,-3.5348,-3.5661,-3.5826,-3.732,0.0,0.0,0.0,-3.9785,-3.9956,-4.0234,-4.031,0.0,-4.0137,-4.0015,-3.9911,-3.9911,-3.9994,-4.0077,-3.9996,-4.0055,-4.0053,-3.993,-4.0015,-4.0117,-4.0117,-4.0215,-4.0307,-4.0307,-4.0396,-4.0751,-4.1539,-4.2447,-4.3362,-4.4229,-4.5175,-4.5761,-4.5781,-4.5805,-4.5723,-4.5507,-4.5321,-4.5091,-4.4806,-4.464,-4.4533,-4.4515,-4.4505,-4.4524,-4.4515,-4.4515,-4.4515,-4.4515,-4.4515,-4.4515,-4.4515,-4.4515,-4.4487,-4.4458,-4.3955,-4.3408,-4.2882,-4.2882,-4.2882,-4.2882,-4.2882,-4.2882,-4.2882,-4.2882,-4.29,-4.2882,-4.2882,-4.2631,-4.2287,0.0,0.0,0.0,0.0,0.0,0.0,0.0,0.0,0.0,0.0,0.0,0.0,0.0,0.0,0.0,0.0,0.0,0.0,0.0,-3.8373,-3.9104,-3.9105,-3.9507,-3.9721,-3.9693,-3.967,-3.9739,-3.9996,-4.0057,-3.9387,-3.7998,-3.8063,-3.7345,-3.5996,-3.5947,-3.5856,-3.571,-3.5469,-3.5117,-3.4755,-3.4771,-3.4561,-3.4282,-3.4726,-3.5267,-3.5874,0.0,0.0,0.0,-3.9646,-4.0021,-4.0177,-4.0272,-4.0272,-4.0215,-4.0136,-4.0074,-4.0032,-4.0091,-4.0136,-4.0158,-4.0077,-4.0137,-4.0195,-4.0057,-4.0137,-4.0234,-4.0234,-4.0272,-4.0309,-4.0307,-4.0379,-4.0718,-4.1558,-4.2486,-4.34,-4.4267,-4.5214,-4.58,-4.58,-4.5805,-4.5723,-4.5507,-4.5321,-4.5086,-4.4817,-4.4607,-4.4515,-4.4515,-4.4515,-4.4515,-4.4515,-4.4515,-4.4515,-4.4515,-4.4515,-4.4515,-4.4515,-4.4306,-4.414,-4.3955,-4.3612,-4.3232,-4.2882,-4.2882,-4.2882,-4.2882,-4.2882,-4.2882,-4.2882,-4.2882,-4.2882,-4.2882,-4.2882,-4.2806,-4.267,0.0,0.0,0.0,0.0,0.0,0.0,0.0,0.0,0.0,0.0,0.0,0.0,0.0,0.0,0.0,0.0,0.0,0.0,0.0,0.0,-3.8728,-3.8822,-3.9466,-3.9705,-3.9461,-3.9353,-3.9264,-3.9184,-3.9547,-3.8963,-3.7588,-3.7904,-3.7304,-3.597,-3.5893,-3.5821,-3.5753,-3.5477,-3.5085,-3.4676,-3.4792,-3.4564,-3.4173,-3.452,-3.5009,0.0,0.0,0.0,0.0,-3.9239,-3.9872,-4.029,-4.0291,-4.0273,-4.0253,-4.0252,-4.0215,-4.0194,-4.0234,-4.0215,-4.0196,-4.0176,-4.0234,-4.0291,-4.0176,-4.0234,-4.031,-4.031,-4.0291,-4.0309,-4.0344,-4.0379,-4.0814,-4.2011,-4.273,-4.3547,-4.472,-4.5418,-4.581,-4.581,-4.5786,-4.5723,-4.5507,-4.5321,-4.5088,-4.4813,-4.4616,-4.4515,-4.4515,-4.4515,-4.4515,-4.4515,-4.4515,-4.4515,-4.4515,-4.4515,-4.4515,-4.4515,-4.4335,-4.4048,-4.3679,-4.3511,-4.3232,-4.2882,-4.2882,-4.2882,-4.2882,-4.2882,-4.2882,-4.2882,-4.2882,-4.2882,-4.2882,-4.2882,-4.2719,-4.2428,0.0,0.0,0.0,0.0,0.0,0.0,0.0,0.0,0.0,0.0,0.0,0.0,0.0,0.0,0.0,0.0,0.0,0.0,0.0,0.0,0.0,-3.8889,-3.964,-3.9698,-3.9023,-3.8708,-3.8269,-3.7695,-3.8534,-3.8204,-3.6818,-3.7607,-3.7217,-3.591,-3.584,-3.5752,-3.5693,-3.5546,-3.5057,-3.4445,-3.4831,-3.4588,-3.408,-3.4672,0.0,0.0,0.0,0.0,0.0,-3.8518,-3.9471,-4.031,-4.031,-4.0349,-4.0405,-4.0477,-4.0447,-4.0368,-4.0326,-4.0264,-4.0234,-4.0291,-4.031,-4.031,-4.031,-4.031,-4.031,-4.031,-4.0309,-4.0325,-4.0379,-4.0449,-4.1072,-4.2826,-4.3158,-4.382,-4.5549,-4.5805,-4.58,-4.58,-4.58,-4.5723,-4.5507,-4.5322,-4.5091,-4.4829,-4.4617,-4.4515,-4.4515,-4.4515,-4.4515,-4.4515,-4.4515,-4.4515,-4.4515,-4.4515,-4.4515,-4.4515,-4.4515,-4.4218,-4.3712,-4.3712,-4.3408,-4.2882,-4.2882,-4.2882,-4.2882,-4.2882,-4.2882,-4.2882,-4.2882,-4.2882,-4.2882,-4.2846,-4.2357,-4.1668,0.0,0.0,0.0,0.0,0.0,0.0,0.0,0.0,0.0,0.0,0.0,0.0,0.0,0.0,0.0,0.0,0.0,0.0,0.0,0.0,0.0,0.0,0.0,0.0,0.0,0.0,0.0,0.0,0.0,-3.7758,-3.6956,-3.7221,-3.6844,0.0,-3.581,-3.5689,-3.5611,-3.5372,-3.5015,-3.4632,0.0,-3.463,-3.434,0.0,0.0,0.0,0.0,0.0,0.0,-3.941,-4.01,-4.0367,-4.0356,-4.0889,-4.1379,-4.0771,-4.1012,-4.1362,-4.0693,-4.0442,-4.0358,-4.0375,-4.0345,-4.031,-4.031,-4.031,-4.031,-4.031,-4.0309,-4.0307,-4.0325,-4.0427,-4.1066,-4.2829,-4.3158,-4.381,-4.5549,-4.5805,-4.58,-4.58,-4.58,-4.5723,-4.5507,-4.532,-4.5087,-4.4824,-4.4617,-4.4515,-4.4515,-4.4515,-4.4515,-4.4515,-4.4515,-4.4515,-4.4515,-4.4515,-4.4515,-4.4515,-4.4515,-4.4218,-4.3712,-4.3712,-4.3408,-4.2882,-4.2882,-4.2882,-4.2882,-4.2882,-4.2882,-4.2882,-4.2882,-4.2882,-4.2828,-4.223,-4.1886,-4.156,0.0,0.0,0.0,0.0,0.0,0.0,0.0,0.0,0.0,0.0,0.0,0.0,0.0,0.0,0.0,0.0,0.0,0.0,0.0,0.0,0.0,0.0,0.0,0.0,0.0,0.0,0.0,0.0,0.0,0.0,0.0,-3.6857,-3.6651,-3.5917,-3.5795,-3.5689,-3.5601,0.0,0.0,0.0,0.0,0.0,0.0,0.0,0.0,0.0,0.0,0.0,0.0,-4.0027,-4.0375,-4.0413,-4.0472,-4.0919,-4.1325,-4.0881,-4.1067,-4.1312,-4.0822,-4.0554,-4.0406,-4.0406,-4.036,-4.0291,-4.031,-4.031,-4.0291,-4.031,-4.0309,-4.0307,-4.0325,-4.0444,-4.1081,-4.2861,-4.3188,-4.3805,-4.5559,-4.5786,-4.58,-4.58,-4.58,-4.5692,-4.5399,-4.5277,-4.5057,-4.4701,-4.4549,-4.4515,-4.4515,-4.4515,-4.4515,-4.4515,-4.4515,-4.4515,-4.4515,-4.4515,-4.4515,-4.4515,-4.4515,-4.4218,-4.3712,-4.3712,-4.3408,-4.2882,-4.2882,-4.2882,-4.2882,-4.2882,-4.2882,-4.2882,-4.2882,-4.2882,-4.2846,-4.2393,-4.1796,-4.1071,0.0,0.0,0.0,0.0,0.0,0.0,0.0,0.0,0.0,0.0,0.0,0.0,0.0,0.0,0.0,0.0,0.0,0.0,0.0,0.0,0.0,0.0,0.0,0.0,0.0,0.0,0.0,0.0,0.0,0.0,0.0,0.0,0.0,0.0,0.0,0.0,0.0,0.0,0.0,0.0,0.0,0.0,0.0,0.0,0.0,0.0,0.0,0.0,0.0,-4.0399,-4.0431,-4.0457,-4.0604,-4.0796,-4.0974,-4.0917,-4.0945,-4.0963,-4.0851,-4.0635,-4.0454,-4.0438,-4.0392,-4.0325,-4.031,-4.0309,-4.0289,-4.0291,-4.0309,-4.0325,-4.0396,-4.046,-4.1093,-4.2903,-4.3197,-4.3819,-4.5568,-4.58,-4.58,-4.58,-4.58,-4.5642,-4.5263,-4.5222,-4.5026,-4.4578,-4.4542,-4.4542,-4.4542,-4.4524,-4.4524,-4.4542,-4.4542,-4.4515,-4.4515,-4.4515,-4.4515,-4.4515,-4.4515,-4.4248,-4.3744,-4.3712,-4.3442,-4.2957,-4.2938,-4.2882,-4.2882,-4.2882,-4.2882,-4.2882,-4.2882,-4.2882,-4.2882,-4.2774,-4.1796,-4.0492,0.0,0.0,0.0,0.0,0.0,0.0,0.0,0.0,0.0,0.0,-3.5895,0.0,0.0,0.0,0.0,0.0,0.0,0.0,0.0,0.0,0.0,0.0,0.0,0.0,0.0,0.0,0.0,0.0,0.0,0.0,0.0,0.0,0.0,0.0,0.0,0.0,0.0,0.0,0.0,0.0,0.0,0.0,0.0,0.0,0.0,0.0,0.0,0.0,0.0,0.0,-4.0562,-4.0673,-4.0729,-4.1305,-4.181,-4.1112,-4.1403,-4.1801,-4.1082,-4.0815,-4.0707,-4.0588,-4.05,-4.0444,-4.0328,-4.0309,-4.0289,-4.0291,-4.0327,-4.0396,-4.0408,-4.05,-4.1166,-4.2908,-4.3258,-4.3885,-4.5548,-4.58,-4.58,-4.58,-4.58,-4.5692,-4.5381,-4.5282,-4.5113,-4.4846,-4.4738,-4.4659,-4.4659,-4.477,-4.477,-4.4685,-4.4659,-4.4605,-4.4515,-4.4515,-4.4515,-4.4515,-4.4515,-4.4354,-4.403,-4.3809,-4.3545,-4.3232,-4.2995,0.0,-4.2882,-4.2882,-4.2882,-4.2882,-4.2882,-4.2882,-4.281,-4.2158,-4.1325,-4.0419,0.0,0.0,0.0,0.0,0.0,0.0,0.0,0.0,0.0,0.0,-3.63,-3.6437,0.0,0.0,0.0,0.0,0.0,0.0,0.0,0.0,0.0,0.0,0.0,0.0,0.0,0.0,-3.5775,-3.585,0.0,0.0,0.0,-3.5986,-3.5951,0.0,0.0,0.0,0.0,0.0,0.0,0.0,0.0,0.0,0.0,0.0,0.0,0.0,0.0,0.0,0.0,0.0,-4.0662,-4.0796,-4.0759,-4.1121,-4.1502,-4.1073,-4.1252,-4.1488,-4.106,-4.0869,-4.0776,-4.0723,-4.0636,-4.053,-4.0425,-4.0377,-4.0344,-4.0309,-4.0344,-4.0413,-4.0441,-4.053,-4.1161,-4.2922,-4.3258,-4.3885,-4.5548,-4.58,-4.58,-4.58,-4.6234,-4.6259,-4.5566,-4.5803,-4.5701,-4.5042,-4.4948,-4.487,-4.4815,-4.4889,-4.487,-4.4815,-4.4738,-4.4685,-4.4605,-4.4524,-4.4515,-4.4515,-4.4515,-4.4383,-4.4091,-4.3809,-4.3545,-4.3267,-4.3032,-4.2882,-4.2882,-4.2882,-4.2882,-4.2882,-4.2882,-4.2882,-4.2846,-4.2466,-4.156,-4.0456,0.0,0.0,0.0,0.0,0.0,0.0,0.0,-3.5678,-3.5911,-3.615,-3.6923,-3.7226,-3.6598,-3.6485,-3.6448,0.0,0.0,0.0,0.0,0.0,0.0,0.0,0.0,0.0,0.0,0.0,0.0,-3.6196,-3.6003,0.0,0.0,0.0,0.0,0.0,-3.5668,-3.5473,0.0,0.0,0.0,0.0,0.0,0.0,0.0,0.0,0.0,0.0,0.0,0.0,0.0,0.0,-4.0757,-4.0876,-4.078,-4.0867,-4.1,-4.1007,-4.1006,-4.0996,-4.1003,-4.0913,-4.083,-4.084,-4.0726,-4.0617,-4.0521,-4.0457,-4.0396,-4.0344,-4.036,-4.0447,-4.0508,-4.0579,-4.1137,-4.2684,-4.3137,-4.3827,-4.5336,-4.5655,-4.5737,-4.5786,-4.6573,-4.6718,-4.569,-4.6278,-4.6282,-4.5258,-4.5154,-4.5103,-4.4991,-4.4986,-4.4967,-4.4943,-4.4821,-4.4764,-4.4712,-4.4605,-4.4542,-4.4515,-4.4515,-4.4383,-4.4091,-4.3809,-4.3545,-4.3267,-4.3032,-4.2882,-4.2882,-4.2882,-4.2882,-4.2882,-4.2882,-4.2882,-4.2882,-4.2882,-4.1886,-4.051,0.0,0.0,0.0,0.0,0.0,0.0,0.0,-3.6054,-3.6712,-3.705,-3.778,-3.8281,-3.8266,-3.8261,-3.8207,0.0,0.0,0.0,0.0,0.0,0.0,0.0,0.0,0.0,0.0,0.0,0.0,-3.7164,-3.6387,0.0,0.0,0.0,0.0,0.0,0.0,-3.5331,-3.5266,0.0,0.0,0.0,0.0,0.0,0.0,0.0,0.0,0.0,0.0,-3.9765,-4.0554,-4.064,-4.0776,-4.0913,-4.0902,-4.0929,-4.1003,-4.1006,-4.0991,-4.1003,-4.1,-4.0981,-4.0967,-4.0913,-4.084,-4.0723,-4.0538,-4.0485,-4.0466,-4.0396,-4.0444,-4.0508,-4.0573,-4.0646,-4.099,-4.1957,-4.2783,-4.3634,-4.4581,-4.5179,-4.5577,-4.5696,-4.6378,-4.6499,-4.5673,-4.6278,-4.6359,-4.5534,-4.536,-4.5275,-4.5256,-4.5256,-4.5213,-4.5103,-4.508,-4.4943,-4.4712,-4.4685,-4.4632,-4.4515,-4.4515,-4.4383,-4.4091,-4.3809,-4.3545,-4.3267,-4.3032,-4.2882,0.0,-4.2882,-4.2882,-4.2882,-4.2882,-4.2882,-4.2882,-4.2882,-4.1886,-4.051,0.0,0.0,0.0,0.0,0.0,0.0,0.0,-3.6232,-3.6942,-3.781,-3.8666,-3.9172,-3.9154,-3.959,-3.9466,0.0,0.0,0.0,0.0,0.0,0.0,0.0,0.0,0.0,0.0,0.0,-3.773,-3.8085,-3.7206,0.0,0.0,0.0,0.0,0.0,0.0,-3.52,-3.5053,-3.4946,0.0,0.0,0.0,0.0,0.0,0.0,0.0,0.0,0.0,0.0,-4.0623,-4.0688,-4.0829,-4.102,-4.1013,-4.1013,-4.102,-4.1056,-4.107,-4.1052,-4.105,-4.1056,-4.1056,-4.1039,-4.0902,-4.078,-4.0707,-4.0588,-4.0482,-4.0479,-4.0492,-4.0519,-4.0646,-4.0673,-4.0984,-4.1874,-4.2725,-4.3595,-4.4473,-4.5264,-4.5742,-4.5765,-4.6905,-4.7159,-4.5748,-4.674,-4.6897,-4.5475,-4.5319,-4.5297,-4.5297,-4.5297,-4.5275,-4.5213,-4.5148,-4.5057,-4.4943,-4.477,-4.4685,-4.4632,-4.4542,-4.4383,-4.4091,-4.3809,-4.3545,-4.3267,-4.3032,-4.2882,0.0,-4.2882,-4.2882,-4.2882,-4.2882,-4.2882,-4.2882,-4.2882,-4.1886,-4.051,0.0,0.0,0.0,0.0,0.0,0.0,-3.5644,-3.6451,-3.7346,-3.8624,-3.9539,-4.0075,-4.0046,-4.0516,-4.0354,-3.915,0.0,0.0,0.0,0.0,0.0,0.0,0.0,0.0,0.0,0.0,-3.8729,-3.8984,-3.8081,-3.7636,0.0,0.0,-3.6358,-3.6163,0.0,0.0,0.0,0.0,0.0,0.0,0.0,0.0,0.0,0.0,0.0,0.0,0.0,0.0,0.0,0.0,0.0,-4.1103,-4.1091,0.0,0.0,-4.1096,-4.1091,-4.11,-4.1096,-4.11,-4.1105,-4.1105,-4.0954,-4.0801,-4.0811,-4.0655,-4.0531,-4.0523,-4.0554,-4.0583,-4.0687,-4.0733,-4.0939,0.0,0.0,-4.3544,-4.417,-4.515,-4.5819,-4.581,-4.7028,-4.7287,-4.5783,-4.6624,-4.6704,-4.5394,-4.5297,-4.5297,-4.5297,-4.5297,-4.5297,-4.5297,-4.5213,-4.5148,-4.5103,-4.4895,-4.4789,-4.4712,-4.4605,-4.4364,-4.3968,-4.3777,-4.3511,-4.316,-4.2995,-4.2882,0.0,-4.2882,-4.2882,-4.2882,-4.2882,-4.2882,-4.2882,-4.2882,-4.1886,-4.051,0.0,0.0,0.0,0.0,0.0,0.0,0.0,-3.6823,-3.8089,-3.9493,-4.0447,-4.1001,-4.1085,-4.0974,-4.0866,-4.0771,0.0,0.0,0.0,0.0,0.0,0.0,0.0,0.0,0.0,0.0,0.0,-3.9882,-3.8951,-3.8419,-3.8284,-3.8132,-3.7964,-3.774,0.0,0.0,0.0,0.0,0.0,0.0,0.0,0.0,0.0,0.0,0.0,0.0,0.0,0.0,0.0,0.0,0.0,0.0,0.0,0.0,0.0,0.0,-4.1095,-4.11,-4.1105,-4.1101,-4.1108,-4.1108,-4.0955,-4.081,-4.081,-4.0687,-4.0607,-4.0607,-4.0646,-4.07,-4.07,-4.0746,-4.079,-4.081,-4.2279,0.0,-4.3414,-4.4675,-4.5654,-4.578,-4.6467,-4.6596,-4.5793,-4.5584,-4.5458,-4.5317,-4.5297,-4.5297,-4.5297,-4.5297,-4.5297,-4.5297,-4.5297,-4.5235,-4.5103,-4.5103,-4.4943,-4.4712,-4.4712,-4.4345,-4.3712,-4.3712,-4.3408,-4.2882,-4.2882,-4.2882,0.0,-4.2882,-4.2882,-4.2882,-4.2882,-4.2882,-4.2882,-4.2882,-4.1886,-4.051,0.0,0.0,0.0,0.0,0.0,0.0,0.0,-3.7466,-3.8904,-4.0271,-4.0686,-4.0908,-4.1019,-4.0922,-4.08,-4.0734,0.0,0.0,0.0,0.0,0.0,0.0,0.0,0.0,0.0,0.0,0.0,0.0,-3.9825,-3.9316,-3.9159,-3.8443,-3.799,-3.7789,-3.7373,-3.7109,0.0,0.0,0.0,0.0,0.0,0.0,0.0,0.0,0.0,0.0,0.0,0.0,0.0,0.0,0.0,0.0,0.0,0.0,0.0,0.0,0.0,-4.11,-4.1096,-4.1105,-4.1105,-4.1105,-4.0948,-4.0811,-4.0869,-4.0725,-4.0603,-4.066,-4.0687,-4.07,-4.0759,-4.079,-4.079,-4.079,-4.1763,-4.2717,-4.3315,-4.4227,-4.508,-4.565,-4.5778,-4.5918,-4.6225,-4.5705,-4.5359,-4.5297,-4.5297,-4.5297,-4.5297,-4.5297,-4.5297,-4.5297,-4.5297,-4.5275,-4.5254,-4.5148,-4.5057,-4.4967,-4.4789,-4.4486,-4.4102,-4.403,-4.366,-4.316,-4.316,-4.3069,-4.2882,-4.2882,-4.2882,-4.2882,-4.2882,-4.2882,-4.2882,-4.2882,-4.1886,-4.051,0.0,0.0,0.0,0.0,0.0,0.0,0.0,-3.7857,-3.9195,-4.0483,-4.075,-4.0867,-4.0952,-4.0911,-4.0867,-4.082,0.0,0.0,0.0,0.0,0.0,0.0,0.0,0.0,0.0,0.0,0.0,0.0,0.0,0.0,-3.9994,-3.9294,-3.8864,-3.8647,-3.8214,-3.7921,0.0,0.0,0.0,0.0,0.0,0.0,-3.9094,0.0,0.0,0.0,0.0,0.0,0.0,0.0,0.0,0.0,0.0,0.0,0.0,0.0,-4.1097,-4.1109,-4.1106,-4.1091,-4.1091,-4.1075,-4.0937,-4.084,-4.0829,-4.0725,-4.0646,-4.0687,-4.0733,-4.0746,-4.079,-4.079,-4.079,-4.079,-4.1524,-4.2252,-4.2731,-4.3802,-4.4838,-4.56,-4.5513,-4.5571,-4.6068,-4.5625,-4.5297,-4.5297,-4.5297,-4.5297,-4.5297,-4.5297,-4.5297,-4.5297,-4.5297,-4.5297,-4.5297,-4.5213,-4.5148,-4.5103,-4.4919,-4.4674,-4.4289,-4.4221,-4.3855,-4.3303,-4.3303,-4.3124,0.0,-4.2882,-4.2882,-4.2882,-4.2882,-4.2882,-4.2846,-4.2556,-4.1633,-4.0474,0.0,0.0,0.0,0.0,0.0,0.0,0.0,0.0,0.0,0.0,-4.0662,-4.0877,-4.0896,-4.0952,-4.0996,0.0,0.0,0.0,0.0,0.0,0.0,0.0,0.0,0.0,0.0,0.0,0.0,-4.1108,-4.0974,-4.0839,-4.0692,0.0,0.0,-4.0058,-3.9178,0.0,0.0,0.0,0.0,0.0,0.0,0.0,0.0,0.0,0.0,0.0,0.0,0.0,0.0,0.0,0.0,0.0,0.0,0.0,0.0,0.0,0.0,0.0,0.0,-4.11,-4.1081,-4.102,-4.0941,-4.0869,-4.0734,-4.0713,0.0,-4.07,-4.0746,-4.079,-4.079,-4.079,-4.079,-4.0803,-4.147,-4.1962,-4.1827,-4.3385,-4.4819,-4.5507,-4.5509,-4.5495,-4.5495,-4.538,-4.5297,-4.5297,-4.5297,-4.5297,-4.5297,-4.5297,-4.5297,-4.5297,-4.5297,-4.5297,-4.5297,-4.5297,-4.5254,-4.5125,-4.5084,-4.4833,-4.4346,-4.4336,-4.3992,0.0,-4.3338,-4.316,-4.292,-4.292,-4.2882,-4.2882,-4.2882,-4.2882,-4.2792,-4.2013,-4.1198,-4.0401,0.0,0.0,0.0,0.0,0.0,0.0,0.0,0.0,0.0,0.0,-4.0467,-4.0733,-4.0886,-4.0904,0.0,0.0,0.0,0.0,0.0,0.0,0.0,0.0,0.0,0.0,0.0,0.0,0.0,-4.1097,-4.0974,-4.082,-4.0692,-4.0477,0.0,0.0,0.0,0.0,0.0,0.0,0.0,0.0,0.0,0.0,0.0,0.0,0.0,0.0,-4.0234,-4.0379,0.0,0.0,0.0,0.0,0.0,0.0,0.0,0.0,-4.111,-4.111,-4.1097,0.0,-4.1071,-4.0957,-4.0858,-4.0819,0.0,0.0,-4.07,-4.0778,-4.079,-4.079,-4.079,-4.079,-4.0803,-4.0808,-4.0978,-4.1265,-4.1721,-4.3159,-4.4209,-4.4364,-4.4959,-4.54,-4.5495,-4.538,-4.5297,-4.5297,-4.5297,-4.5297,-4.5297,-4.5297,-4.5297,-4.5297,-4.5297,-4.5297,-4.5297,-4.5297,-4.5297,-4.5235,-4.5148,-4.5038,-4.49,-4.47,-4.4412,-4.4053,-4.3726,-4.3442,-4.3196,-4.2995,-4.2882,-4.2882,-4.2882,-4.2882,-4.2792,-4.2013,-4.1198,-4.0401,0.0,0.0,0.0,0.0,0.0,0.0,0.0,0.0,0.0,0.0,0.0,0.0,0.0,0.0,0.0,0.0,0.0,0.0,0.0,0.0,0.0,0.0,0.0,0.0,0.0,0.0,0.0,0.0,0.0,-4.0779,0.0,0.0,0.0,0.0,0.0,0.0,0.0,0.0,0.0,0.0,-3.8979,0.0,0.0,0.0,0.0,0.0,-4.0215,-4.0364,0.0,-4.0564,-4.0694,-4.0839,0.0,0.0,0.0,0.0,-4.111,-4.1091,-4.1097,-4.1103,-4.1065,-4.0906,-4.084,-4.082,-4.0725,0.0,0.0,-4.079,-4.079,-4.079,-4.079,-4.079,-4.0803,-4.0796,-4.0713,-4.1048,-4.2198,-4.3049,-4.3692,-4.4039,-4.4518,-4.4806,-4.4806,-4.4766,-4.4876,-4.5258,-4.5297,-4.5297,-4.5297,-4.5297,-4.5297,-4.5297,-4.5297,-4.5297,-4.5297,-4.5297,-4.5297,-4.5297,-4.5233,-4.517,-4.5103,-4.4943,-4.4655,-4.4289,-4.4053,-4.3726,-4.3303,-4.3124,-4.3032,-4.2882,-4.2882,-4.2665,-4.2248,-4.147,-4.0673,-3.9894,0.0,0.0,0.0,0.0,0.0,0.0,0.0,0.0,0.0,0.0,0.0,0.0,0.0,0.0,0.0,0.0,0.0,0.0,0.0,0.0,0.0,0.0,0.0,0.0,0.0,0.0,0.0,0.0,0.0,0.0,0.0,0.0,-4.0077,0.0,0.0,0.0,0.0,0.0,0.0,0.0,-3.9036,0.0,0.0,0.0,0.0,0.0,0.0,0.0,0.0,-4.046,-4.0574,-4.0718,-4.0859,0.0,0.0,0.0,0.0,0.0,-4.1089,-4.1095,-4.1046,-4.0869,-4.0859,-4.0849,-4.0655,0.0,0.0,-4.079,-4.079,-4.079,-4.079,-4.079,-4.079,-4.0803,-4.0607,-4.0931,-4.2324,-4.2633,-4.2961,-4.3692,-4.3866,-4.3924,-4.3847,-4.394,-4.4322,-4.5048,-4.522,-4.5297,-4.5297,-4.5297,-4.5297,-4.5297,-4.5297,-4.5297,-4.5297,-4.5297,-4.5297,-4.5297,-4.5297,-4.5235,-4.5125,-4.5125,-4.4833,-4.4402,0.0,0.0,-4.3408,-4.3338,-4.3124,-4.2882,-4.2755,-4.2303,-4.1615,-4.0691,-3.9948,-3.9278,0.0,0.0,0.0,0.0,0.0,0.0,0.0,0.0,0.0,0.0,0.0,0.0,0.0,0.0,0.0,0.0,0.0,0.0,0.0,0.0,0.0,0.0,0.0,0.0,0.0,0.0,0.0,0.0,0.0,0.0,-4.0454,-4.0215,-4.0015,-3.9826,0.0,-3.9583,-3.9395,-3.9399,-3.9275,-3.9101,-3.9036,0.0,0.0,0.0,0.0,0.0,0.0,0.0,0.0,-4.046,-4.0574,-4.0718,-4.0859,0.0,0.0,0.0,0.0,0.0,-4.1089,-4.1058,-4.0979,-4.0917,-4.0887,-4.0869,-4.072,-4.0746,-4.079,-4.079,-4.079,-4.079,-4.079,-4.079,-4.0803,-4.0808,-4.0496,-4.0289,-4.0366,-4.0905,-4.1437,-4.18,-4.2428,-4.2927,-4.3136,-4.3675,-4.4074,-4.4188,-4.4876,-4.5297,-4.5297,-4.5297,-4.5297,-4.5297,-4.5297,-4.5297,-4.5297,-4.5297,-4.5297,-4.5297,-4.5297,-4.5297,-4.5275,-4.5148,-4.5061,-4.4948,0.0,-4.4095,-4.3786,-4.3424,-4.3124,-4.2828,-4.2158,-4.1832,-4.1542,-4.0093,-3.9496,-3.9278,0.0,0.0,0.0,0.0,0.0,0.0,0.0,0.0,0.0,0.0,0.0,0.0,0.0,0.0,0.0,0.0,0.0,0.0,0.0,0.0,0.0,0.0,0.0,0.0,0.0,0.0,0.0,0.0,0.0,-4.0568,-4.0406,-4.0158,-3.9933,-3.9739,0.0,-3.9583,-3.9406,-3.9399,-3.9275,-3.9101,0.0,0.0,0.0,0.0,0.0,0.0,0.0,0.0,0.0,0.0,-4.0492,-4.0602,-4.0655,0.0,0.0,0.0,0.0,0.0,-4.0885,-4.0885,-4.0867,-4.084,-4.0849,-4.081,-4.072,-4.0746,-4.079,-4.079,-4.079,-4.079,-4.079,-4.079,-4.0733,-4.05,-4.0317,-4.0291,-4.0551,-4.0992,-4.1301,-4.1399,-4.1762,-4.203,-4.2087,-4.2431,-4.2851,-4.3329,-4.4131,-4.4609,-4.4609,-4.5029,-4.5297,-4.5297,-4.5297,-4.5297,-4.5297,-4.5297,-4.5297,-4.5297,-4.5297,-4.5297,-4.5297,-4.5254,-4.517,-4.5061,0.0,-4.4346,-4.3844,-4.3148,-4.2609,-4.2176,-4.1379,-4.0818,-4.0329,-3.917,-3.8735,-3.8699,0.0,0.0,0.0,0.0,0.0,0.0,0.0,0.0,0.0,0.0,0.0,0.0,0.0,0.0,0.0,0.0,0.0,0.0,0.0,0.0,0.0,0.0,0.0,0.0,0.0,0.0,-4.1032,-4.084,-4.0667,-4.0492,-4.0304,-4.0059,-3.9848,0.0,0.0,-3.9583,-3.9418,-3.9418,-3.9301,-3.9129,0.0,0.0,0.0,0.0,0.0,0.0,0.0,0.0,0.0,0.0,0.0,0.0,0.0,0.0,0.0,-4.0706,-4.0699,-4.0703,-4.0729,-4.074,-4.0779,-4.0787,-4.0798,-4.0787,-4.0739,-4.0759,-4.079,-4.079,-4.079,-4.079,-4.079,-4.0765,-4.0598,-4.0269,-4.0157,-4.0291,-4.0751,-4.0955,-4.1036,-4.0993,-4.1035,-4.1055,-4.1032,-4.1283,-4.1743,-4.245,-4.3271,-4.373,-4.373,-4.4341,-4.4704,-4.4704,-4.4895,-4.4991,-4.4991,-4.5201,-4.5297,-4.5297,-4.5297,-4.5297,-4.5297,-4.5297,-4.5235,-4.5148,-4.4967,-4.4489,-4.37,-4.286,-4.2121,-4.1434,-4.0564,-3.9786,-3.9025,-3.8409,-3.8192,-3.8192,0.0,0.0,0.0,0.0,0.0,0.0,0.0,0.0,0.0,0.0,0.0,0.0,0.0,0.0,0.0,0.0,0.0,0.0,0.0,0.0,0.0,0.0,0.0,0.0,0.0,-4.11,-4.0972,-4.0703,-4.0642,-4.0415,-4.0038,-3.9826,-3.9712,-3.9689,0.0,-3.9552,-3.9495,-3.9418,-3.9328,-3.9183,-3.9064,0.0,0.0,0.0,0.0,0.0,0.0,0.0,0.0,0.0,0.0,0.0,0.0,0.0,-4.0706,-4.0711,-4.0692,-4.0715,-4.0789,-4.0746,-4.0718,-4.0776,-4.0807,-4.0796,-4.0784,-4.079,-4.079,-4.079,-4.079,-4.079,-4.079,-4.0646,-4.0457,-4.0233,-4.004,-3.9867,-3.9731,-3.9726,-3.9755,-3.9834,-3.9815,-3.9924,-4.0172,-4.0859,-4.1396,-4.159,-4.2393,-4.2889,-4.2889,-4.2947,-4.2985,-4.2985,-4.3711,-4.4093,-4.4093,-4.4895,-4.5297,-4.5297,-4.5297,-4.5297,-4.5297,-4.5297,-4.5297,-4.5275,-4.5014,-4.4317,-4.3302,-4.2742,-4.1889,-4.0842,-3.9872,-3.8989,-3.8264,-3.821,-3.8192,-3.8192,0.0,0.0,0.0,0.0,0.0,0.0,0.0,0.0,0.0,0.0,0.0,0.0,0.0,0.0,0.0,0.0,0.0,0.0,0.0,0.0,0.0,0.0,0.0,-4.1071,-4.1039,-4.0999,-4.0888,-4.0687,-4.0419,-4.0158,-3.987,-3.9804,0.0,0.0,0.0,-3.9596,-3.9495,-3.9444,-3.9328,-3.9183,-3.9007,-3.8939,0.0,0.0,0.0,0.0,0.0,0.0,0.0,0.0,-4.0328,-4.0381,0.0,-4.0413,-4.0444,-4.0454,-4.0485,-4.0534,-4.0593,-4.0515,-4.0485,-4.0642,-4.0596,0.0,0.0,-4.079,-4.079,-4.079,-4.079,-4.079,-4.079,-4.0519,-4.0286,-4.0214,-3.9935,-3.9679,-3.9602,-3.9602,-3.9602,-3.9631,-3.9665,-3.9762,-3.9954,-4.0342,-4.0614,-4.0731,-4.1514,-4.1991,-4.1991,-4.2507,-4.2794,-4.2794,-4.31,-4.3252,-4.3252,-4.3577,-4.3749,-4.3749,-4.48,-4.5297,-4.5277,-4.4743,-4.4494,-4.4435,-4.377,-4.3037,-4.2229,-4.1463,-4.0688,-3.987,-3.8987,-3.8464,-3.8192,-3.8192,-3.8192,-3.8192,0.0,0.0,0.0,0.0,0.0,0.0,0.0,0.0,0.0,0.0,0.0,0.0,0.0,0.0,0.0,0.0,0.0,0.0,0.0,0.0,0.0,0.0,0.0,-4.1018,-4.0949,-4.082,-4.0734,-4.0649,-4.0251,-3.9975,-3.9804,0.0,0.0,0.0,0.0,-3.9596,-3.9495,-3.9301,-3.9202,-3.9156,-3.8862,-3.8803,0.0,0.0,0.0,0.0,0.0,0.0,0.0,0.0,-4.031,0.0,0.0,0.0,0.0,0.0,-4.0325,-4.0342,-4.0432,-4.0379,-4.0323,-4.0422,0.0,0.0,-4.0583,-4.066,-4.0693,-4.0612,-4.066,-4.0693,-4.0612,-4.0392,-4.0177,-4.012,-3.9823,-3.9602,-3.9602,-3.9656,-3.9703,-3.9703,-3.9735,-3.9807,-3.9916,-3.9996,-4.0077,-4.0234,-4.0788,-4.1113,-4.1113,-4.1686,-4.2011,-4.2011,-4.2259,-4.2393,-4.2393,-4.266,-4.2794,-4.2813,-4.3959,-4.4513,-4.4494,-4.3902,-4.3634,-4.3576,-4.29,-4.2177,-4.1394,-4.0607,-3.9786,-3.8952,-3.8409,-3.8192,-3.8192,-3.8192,-3.8192,-3.8192,0.0,0.0,0.0,0.0,0.0,0.0,0.0,0.0,0.0,0.0,0.0,0.0,0.0,0.0,0.0,0.0,0.0,0.0,0.0,0.0,0.0,0.0,0.0,-4.0924,-4.08,-4.0604,-4.0511,-4.0511,-4.0157,-3.9933,-3.9804,-3.9717,0.0,0.0,0.0,-3.9571,-3.9469,-3.898,-3.8923,-3.9045,-3.8603,-3.8559,-3.8792,0.0,0.0,0.0,0.0,0.0,0.0,0.0,-4.031,-4.031,0.0,0.0,0.0,-4.0379,-4.0307,-4.0214,-4.027,-4.0307,-4.027,-4.012,-4.0194,-4.0283,-4.0213,-4.0356,-4.0441,-4.0251,-4.0356,-4.0441,-4.0233,-4.0196,-4.0139,-3.9916,-3.975,-3.9602,-3.9602,-3.9777,-3.9914,-3.9914,-3.9914,-3.9937,-4.0002,-3.9937,-3.9954,-4.0077,-4.0234,-4.031,-4.031,-4.031,-4.031,-4.031,-4.1074,-4.1495,-4.1495,-4.2335,-4.2775,-4.2775,-4.2775,-4.2775,-4.2794,-4.2794,-4.2794,-4.2794,-4.2633,-4.1927,-4.0839,-4.0448,-3.9455,-3.8192,-3.8192,-3.8192,-3.8192,-3.8192,-3.8192,-3.8192,0.0,0.0,0.0,0.0,0.0,0.0,0.0,0.0,0.0,0.0,0.0,0.0,0.0,0.0,0.0,0.0,0.0,0.0,0.0,0.0,0.0,0.0,0.0,0.0,0.0,0.0,-4.0248,-4.0158,-3.9998,-3.9867,0.0,0.0,0.0,-3.962,0.0,0.0,0.0,-3.867,-3.8499,-3.853,-3.8428,-3.8446,-3.8528,0.0,0.0,0.0,0.0,0.0,0.0,0.0,0.0,0.0,0.0,0.0,0.0,-4.0432,-4.0449,-4.0413,-4.0444,-4.0269,-4.0101,-4.0212,-4.012,-4.0001,-4.0,-4.0251,-4.0489,-4.0406,-4.0339,-4.0269,-4.0214,-4.008,-3.9958,-3.9914,-3.975,-3.965,-3.98,-3.9848,-3.9937,-4.01,-4.012,-4.0139,-4.0193,-4.0194,-4.025,-4.037,-4.0422,-4.0425,-4.0358,-4.0358,-4.0362,-4.031,-4.054,-4.0654,-4.0654,-4.0922,-4.1036,-4.1036,-4.1036,-4.1667,-4.2775,-4.2163,-4.1896,-4.1858,-4.1246,-4.0523,-3.9733,-3.9128,-3.862,-3.8192,-3.8192,-3.8192,-3.8192,-3.8192,-3.8192,-3.8192,0.0,0.0,0.0,0.0,0.0,0.0,0.0,0.0,0.0,0.0,0.0,0.0,0.0,0.0,0.0,0.0,0.0,0.0,0.0,0.0,0.0,0.0,0.0,0.0,0.0,-4.0157,-4.0019,0.0,0.0,0.0,0.0,0.0,0.0,-3.9596,0.0,-3.9073,-3.8923,-3.8342,-3.818,-3.8328,-3.8201,-3.8318,-3.8546,0.0,0.0,0.0,0.0,0.0,0.0,0.0,0.0,0.0,0.0,0.0,0.0,-4.0381,-4.0344,-4.0288,-4.0233,-4.0081,-3.9939,-4.0002,-3.9958,-3.987,-3.9892,-4.002,-4.0139,-4.0139,-4.012,-4.006,-3.9979,-3.9935,-3.987,-3.98,-3.9679,-3.9656,-3.987,-3.9958,-4.01,-4.0304,-4.0321,-4.0339,-4.037,-4.0334,-4.0334,-4.0415,-4.0466,-4.0466,-4.0434,-4.0434,-4.0406,-4.0344,-4.0326,-4.0327,-4.031,-4.031,-4.031,-4.031,-4.031,-4.0826,-4.18,-4.1266,-4.1017,-4.0998,-4.0286,-3.9721,-3.9205,-3.8597,-3.8289,-3.8192,-3.8192,-3.8192,-3.8192,-3.8192,-3.8192,-3.8192,0.0,0.0,0.0,0.0,0.0,0.0,0.0,0.0,0.0,0.0,0.0,0.0,0.0,0.0,0.0,0.0,0.0,0.0,0.0,0.0,0.0,0.0,0.0,0.0,0.0,0.0,0.0,0.0,0.0,0.0,0.0,0.0,-3.9645,-3.9552,0.0,-3.8923,-3.8681,-3.8013,-3.7964,-3.8285,-3.7931,-3.8153,-3.8676,-3.8707,0.0,0.0,0.0,0.0,0.0,0.0,0.0,0.0,-3.9975,-4.0138,-4.0326,-4.0196,-4.008,-3.9962,-3.9851,-3.9804,-3.9758,-3.965,-3.9703,-3.9804,-3.9848,-3.975,-3.962,-3.9626,-3.9754,-3.9823,-3.9626,-3.9754,-3.9823,-3.9626,-3.9602,-3.9703,-3.9892,-4.01,-4.0304,-4.0504,-4.0539,-4.0539,-4.0539,-4.0422,-4.0351,-4.0351,-4.0454,-4.0515,-4.0511,-4.0526,-4.0481,-4.0422,-4.0422,-4.0375,-4.031,-4.031,-4.031,-4.031,-4.031,-4.031,-4.031,-4.031,-4.031,-4.0253,-3.9717,-3.9389,-3.9178,-3.8609,-3.8303,-3.8225,-3.8192,-3.8192,-3.8192,-3.8192,-3.8192,-3.8192,0.0,0.0,0.0,0.0,0.0,0.0,0.0,0.0,0.0,0.0,0.0,0.0,0.0,0.0,0.0,0.0,0.0,0.0,0.0,0.0,0.0,0.0,0.0,0.0,0.0,0.0,0.0,0.0,0.0,0.0,0.0,0.0,0.0,-3.9183,0.0,-3.8387,0.0,-3.7505,-3.7431,-3.7774,-3.7792,-3.8052,-3.8405,-3.8614,-3.8707,0.0,0.0,0.0,0.0,0.0,0.0,0.0,-3.9804,-3.9892,-3.9916,-3.9899,-3.9901,-3.992,-3.9899,-3.9832,-3.9804,-3.9758,-3.9703,-3.965,-3.9656,-3.9626,-3.9631,-3.98,-3.9731,-3.965,-3.9602,-3.9626,-3.965,-3.962,-3.9731,-3.9914,-4.012,-4.0304,-4.0504,-4.072,-4.0733,-4.0733,-4.0733,-4.072,-4.07,-4.0688,-4.072,-4.0707,-4.0654,-4.0662,-4.0596,-4.0481,-4.053,-4.05,-4.0375,-4.0375,-4.0342,-4.031,-4.031,-4.031,-4.031,-4.031,-4.031,-4.0253,-3.9717,-3.9414,-3.9231,-3.864,-3.8336,-3.8274,-3.8225,-3.8192,-3.8192,-3.8192,-3.8192,-3.814,0.0,0.0,0.0,0.0,0.0,0.0,0.0,0.0,0.0,0.0,0.0,0.0,0.0,0.0,0.0,0.0,0.0,0.0,0.0,0.0,0.0,0.0,0.0,0.0,0.0,0.0,0.0,0.0,0.0,0.0,0.0,0.0,0.0,-3.9101,0.0,-3.8342,0.0,-3.745,-3.7485,-3.7984,-3.7862,-3.8086,-3.8501,-3.8645,-3.8707,-3.8707,-3.8707,0.0,0.0,0.0,0.0,0.0,0.0,0.0,-3.9762,-3.9679,-3.9702,-3.9766,-3.9717,-3.9665,-3.9661,-3.9703,-3.9656,-3.9602,-3.9602,-3.9602,-3.9626,-3.9731,-3.9656,-3.9602,-3.9602,-3.9602,-3.9602,-3.9602,-3.9679,-3.9848,-4.0158,-4.0286,-4.0473,-4.0746,-4.079,-4.079,-4.079,-4.079,-4.0803,-4.0796,-4.0796,-4.0784,-4.0752,-4.0738,-4.0706,-4.0596,-4.0662,-4.0635,-4.05,-4.0438,-4.0392,-4.0344,-4.0328,-4.031,-4.031,-4.031,-4.031,-4.0291,-3.987,-3.9537,-3.9257,-3.8789,-3.8478,-3.8307,-3.8225,-3.8192,-3.8192,-3.8192,-3.8054,-3.7845,0.0,0.0,0.0,0.0,0.0,0.0,0.0,0.0,0.0,0.0,0.0,0.0,0.0,0.0,0.0,0.0,0.0,0.0,0.0,0.0,0.0,0.0,0.0,0.0,0.0,0.0,0.0,0.0,0.0,0.0,0.0,0.0,0.0,-3.897,0.0,0.0,0.0,-3.7541,-3.7667,-3.8201,-3.7931,-3.8119,-3.8645,-3.8676,-3.8707,-3.8707,-3.8707,-3.878,-3.8881,-3.891,0.0,0.0,0.0,0.0,-3.9647,-3.9477,-3.9477,-3.9521,-3.9476,-3.9495,-3.952,-3.9596,-3.9602,-3.9602,-3.9602,-3.9602,-3.9602,-3.9602,-3.9602,-3.9602,-3.9602,-3.9602,-3.9602,-3.9602,-3.9626,-3.9777,-4.0158,-4.0233,-4.0389,-4.0765,-4.079,-4.079,-4.079,-4.079,-4.079,-4.079,-4.079,-4.0803,-4.0808,-4.0804,-4.0784,-4.0718,-4.0781,-4.0757,-4.0635,-4.0515,-4.0454,-4.0406,-4.0345,-4.031,-4.031,-4.031,-4.031,-4.0272,-3.9996,-3.9656,-3.9257,-3.8915,-3.8585,-3.8307,-3.8225,-3.8192,-3.8192,-3.8192,-3.7967,-3.7596,0.0,0.0,0.0,0.0,0.0,0.0,0.0,0.0,0.0,0.0,0.0,0.0,0.0,0.0,0.0,0.0,0.0,0.0,-3.9712,0.0,0.0,-3.9712,-3.9703,0.0,0.0,0.0,0.0,0.0,0.0,0.0,0.0,0.0,0.0,-3.848,0.0,0.0,0.0,-3.7413,-3.7504,-3.7559,-3.7721,-3.8018,-3.8372,-3.8596,-3.8707,-3.8707,-3.8707,-3.8707,-3.875,-3.8851,-3.8921,0.0,0.0,0.0,-3.921,-3.9156,-3.921,-3.9283,-3.9373,-3.9495,-3.9596,-3.9596,-3.9602,-3.9602,-3.9602,-3.9602,-3.9602,-3.9602,-3.9602,-3.9602,-3.9602,-3.9602,-3.9602,-3.9602,-3.975,-3.9956,-4.0177,-4.0339,-4.0534,-4.0778,-4.079,-4.079,-4.079,-4.079,-4.079,-4.079,-4.079,-4.0803,-4.0803,-4.0808,-4.0792,-4.0796,-4.0856,-4.0846,-4.0776,-4.0764,-4.0635,-4.0406,-4.0345,-4.031,-4.031,-4.031,-4.031,-4.0291,-3.9892,-3.9561,-3.9257,-3.8818,-3.851,-3.8307,-3.8225,-3.8192,-3.8192,-3.8192,-3.814,-3.7985,0.0,0.0,0.0,0.0,0.0,0.0,0.0,0.0,0.0,0.0,0.0,0.0,0.0,0.0,0.0,-3.9165,-3.9508,-3.9698,-3.9689,-3.9703,-3.9679,-3.9679,-3.965,-3.9645,0.0,0.0,0.0,0.0,0.0,0.0,0.0,-3.8913,-3.8688,0.0,0.0,0.0,0.0,-3.7413,-3.7432,-3.765,-3.7613,-3.7756,-3.8052,-3.8354,-3.8469,-3.8501,-3.8645,-3.875,-3.8822,-3.8881,-3.895,-3.9017,-3.9073,0.0,0.0,0.0,-3.9129,-3.9183,-3.9346,-3.9495,-3.9602,-3.9602,-3.9602,-3.9602,-3.9602,-3.9602,-3.9602,-3.9602,-3.9602,-3.9602,-3.9602,-3.9602,-3.9602,-3.9602,-3.9679,-3.98,-4.0,-4.0214,-4.0408,-4.0598,-4.0733,-4.079,-4.079,-4.079,-4.079,-4.079,-4.079,-4.079,-4.079,-4.0796,-4.08,-4.0804,-4.0826,-4.0856,-4.0865,-4.0781,-4.0615,-4.0406,-4.0358,-4.0345,-4.031,-4.031,-4.031,-4.0291,-3.9854,-3.9566,-3.9275,-3.8828,-3.851,-3.8307,-3.8225,-3.8192,-3.8192,-3.8192,-3.802,-3.7721,0.0,0.0,0.0,0.0,0.0,0.0,0.0,0.0,0.0,0.0,0.0,0.0,0.0,0.0,0.0,0.0,-3.9335,-3.9583,-3.9661,-3.9674,-3.9669,-3.9669,-3.9645,-3.9602,-3.9602,0.0,0.0,0.0,0.0,0.0,-3.9101,-3.8658,-3.8473,0.0,-3.8147,-3.7946,-3.7879,-3.7413,-3.7358,-3.765,-3.7468,-3.7522,-3.7756,-3.8171,-3.8322,-3.8354,-3.8658,-3.881,-3.8892,-3.8939,-3.9007,-3.9073,-3.9101,-3.9101,0.0,0.0,0.0,-3.9202,-3.9346,-3.9495,-3.9577,-3.9527,-3.9552,-3.9577,-3.9451,-3.9527,-3.9577,-3.9508,-3.9552,-3.9602,-3.9602,-3.9602,-3.9602,-3.9602,-3.9602,-3.9656,-3.987,-4.002,-4.0214,-4.0473,-4.0631,-4.0733,-4.079,-4.079,-4.079,-4.079,-4.079,-4.079,-4.079,-4.0796,-4.0808,-4.08,-4.0804,-4.0826,-4.0907,-4.0792,-4.0629,-4.0454,-4.0422,-4.0377,-4.031,-4.031,-4.0291,-4.0234,-3.9832,-3.9476,-3.9117,-3.8789,-3.8491,-3.8274,-3.8225,-3.8192,-3.8192,-3.8192,-3.7967,-3.7596,0.0,0.0,0.0,0.0,0.0,0.0,0.0,0.0,0.0,0.0,0.0,0.0,-3.7703,-3.7966,-3.8281,-3.867,-3.897,-3.9283,-3.9577,-3.962,-3.962,-3.962,-3.9602,0.0,-3.9602,0.0,0.0,0.0,0.0,0.0,-3.9101,-3.8442,-3.8183,-3.831,-3.831,-3.7843,-3.7087,-3.7376,-3.7301,-3.7087,-3.7319,-3.7394,-3.7485,-3.8153,-3.8382,-3.8446,-3.8773,-3.8892,-3.891,-3.8979,-3.8979,-3.9007,-3.9073,-3.9101,-3.9101,0.0,0.0,0.0,-3.9391,-3.9495,-3.9552,-3.9264,-3.9406,-3.9476,-3.9054,-3.9275,-3.9527,-3.9264,-3.9432,-3.9602,-3.9602,-3.9602,-3.9602,-3.9602,-3.9602,-3.9656,-3.987,-3.9914,-4.006,-4.0457,-4.0504,-4.0583,-4.0778,-4.079,-4.079,-4.079,-4.079,-4.079,-4.079,-4.079,-4.0815,-4.08,-4.08,-4.0823,-4.0907,-4.0823,-4.0732,-4.0588,-4.0469,-4.0377,-4.031,-4.031,-4.0234,-4.0077,-3.9758,-3.9261,-3.873,-3.8566,-3.8401,-3.8192,-3.8192,-3.8192,-3.8192,-3.8192,-3.8174,-3.802,0.0,0.0,0.0,0.0,0.0,0.0,0.0,0.0,0.0,0.0,0.0,0.0,0.0,-3.7897,-3.8249,-3.8609,-3.911,-3.9458,-3.9577,-3.9602,-3.9602,-3.9602,-3.9602,-3.9602,-3.9602,-3.9602,0.0,0.0,0.0,-3.9101,-3.9101,-3.8548,-3.818,-3.798,-3.7756,-3.7523,-3.7301,-3.7206,-3.7108,-3.7027,-3.7126,-3.7164,-3.7203,-3.7792,-3.805,-3.8132,-3.8664,-3.891,-3.8968,-3.8979,-3.9036,-3.9073,-3.9101,-3.9101,-3.9101,-3.9101,-3.9183,-3.9301,-3.9391,-3.9469,-3.9502,-3.9458,-3.9406,-3.9309,-3.9129,-3.9229,-3.9309,-3.921,-3.9413,-3.9602,-3.9602,-3.9602,-3.9602,-3.9602,-3.9602,-3.9626,-3.9703,-3.9823,-3.9937,-4.01,-4.0339,-4.0539,-4.0598,-4.072,-4.079,-4.079,-4.079,-4.079,-4.079,-4.079,-4.0803,-4.0815,-4.0796,-4.08,-4.0837,-4.0856,-4.0769,-4.0588,-4.0545,-4.046,-4.031,-4.031,-4.0117,-3.9758,-3.9464,-3.9171,-3.8857,-3.8478,-3.8256,-3.8192,-3.8192,-3.8192,-3.8192,-3.8192,-3.802,-3.7685,0.0,0.0,0.0,0.0,0.0,0.0,0.0,0.0,0.0,0.0,0.0,0.0,0.0,0.0,-3.8068,-3.8392,-3.8923,-3.9309,-3.9432,-3.9432,-3.9483,-3.9596,-3.9602,-3.9602,-3.9602,0.0,0.0,0.0,0.0,0.0,0.0,-3.848,-3.8062,-3.7773,-3.7394,-3.7261,-3.7301,-3.7069,-3.6987,-3.6987,-3.6987,-3.7062,-3.721,-3.7721,-3.7985,-3.8186,-3.8695,-3.895,-3.9036,-3.9036,-3.9045,-3.9101,-3.9101,-3.9101,-3.9101,-3.9101,-3.9156,-3.9229,-3.9373,-3.9444,-3.9495,-3.9458,-3.9309,-3.9129,-3.8998,-3.8998,-3.9055,-3.9073,-3.9283,-3.9389,-3.9201,-3.9145,-3.9258,-3.9564,-3.9602,-3.9602,-3.9602,-3.9727,-3.9826,-3.9892,-4.0196,-4.0441,-4.0489,-4.0673,-4.079,-4.079,-4.079,-4.079,-4.079,-4.079,-4.079,-4.079,-4.0803,-4.0808,-4.0796,-4.0867,-4.0804,-4.0629,-4.0602,-4.0504,-4.0345,-4.031,-4.0077,-3.967,-3.9345,-3.9044,-3.8799,-3.8368,-3.8192,-3.8192,-3.8192,-3.8192,-3.8192,-3.8192,-3.788,-3.7414,0.0,0.0,0.0,0.0,0.0,0.0,0.0,0.0,0.0,-3.6147,0.0,0.0,0.0,0.0,0.0,-3.8068,-3.841,-3.8748,-3.9055,-3.9101,-3.921,-3.9552,-3.9577,-3.9577,-3.9577,0.0,0.0,0.0,0.0,0.0,0.0,0.0,-3.7877,-3.7773,-3.7301,-3.7069,-3.6987,-3.6987,-3.6987,-3.6987,-3.7009,-3.715,-3.7443,-3.7917,-3.8253,-3.8542,-3.8921,-3.9101,-3.9101,-3.9101,-3.9101,-3.9101,-3.9101,-3.9101,-3.9101,-3.9101,-3.9156,-3.9229,0.0,0.0,0.0,-3.9256,-3.9156,-3.8998,-3.8566,-3.856,-3.8711,-3.8826,-3.9008,-3.8965,-3.8402,-3.8281,-3.8544,-3.937,-3.9545,-3.9545,-3.9564,-3.9564,-3.9637,-3.987,-4.006,-4.0269,-4.0457,-4.066,-4.079,-4.079,-4.079,-4.079,-4.079,-4.079,-4.079,-4.079,-4.0796,-4.08,-4.08,-4.0856,-4.0826,-4.0694,-4.0629,-4.053,-4.0406,-4.0327,-4.0157,-3.9867,-3.9402,-3.8924,-3.851,-3.8307,-3.8192,-3.8192,-3.8192,-3.8192,-3.8192,-3.8192,-3.7898,-3.7432,0.0,0.0,0.0,0.0,0.0,0.0,0.0,0.0,-3.5131,0.0,0.0,0.0,-3.7034,-3.7596,-3.8,-3.8101,-3.841,-3.864,-3.8748,-3.8748,-3.8778,-3.8865,-3.8865,-3.8865,-3.8865,0.0,0.0,0.0,0.0,0.0,0.0,0.0,0.0,0.0,-3.7206,-3.7009,-3.6987,-3.6987,-3.6987,-3.7009,-3.7281,-3.7241,-3.7175,-3.7739,-3.807,-3.8238,-3.8572,-3.8855,-3.9073,-3.8807,-3.8913,-3.9101,-3.9101,-3.9101,-3.9101,-3.9101,-3.9156,-3.9229,-3.9373,0.0,0.0,0.0,0.0,0.0,-3.7993,-3.7882,-3.7929,-3.7723,-3.7581,-3.7578,-3.8021,-3.7735,-3.7512,-3.776,-3.7798,-3.7981,-3.8582,-3.8657,-3.8906,-3.9604,-3.9848,-4.0,-4.006,-4.0251,-4.0441,0.0,-4.0583,-4.0646,-4.079,-4.079,-4.079,-4.079,-4.0803,-4.0796,-4.08,-4.0812,-4.0781,-4.0694,-4.0582,-4.0481,-4.0389,-4.0215,-4.0057,-3.9867,-3.932,-3.8961,-3.8773,-3.8354,-3.8192,-3.8192,-3.8192,-3.8192,-3.8192,-3.8192,-3.7739,-3.7055,0.0,0.0,0.0,0.0,0.0,0.0,-3.4497,-3.4594,-3.4913,0.0,0.0,0.0,-3.7111,-3.7613,-3.788,-3.788,-3.805,-3.8249,-3.8378,-3.841,-3.8455,-3.8579,-3.8609,-3.8609,-3.8609,0.0,0.0,0.0,0.0,0.0,0.0,0.0,0.0,0.0,0.0,0.0,-3.6987,-3.6987,-3.6987,-3.7027,-3.7206,-3.7246,-3.721,-3.7576,-3.7864,-3.802,-3.8244,-3.8578,-3.8836,-3.8486,-3.8628,-3.8913,-3.9073,-3.9101,-3.9101,-3.9101,-3.9027,-3.897,-3.9166,-3.9092,-3.9055,-3.9335,0.0,0.0,-3.8217,-3.8037,-3.7826,-3.7345,-3.7124,-3.6988,-3.6864,-3.654,-3.6235,-3.597,-3.5937,-3.6372,-3.7624,-3.7793,-3.7981,-3.8512,-3.872,-3.8871,-3.8871,-3.9052,-3.935,-3.9816,-3.99,-4.0198,-4.0771,-4.079,-4.0815,-4.0834,-4.0808,-4.0808,-4.0837,-4.0812,-4.0788,-4.0738,-4.0568,-4.0466,-4.0389,-4.0196,-4.0015,-3.9781,-3.9242,-3.8961,-3.8862,-3.8387,-3.8192,-3.8192,-3.8192,-3.8192,-3.8192,-3.7967,-3.7487,-3.686,0.0,0.0,0.0,0.0,0.0,0.0,-3.4497,-3.4594,-3.4866,0.0,-3.5907,-3.6522,-3.7411,-3.754,-3.7577,-3.7577,-3.7577,-3.7721,-3.8034,-3.8034,-3.8183,-3.8473,-3.8486,-3.8486,-3.8486,-3.8486,0.0,0.0,0.0,0.0,0.0,0.0,0.0,0.0,0.0,0.0,-3.6987,-3.6987,-3.6987,-3.7009,-3.7048,-3.7193,-3.7417,-3.7474,-3.764,-3.7864,-3.799,-3.8262,-3.8486,-3.8183,-3.8281,-3.8548,-3.8923,-3.8998,-3.8998,-3.9073,-3.8836,-3.8597,-3.8833,-3.8597,-3.8436,-3.8923,-3.8733,0.0,-3.8545,-3.8273,-3.7831,-3.7223,-3.7052,-3.6666,-3.5487,-3.5227,-3.4947,-3.4351,-3.4245,-3.4899,-3.67,-3.6948,-3.6963,-3.708,-3.7244,-3.7351,-3.7351,-3.7528,-3.7943,-3.8687,-3.8933,-3.9518,-4.0597,-4.0655,-4.0734,-4.0888,-4.0823,-4.0831,-4.0907,-4.0826,-4.0788,-4.08,-4.0588,-4.045,-4.0389,-4.0177,-3.9933,-3.9651,-3.9189,-3.8952,-3.8862,-3.8387,-3.8192,-3.8192,-3.8192,-3.8192,-3.814,-3.7667,-3.7246,-3.6821,-3.2949,0.0,0.0,0.0,0.0,0.0,-3.4448,-3.4497,-3.4643,-3.4977,-3.5661,-3.6333,-3.6995,-3.7281,-3.7466,-3.7577,-3.7577,-3.7613,-3.7685,-3.7685,-3.7721,-3.781,-3.781,-3.781,-3.781,-3.781,-3.781,0.0,0.0,0.0,0.0,0.0,0.0,0.0,0.0,0.0,-3.6987,-3.6987,-3.6987,-3.7009,-3.7301,-3.7414,-3.747,-3.7485,-3.754,-3.7577,-3.7595,-3.7862,-3.8201,-3.8135,-3.7948,-3.7843,-3.8486,-3.8504,-3.841,-3.8942,-3.87,-3.836,-3.8803,-3.8658,-3.8418,-3.864,-3.8143,0.0,-3.6523,-3.586,-3.549,-3.5732,-3.5426,-3.523,-3.5617,-3.529,-3.4715,-3.4023,-3.3947,-3.4476,-3.5927,-3.5946,-3.6128,-3.7005,-3.6991,-3.6972,-3.713,-3.7197,-3.7362,-3.7679,-3.7967,-3.8632,-3.9707,-3.9758,-4.0115,-4.0888,-4.0823,-4.0831,-4.0907,-4.0823,-4.0796,-4.0788,-4.0496,-4.0351,-4.0389,-3.996,-3.9739,-3.967,-3.9137,-3.8921,-3.8862,-3.8387,-3.8192,-3.8192,-3.8192,-3.8192,-3.814,-3.7667,-3.7246,-3.6821,-3.268,-3.3266,0.0,0.0,0.0,0.0,0.0,-3.4399,-3.4497,-3.4756,-3.5407,-3.6122,-3.6821,-3.7034,-3.7281,-3.7577,-3.7577,-3.7577,-3.7577,-3.7577,-3.7577,-3.7577,-3.7577,-3.7577,-3.7577,-3.7577,-3.7594,0.0,0.0,0.0,0.0,0.0,0.0,0.0,0.0,0.0,-3.6987,-3.6987,-3.7087,-3.7243,-3.7243,-3.7243,-3.7243,-3.7243,-3.7243,-3.7243,-3.7243,-3.7394,-3.7613,-3.7966,-3.7966,-3.7861,-3.8346,-3.8491,-3.8554,-3.896,-3.8597,-3.8183,-3.8603,-3.8314,-3.798,-3.8281,-3.8036,0.0,0.0,-3.6417,-3.6263,-3.5598,-3.5249,-3.5038,-3.5038,-3.4492,-3.3938,-3.3688,-3.3698,-3.4007,-3.4767,-3.4785,-3.4959,-3.5485,-3.5565,-3.5589,-3.5684,-3.5796,-3.612,-3.6766,-3.7387,-3.802,-3.8659,-3.8813,-3.9295,-4.0276,-4.0197,-4.0419,-4.0937,-4.0846,-4.0803,-4.0796,-4.0466,-4.03,-4.0304,-3.9876,-3.9689,-3.9613,-3.912,-3.891,-3.8862,-3.8387,-3.8192,-3.8192,-3.8192,-3.8192,-3.8106,-3.745,-3.7076,-3.6821,-3.2367,-3.2895,-3.3407,0.0,0.0,0.0,0.0,0.0,-3.4399,-3.4643,-3.5178,-3.582,-3.6522,-3.6701,-3.69,-3.7299,-3.7411,-3.7466,-3.7466,-3.7503,-3.754,-3.754,-3.754,-3.754,-3.754,-3.754,-3.7466,-3.7392,0.0,0.0,0.0,0.0,0.0,0.0,0.0,0.0,-3.6987,-3.6987,-3.7147,-3.7376,-3.7126,-3.7087,-3.7185,-3.7126,-3.7087,-3.7087,-3.7009,-3.6987,-3.7087,-3.7739,-3.7982,-3.8034,-3.8285,-3.846,-3.8646,-3.8796,-3.8346,-3.7915,-3.8267,-3.7897,-3.7485,-3.7897,-3.7765,-3.7455,0.0,0.0,0.0,-3.5723,-3.5442,-3.519,-3.4401,-3.3737,-3.3314,-3.3364,-3.3433,-3.3502,-3.3625,-3.3762,-3.3868,-3.3947,-3.4099,-3.4221,-3.4269,-3.4473,-3.4971,-3.5874,-3.6652,-3.7247,-3.7642,-3.7823,-3.8373,-3.9396,-3.9481,-3.9897,-4.0721,-4.0789,-4.079,-4.079,-4.0454,-4.0248,-4.0196,-3.9851,-3.9661,-3.9577,-3.9092,-3.891,-3.8862,-3.8387,-3.8192,-3.8192,-3.8192,-3.8192,-3.8106,-3.7226,-3.69,-3.6781,-3.281,-3.3145,-3.3407,0.0,0.0,0.0,0.0,0.0,-3.4349,-3.4497,-3.4944,-3.5345,-3.5554,-3.595,-3.6249,-3.6357,-3.6678,-3.6895,-3.6895,-3.7164,-3.7334,-3.7334,-3.7334,-3.7334,-3.7334,-3.7334,-3.7334,-3.7297,0.0,0.0,0.0,0.0,0.0,0.0,-3.6987,-3.6987,-3.6987,-3.6987,-3.7009,-3.7048,-3.7027,-3.7394,-3.7931,-3.7578,-3.7432,-3.7395,-3.7126,-3.6987,-3.7048,-3.745,-3.7578,-3.765,-3.8016,-3.7913,-3.7721,-3.8083,-3.7739,-3.7319,-3.7756,-3.765,-3.7449,-3.7613,-3.6577,-3.5701,-3.6308,0.0,-3.47,-3.5148,0.0,-3.5023,-3.4273,0.0,0.0,-3.3086,-3.3011,-3.3073,-3.3104,-3.3147,-3.3368,-3.3762,-3.3807,-3.3868,-3.4173,-3.445,-3.4727,-3.5021,-3.5135,-3.5678,-3.6776,-3.6862,-3.7371,-3.8427,-3.9148,-3.9583,-3.976,-4.0455,-4.079,-4.079,-4.0389,-4.0214,-4.0196,-3.98,-3.9602,-3.9577,-3.9092,-3.891,-3.8862,-3.8387,-3.8192,-3.8192,-3.8192,-3.8192,-3.8106,-3.7226,-3.69,-3.6781,-3.2516,-3.2749,-3.3018,-3.3933,0.0,0.0,0.0,0.0,-3.43,-3.4399,-3.4626,-3.4944,-3.5237,-3.5448,-3.5715,-3.6122,-3.6308,-3.6533,-3.6776,-3.6952,-3.7087,-3.7297,-3.7297,-3.7297,-3.7297,-3.7297,-3.7259,-3.7185,-3.7147,0.0,0.0,0.0,0.0,0.0,-3.6987,-3.6987,-3.6987,-3.6987,-3.6987,-3.7027,-3.7206,-3.7487,-3.7721,-3.7356,-3.7206,-3.7167,-3.7048,-3.6987,-3.7009,-3.7147,-3.7394,-3.7613,-3.7631,-3.7721,-3.7879,-3.8068,-3.7792,-3.7504,-3.7897,-3.7685,-3.7429,-3.7594,-3.7041,-3.647,-3.6417,-3.5899,-3.54,-3.5239,0.0,0.0,0.0,0.0,0.0,0.0,-3.2948,-3.2997,-3.2948,-3.3024,-3.3178,-3.3368,-3.3502,-3.3698,-3.3998,-3.4269,-3.4409,-3.439,-3.4693,-3.5059,-3.5455,-3.578,-3.6402,-3.7395,-3.7788,-3.8518,-3.9596,-3.9893,-4.023,-4.0612,-4.0339,-4.0139,-4.002,-3.975,-3.9602,-3.9577,-3.9092,-3.891,-3.8862,-3.8387,-3.8192,-3.8192,-3.8192,-3.8192,-3.8106,-3.7226,-3.69,-3.6781,-3.2048,-3.2367,-3.2911,-3.3933,-3.4101,0.0,0.0,-3.4201,-3.425,-3.425,-3.4349,-3.4578,-3.4927,-3.5005,-3.5237,-3.5661,-3.5837,-3.6054,-3.6392,-3.6632,-3.6794,-3.6913,-3.7126,-3.7182,-3.7105,-3.7182,-3.7182,-3.7069,-3.7069,0.0,0.0,0.0,0.0,0.0,-3.6987,-3.6987,-3.6987,-3.6987,-3.6987,-3.7009,-3.7281,-3.7376,-3.7339,-3.7206,-3.7087,-3.6987,-3.6987,-3.6987,-3.7009,-3.7126,-3.7356,0.0,-3.7411,-3.7613,-3.7913,-3.7827,-3.7685,-3.7595,-3.7845,-3.7667,-3.7429,-3.7594,-3.7183,-3.6719,-3.647,-3.6078,-3.5596,-3.5025,-3.4472,0.0,0.0,0.0,-3.2916,-3.2916,0.0,-3.2916,-3.282,-3.2866,-3.293,-3.293,-3.316,-3.3455,0.0,-3.4023,-3.4124,-3.3972,-3.4458,-3.4693,-3.4593,-3.503,-3.558,-3.6305,-3.667,-3.7452,-3.8709,-3.9192,-3.9615,-4.006,-4.01,-4.004,-3.9892,-3.9679,-3.9552,-3.9458,-3.9064,-3.8862,-3.8773,-3.8354,-3.8192,-3.8192,-3.8192,-3.8192,-3.8106,-3.7226,-3.69,-3.6781,-3.1422,-3.2391,-3.3371,-3.3984,-3.4101,-3.4101,-3.4101,-3.4101,-3.4101,-3.4101,-3.4201,-3.43,-3.4349,-3.4546,-3.4739,-3.4739,-3.5148,-3.5424,-3.5453,-3.6088,-3.6343,-3.595,-3.6615,-3.6869,-3.6544,-3.6851,-3.7027,-3.7009,-3.7009,-3.7009,0.0,0.0,0.0,0.0,-3.6987,-3.6987,-3.6987,-3.6987,-3.6987,-3.6987,-3.7009,-3.7027,-3.7048,-3.7376,-3.7281,-3.6987,-3.6987,-3.6987,0.0,-3.7376,-3.7505,0.0,0.0,0.0,-3.7469,-3.7108,-3.7087,-3.7147,-3.7297,-3.7354,-3.7429,-3.7594,-3.6435,-3.5489,-3.6238,-3.5257,-3.4169,-3.4151,-3.4133,-3.3865,-3.3062,-3.2934,-3.2916,-3.2916,-3.2916,0.0,0.0,-3.2541,-3.2541,-3.2541,-3.2749,-3.3093,-3.3462,-3.3753,-3.3895,-3.3895,-3.4173,-3.439,-3.4591,-3.4793,-3.5,-3.5152,-3.6161,-3.6637,-3.6501,-3.8312,-3.9122,-3.8953,-3.96,-3.9914,-3.9892,-3.9679,-3.9458,-3.921,-3.8979,-3.8743,-3.851,-3.8307,-3.8192,-3.8192,-3.8192,-3.8192,-3.8106,-3.7226,-3.69,-3.6781,-3.148,-3.2391,-3.3251,-3.3475,-3.3815,-3.4101,-3.4101,-3.4101,-3.4151,-3.4201,-3.425,-3.4349,-3.4399,-3.4497,-3.4594,-3.4691,-3.4835,-3.5055,-3.5379,-3.5543,-3.5705,-3.5907,-3.6326,-3.6527,-3.6502,-3.6829,-3.6987,-3.6987,-3.6987,-3.6987,0.0,0.0,0.0,0.0,0.0,-3.6987,-3.6987,-3.6987,-3.6987,-3.6987,-3.6987,-3.6987,-3.7009,-3.7108,-3.7126,-3.6987,-3.6987,-3.6987,0.0,-3.7147,-3.7206,-3.7243,-3.7337,-3.7374,-3.7337,-3.7279,-3.7241,-3.7259,0.0,0.0,-3.7429,-3.7466,0.0,-3.6078,-3.6328,-3.5204,-3.4115,-3.4115,-3.3669,-3.3205,-3.2938,-3.2916,-3.2852,-3.2657,-3.2623,-3.2523,0.0,-3.2002,-3.1948,-3.2091,-3.2621,-3.2912,-3.2781,-3.3321,-3.3661,-3.3491,-3.3868,-3.4055,-3.4012,-3.4461,-3.4734,-3.4774,-3.5331,-3.5886,-3.6408,-3.7031,-3.7806,-3.8707,-3.8929,-3.9277,-3.9703,-3.9626,-3.9458,-3.9183,-3.8979,-3.8743,-3.8478,-3.8289,-3.8192,-3.8192,-3.8192,-3.802,-3.7685,-3.7094,-3.69,-3.6781,-3.1204,-3.1962,-3.2703,-3.3145,-3.3697,-3.4101,-3.4101,-3.4101,-3.4151,-3.43,-3.43,-3.4349,-3.4497,-3.4546,-3.4594,-3.4691,-3.4739,-3.4883,-3.5148,-3.5241,-3.5316,-3.5464,-3.5924,-3.6156,-3.6088,-3.6568,-3.6829,-3.6829,-3.6948,-3.6987,0.0,0.0,0.0,0.0,0.0,-3.6987,-3.6987,-3.6987,-3.6987,-3.6987,-3.6987,-3.6987,-3.6987,-3.6987,-3.6987,-3.6987,0.0,-3.6987,-3.6987,-3.6987,-3.7048,-3.7069,-3.7259,-3.7259,-3.722,-3.7317,-3.7279,-3.722,-3.7297,-3.7354,0.0,-3.7019,-3.6362,0.0,-3.5474,-3.4391,-3.3452,-3.3537,-3.3077,-3.2654,-3.2588,-3.2521,-3.2454,-3.2335,-3.2301,-3.2197,0.0,-3.1674,-3.1542,-3.1542,-3.2109,-3.242,-3.2231,-3.2699,-3.2988,-3.2916,-3.339,-3.3625,-3.3504,-3.4068,-3.4394,-3.4394,-3.4736,-3.5153,-3.5647,-3.6082,-3.6749,-3.7664,-3.821,-3.8727,-3.9126,-3.9352,-3.9309,-3.9073,-3.8862,-3.8621,-3.8368,-3.8241,-3.8192,-3.8192,-3.8192,-3.7915,-3.7469,-3.7055,-3.6701,-3.635,-3.0568,-3.1087,-3.1864,-3.2971,-3.3697,-3.4101,-3.4101,-3.4101,-3.4151,-3.43,-3.43,-3.4349,-3.4497,-3.4643,-3.4707,-3.4707,-3.4851,-3.4851,-3.4691,-3.5102,-3.5148,-3.4739,-3.5464,-3.5749,-3.5424,-3.6131,-3.6502,-3.6502,-3.6829,-3.6987,-3.6987,0.0,0.0,0.0,-3.6987,-3.6987,-3.6987,-3.6987,-3.6987,-3.6987,-3.6987,-3.6987,-3.6987,-3.6987,-3.6987,-3.6987,-3.6987,-3.6987,-3.6987,-3.6987,-3.6987,-3.7027,-3.722,-3.7143,-3.7027,-3.722,-3.7143,-3.7066,-3.7317,-3.7392,-3.7197,-3.6326,-3.5437,0.0,0.0,0.0,-3.2318,-3.2456,-3.237,-3.2249,-3.2039,-3.186,-3.1787,-3.1967,-3.1913,-3.1785,-3.1617,-3.1504,-3.1329,-3.0952,-3.1252,-3.1579,-3.1821,-3.1932,-3.2039,-3.2179,-3.2727,-3.3064,-3.3064,-3.3652,-3.3972,-3.3972,-3.4371,-3.4483,-3.4293,-3.5423,-3.5958,-3.5893,-3.7432,-3.8201,-3.8338,-3.888,-3.9036,-3.8881,-3.8603,-3.8401,-3.8192,-3.8192,-3.8192,-3.8192,-3.8174,-3.788,-3.7377,-3.7017,-3.6333,-3.5622,-3.0568,-3.1087,-3.1864,-3.2971,-3.3697,-3.4101,-3.4101,-3.4201,-3.43,-3.4448,-3.4546,-3.4643,-3.4804,-3.4851,-3.4851,-3.4851,-3.4899,-3.4899,-3.4851,-3.4883,-3.4883,-3.4851,-3.5178,-3.5407,-3.5424,-3.6131,-3.6502,-3.6502,-3.6829,-3.6987,-3.6987,0.0,0.0,0.0,0.0,-3.6987,-3.6987,-3.6987,-3.6987,-3.6987,-3.6987,-3.6987,-3.6987,0.0,-3.6987,-3.6987,-3.6987,-3.6987,-3.6987,-3.6987,-3.6987,-3.7027,-3.722,-3.7143,-3.7027,-3.722,-3.7143,-3.7066,-3.7259,-3.7429,-3.7307,-3.6288,-3.5509,-3.4712,0.0,0.0,0.0,0.0,0.0,0.0,0.0,-3.1967,-3.186,-3.1748,-3.1504,-3.1368,-3.1308,-3.1213,-3.1055,-3.0912,-3.0975,-3.1173,-3.1411,-3.1877,-3.2162,-3.2214,-3.2282,-3.2533,-3.2872,0.0,-3.3429,-3.378,-3.403,-3.413,-3.4074,-3.4383,-3.4907,-3.5613,-3.6024,-3.6937,-3.8295,-3.8301,-3.8516,-3.8881,-3.8603,-3.8401,-3.8192,-3.8192,-3.8192,-3.8192,-3.781,-3.7246,-3.6597,-3.6492,-3.6071,-3.5622,-3.0568,-3.1087,-3.1807,-3.268,-3.3177,-3.3507,-3.3797,-3.405,-3.4201,-3.4151,-3.4399,-3.4643,-3.4804,-3.4835,-3.4899,-3.4899,-3.4899,-3.4899,-3.4804,-3.4804,-3.4787,-3.4787,-3.4977,-3.5102,-3.5165,-3.5739,-3.6088,-3.6241,-3.6609,0.0,-3.6987,0.0,0.0,0.0,0.0,-3.6987,-3.6987,-3.6987,-3.6987,-3.6987,-3.6987,-3.6987,0.0,-3.6987,-3.6987,-3.6987,-3.6987,-3.6987,-3.6987,-3.6987,-3.6987,-3.7027,-3.722,-3.722,-3.7182,-3.7372,-3.7354,-3.7241,-3.7279,-3.7337,-3.7053,-3.551,-3.4859,-3.4209,-3.2815,-3.2115,-3.1804,0.0,-3.1804,-3.1768,0.0,0.0,-3.147,-3.1351,-3.1213,-3.1112,-3.1112,-3.0975,-3.0855,-3.0831,-3.0814,-3.0855,-3.1038,-3.1411,-3.1674,-3.1637,-3.1787,-3.1968,0.0,0.0,-3.2983,-3.3262,-3.368,-3.3868,-3.3868,-3.3947,-3.4271,-3.486,-3.5287,-3.6012,-3.6951,-3.7195,-3.7618,-3.821,-3.7966,-3.7962,-3.8192,-3.8192,-3.8088,-3.7845,-3.7226,-3.6719,-3.6259,-3.6088,-3.5827,-3.5622,-3.0568,-3.1029,-3.1595,-3.216,-3.2382,-3.2641,-3.3224,-3.3678,-3.3882,-3.3761,-3.4084,-3.4431,-3.4691,-3.4756,-3.4835,-3.4899,-3.4899,-3.4851,-3.4739,-3.4851,-3.4851,-3.4739,-3.4851,-3.4899,-3.4899,-3.5241,-3.5543,-3.582,-3.6216,-3.6568,0.0,0.0,0.0,0.0,0.0,0.0,0.0,-3.6987,-3.6987,-3.6987,-3.6987,-3.6987,-3.6987,-3.6987,-3.6987,-3.7009,-3.7027,-3.7027,-3.6987,-3.6987,-3.6987,-3.7027,-3.722,-3.7259,-3.7297,-3.7521,-3.7503,-3.7429,-3.7264,-3.7099,-3.6485,-3.4515,-3.3864,-3.3373,-3.1905,-3.1504,-3.1483,-3.1559,-3.1504,-3.1406,-3.123,0.0,-3.0986,-3.111,-3.1083,-3.1015,-3.1015,-3.0855,-3.0733,-3.0733,-3.0733,0.0,-3.0692,-3.0855,-3.0975,-3.0912,-3.1257,-3.1452,0.0,0.0,-3.2619,-3.2702,-3.3339,-3.3643,-3.3643,-3.3815,-3.3921,-3.3972,-3.4853,-3.5243,-3.5217,-3.5891,-3.6554,-3.7138,-3.7035,-3.7377,-3.8047,-3.8104,-3.781,-3.7266,-3.6557,-3.6259,-3.6131,-3.5756,-3.5594,-3.5577,-3.0568,-3.0687,-3.097,-3.1537,-3.1751,-3.1921,-3.216,-3.2734,-3.3335,-3.3797,-3.3594,-3.3767,-3.4739,-3.4497,-3.4399,-3.4851,-3.4899,-3.4899,-3.4851,-3.4899,-3.4899,-3.4851,-3.4899,-3.4899,-3.4899,-3.5241,-3.5362,-3.5299,-3.5722,-3.6088,0.0,0.0,0.0,0.0,0.0,0.0,-3.6987,-3.6987,0.0,-3.6987,-3.6987,-3.6987,-3.6987,-3.6987,-3.6987,-3.7027,-3.7182,-3.7143,-3.6987,-3.6987,-3.6987,-3.7027,-3.7027,-3.7066,-3.7105,-3.7297,-3.7122,-3.6908,-3.7129,-3.652,-3.551,-3.4315,-3.3546,-3.2758,-3.1533,-3.1269,-3.1269,-3.1269,-3.1269,-3.123,-3.119,0.0,0.0,-3.1799,-3.1379,-3.1015,-3.1151,-3.1032,-3.0935,-3.0871,-3.0871,-3.0773,-3.0568,-3.0773,-3.0912,-3.0912,-3.0895,-3.1061,0.0,0.0,-3.2334,0.0,-3.3238,0.0,0.0,0.0,-3.3605,-3.3753,-3.3935,-3.442,-3.5198,-3.5174,-3.5575,-3.6362,-3.6799,-3.7102,-3.7232,-3.7522,-3.717,-3.6492,-3.6385,-3.6019,-3.5611,-3.5537,-3.5429,-3.5383,-3.0568,-3.0568,-3.0792,-3.148,-3.148,-3.1552,-3.2007,-3.216,-3.2437,-3.2942,-3.3055,-3.3303,-3.3834,-3.3748,-3.385,-3.4448,-3.4218,-3.4251,-3.4835,-3.4643,-3.4594,-3.4899,-3.4899,-3.4899,-3.4899,-3.5071,-3.5148,-3.5224,-3.5407,-3.5766,-3.6301,0.0,0.0,-3.6987,0.0,-3.6829,0.0,0.0,0.0,-3.6987,-3.6987,-3.6987,-3.6987,-3.6987,-3.6987,-3.7009,-3.7105,-3.7066,-3.7009,-3.7241,-3.7317,-3.7317,-3.7317,-3.7241,-3.7129,-3.7223,-3.7031,-3.6794,-3.6736,-3.604,-3.5077,-3.3956,-3.3123,-3.2349,-3.1399,-3.119,-3.119,-3.119,-3.119,-3.119,-3.119,-3.1095,0.0,0.0,-3.1268,-3.0992,-3.1072,-3.1032,-3.0952,-3.0912,-3.0831,-3.0733,-3.0609,-3.0651,-3.0733,-3.0773,-3.0749,-3.0855,0.0,0.0,-3.1842,0.0,0.0,0.0,-3.3099,0.0,-3.3452,-3.3549,-3.3643,-3.3899,-3.4284,-3.4284,-3.4666,-3.5332,-3.5628,-3.6218,-3.7,-3.7057,-3.6724,-3.6156,-3.5871,-3.5684,-3.5492,-3.5446,-3.5354,-3.5291,-3.0642,-3.0642,-3.0866,-3.148,-3.1336,-3.1366,-3.191,-3.1697,-3.1697,-3.2191,-3.2477,-3.2788,-3.3039,-3.3039,-3.3266,-3.3866,-3.3475,-3.363,-3.4643,-3.4349,-3.4349,-3.4899,-3.4899,-3.4899,-3.4899,-3.4899,-3.4977,-3.5085,-3.5085,-3.5391,0.0,-3.6114,0.0,0.0,0.0,0.0,0.0,0.0,-3.669,-3.6987,-3.6987,-3.6987,-3.6987,-3.6987,-3.6987,-3.7027,-3.7066,-3.7066,-3.7105,-3.7392,-3.7429,-3.7354,-3.7354,-3.7167,-3.6921,-3.6978,-3.6821,-3.6545,-3.6136,-3.5408,-3.4528,-3.338,-3.2594,-3.1901,-3.1286,-3.119,-3.119,-3.119,-3.119,-3.1241,-3.1371,-3.1173,0.0,0.0,0.0,-3.0952,-3.1015,-3.0992,-3.0952,-3.0912,-3.0831,-3.0773,-3.0733,-3.0609,-3.0609,-3.0733,-3.0692,-3.0773,-3.0912,0.0,0.0,0.0,0.0,-3.2666,-3.2666,0.0,-3.3286,-3.3286,-3.3502,-3.3549,-3.3411,-3.3549,-3.3894,-3.4353,-3.4534,-3.5399,-3.6712,-3.6468,-3.6219,-3.5941,-3.5532,-3.5383,-3.5446,-3.5337,-3.5245,-3.5198,-3.0762,-3.0762,-3.0881,-3.1132,-3.1234,-3.1278,-3.1394,-3.1467,-3.1697,-3.2287,-3.1966,-3.2048,-3.3093,-3.2734,-3.2695,-3.3251,-3.3251,-3.3475,-3.4134,-3.4151,-3.4349,-3.4899,-3.4899,-3.4899,-3.4899,-3.4899,-3.4851,-3.4739,-3.4643,-3.4818,0.0,-3.5526,0.0,0.0,0.0,0.0,0.0,-3.6502,-3.669,-3.6987,-3.6987,-3.6987,-3.6987,-3.6987,-3.6987,-3.7009,-3.722,-3.7259,-3.7259,-3.7185,-3.6913,-3.6609,-3.6609,-3.6326,-3.6062,-3.6232,-3.6037,-3.563,-3.5248,-3.4261,-3.322,-3.2437,-3.1753,-3.1235,-3.1072,-3.1112,-3.119,-3.119,-3.119,-3.1371,-3.1907,-3.147,-3.1234,0.0,0.0,-3.1032,-3.1151,-3.119,-3.1112,-3.1032,-3.0975,-3.0935,-3.0871,-3.0773,-3.0733,-3.0871,-3.079,-3.0773,0.0,0.0,0.0,-3.162,-3.1968,-3.2179,-3.2179,-3.2616,-3.2876,-3.2876,-3.3238,-3.3422,-3.3393,-3.3422,-3.3477,-3.3556,-3.428,-3.5052,-3.5779,-3.5342,-3.5352,-3.5667,-3.5577,-3.5458,-3.5291,-3.5291,-3.5152,-3.4947,-3.0955,-3.0955,-3.1014,0.0,0.0,0.0,0.0,-3.1467,-3.1582,-3.1853,-3.164,-3.1682,-3.216,-3.2007,-3.2064,-3.2695,-3.2367,-3.2586,-3.3475,-3.323,-3.3507,-3.4399,-3.4399,-3.4546,-3.4899,-3.4899,-3.4851,-3.4691,-3.4546,-3.4723,0.0,0.0,0.0,0.0,0.0,-3.5941,-3.6156,-3.6156,-3.6385,-3.6708,-3.6908,-3.6987,-3.6987,-3.6987,-3.6987,-3.7027,-3.7105,-3.7027,-3.6926,-3.6869,-3.6851,-3.6834,-3.658,-3.6232,-3.5933,-3.6079,-3.5871,-3.5442,-3.4822,-3.4033,-3.3136,-3.2418,-3.1692,-3.119,-3.1151,-3.1151,-3.119,-3.119,-3.119,-3.1275,-3.15,-3.1257,-3.1116,-3.1516,0.0,0.0,-3.119,-3.119,-3.119,-3.1112,-3.1072,-3.0975,-3.0975,-3.0814,-3.0733,-3.079,-3.0651,-3.0692,0.0,0.0,0.0,-3.1196,0.0,-3.1806,-3.1806,-3.2265,-3.2502,-3.2502,-3.2862,-3.3019,-3.3068,-3.3286,-3.3256,-3.3073,-3.3669,-3.4217,-3.4705,-3.4915,-3.5189,-3.552,-3.5458,-3.5429,-3.54,-3.5354,-3.5291,-3.5245,-3.0836,0.0,-3.094,0.0,-3.1351,-3.1409,-3.1482,-3.1482,-3.1482,-3.1482,-3.1482,-3.1482,-3.1482,-3.1482,-3.1697,-3.212,-3.1754,-3.1894,-3.2879,-3.2586,-3.2819,-3.3815,-3.4,-3.43,-3.4659,-3.4804,-3.4851,-3.4739,-3.4643,-3.4675,0.0,0.0,0.0,0.0,-3.5498,-3.5543,-3.5732,-3.5732,-3.5968,-3.6343,-3.6591,-3.6673,-3.6673,-3.6673,-3.6713,-3.6713,-3.6713,-3.665,-3.6561,-3.6478,-3.6568,-3.6655,-3.6399,-3.602,-3.5749,-3.5854,-3.5514,-3.4959,-3.43,-3.3601,-3.2857,-3.2097,-3.1579,-3.119,-3.1151,-3.119,-3.119,-3.119,-3.119,-3.119,-3.119,-3.1112,-3.1112,-3.119,0.0,0.0,0.0,-3.119,-3.119,-3.1151,-3.1055,-3.0975,-3.0975,-3.0814,-3.0692,-3.0692,-3.0568,0.0,0.0,0.0,0.0,0.0,0.0,0.0,-3.1432,-3.1896,-3.2127,-3.2144,-3.2468,-3.2666,-3.2666,-3.2943,-3.2925,-3.2669,-3.2862,-3.3236,-3.3727,-3.4257,-3.4771,-3.5217,-3.5328,-3.5429,-3.5492,-3.54,-3.54,-3.5446,-3.0129,-3.0312,-3.0568,-3.1351,-3.1482,-3.1482,-3.1482,-3.1482,-3.1482,-3.1482,-3.1482,-3.1482,-3.1482,-3.1482,-3.1482,-3.1539,-3.1524,-3.1739,-3.2398,-3.2382,-3.2641,0.0,-3.3764,-3.4101,-3.4101,-3.4643,-3.4899,-3.4899,-3.4739,0.0,-3.4899,0.0,-3.5424,-3.5424,-3.5424,-3.5424,-3.5424,-3.5424,-3.5616,-3.5907,-3.5907,-3.5907,-3.5907,-3.5907,-3.5994,-3.6097,-3.6097,-3.6199,-3.6259,-3.5932,-3.5817,-3.5817,-3.5817,-3.5566,-3.5291,-3.5291,-3.4789,-3.4069,-3.3412,-3.2656,-3.1933,-3.1217,-3.1112,-3.1151,-3.1015,-3.1095,-3.119,-3.119,-3.119,-3.119,-3.119,-3.119,-3.119,-3.119,0.0,0.0,0.0,-3.119,-3.1151,-3.1015,-3.1015,-3.0975,-3.0912,-3.0773,-3.0692,-3.0692,0.0,0.0,0.0,0.0,0.0,-3.0975,-3.1015,0.0,-3.1015,-3.147,-3.1714,-3.1714,-3.2092,-3.2317,-3.2317,-3.2317,-3.2317,-3.2283,-3.1823,-3.2104,-3.2934,-3.3219,-3.3794,-3.4573,-3.5334,-3.5549,-3.5492,-3.5492,-3.54,-3.5291,-2.9704,-2.978,-2.9842,-3.0072,-3.0524,-3.0837,-3.0837,-3.1219,-3.1482,-3.1482,-3.1482,-3.1482,-3.1482,-3.1482,-3.1482,0.0,-3.1482,-3.1582,0.0,-3.1811,-3.2064,-3.2641,-3.2873,-3.3298,-3.4101,-3.425,-3.4546,-3.4899,0.0,0.0,0.0,-3.4883,-3.4977,-3.5071,-3.5071,-3.5071,-3.5071,-3.5287,-3.5453,-3.5588,-3.5924,-3.6054,-3.6054,-3.6156,-3.6199,-3.6259,-3.6259,-3.6174,-3.6105,-3.5975,-3.58,-3.5667,-3.5667,-3.5503,-3.5191,-3.4745,-3.4471,-3.4017,-3.2883,-3.2418,-3.2063,-3.1337,-3.1151,-3.119,-3.1151,-3.1151,-3.119,-3.119,-3.119,-3.119,-3.119,-3.119,-3.119,-3.119,-3.119,0.0,-3.119,0.0,-3.1151,-3.1015,-3.1015,-3.0975,-3.0912,-3.0773,-3.0651,0.0,0.0,0.0,0.0,0.0,0.0,0.0,-3.0855,0.0,-3.1015,-3.1252,-3.1351,-3.1351,-3.1731,-3.2021,-3.2283,-3.2039,-3.1896,-3.186,-3.1487,-3.1793,-3.2542,-3.3102,-3.3803,-3.4573,-3.5318,-3.5577,-3.5549,-3.5549,-3.552,-3.5446,-2.9079,-2.9142,-2.9205,-2.9442,-2.9827,-3.0133,-3.0133,-3.0703,-3.1087,-3.1087,-3.1351,-3.1482,-3.1482,-3.1482,0.0,-3.1482,-3.1482,-3.1482,-3.1482,-3.1482,-3.1697,-3.2079,-3.2287,-3.2711,-3.3455,-3.3662,0.0,-3.4251,-3.4382,-3.4594,-3.4804,-3.4804,-3.4804,-3.4899,-3.4899,-3.4899,-3.4899,-3.5118,-3.5195,-3.5241,-3.5543,-3.5633,-3.5677,-3.5722,-3.5827,-3.5871,-3.5932,-3.5888,-3.5817,-3.5817,-3.5525,-3.5199,-3.5155,-3.488,-3.4555,-3.4425,-3.3997,-3.3372,-3.2527,-3.2087,-3.1765,-3.1309,-3.119,-3.119,-3.119,-3.119,-3.119,-3.119,-3.119,-3.119,-3.119,-3.119,-3.119,-3.119,-3.1055,-3.1015,-3.119,-3.1055,-3.0935,-3.0935,-3.0975,-3.0935,0.0,-3.0733,-3.0651,0.0,0.0,0.0,0.0,0.0,0.0,-3.079,-3.0871,-3.0952,-3.1015,-3.1072,-3.1151,-3.119,-3.1428,-3.162,-3.1877,-3.162,-3.1524,-3.1487,-3.1291,-3.1444,-3.1952,-3.2983,-3.3677,-3.4184,-3.5216,-3.5622,-3.5577,-3.5594,-3.552,-3.5492,-2.8287,-2.8417,-2.8661,0.0,-2.938,-2.9442,-2.9442,-3.0011,-3.045,-3.045,-3.097,-3.1351,-3.1351,-3.1409,-3.1409,-3.1409,0.0,0.0,-3.1482,-3.1482,-3.1482,-3.1482,-3.2023,-3.2342,-3.2398,-3.2895,-3.3198,-3.3251,-3.3866,-3.4399,-3.4899,-3.4899,-3.4899,-3.4899,-3.4899,-3.4899,-3.4899,-3.4899,-3.4899,-3.4899,-3.4899,-3.4899,-3.4947,-3.4947,-3.5041,-3.5135,-3.5291,-3.5367,-3.5407,-3.5407,-3.4975,-3.4404,-3.4273,-3.3828,-3.3457,-3.415,-3.3372,-3.2313,-3.2222,-3.1715,-3.119,-3.119,-3.119,-3.119,-3.119,-3.119,-3.119,-3.119,-3.119,-3.119,-3.119,-3.119,-3.119,-3.119,-3.0821,-3.0699,-3.1095,-3.0797,-3.0576,-3.0773,0.0,0.0,-3.0526,-3.0609,-3.0651,0.0,0.0,0.0,0.0,0.0,-3.0609,-3.0871,-3.0871,-3.0912,-3.0975,-3.0975,-3.1072,-3.119,-3.119,-3.119,-3.119,-3.119,-3.119,-3.119,-3.119,-3.119,-3.1309,-3.2797,-3.3406,-3.3558,-3.503,-3.5622,-3.5577,-3.552,-3.5492,-3.5446,0.0,0.0,-2.7776,-2.796,-2.8403,-2.8725,-2.8725,-2.9331,-2.9766,-2.9766,-2.9889,-2.995,-2.995,-3.045,-3.0718,-3.0718,-3.1219,-3.1482,-3.1482,-3.1482,-3.1482,-3.1482,-3.164,-3.191,-3.2398,-3.2547,-3.3018,-3.3882,-3.4431,-3.4804,-3.4899,-3.4899,-3.4899,-3.4899,-3.4899,-3.4899,-3.4899,-3.4899,-3.4899,-3.4899,-3.4994,-3.5088,-3.5198,-3.5291,-3.5429,-3.5487,-3.5532,-3.5178,-3.4732,-3.4732,-3.4242,-3.366,-3.3617,-3.3152,-3.2577,-3.2747,-3.2544,-3.2195,-3.1596,-3.1326,-3.119,-3.119,-3.119,-3.119,-3.119,-3.119,-3.119,-3.119,-3.119,-3.119,-3.119,-3.119,-3.119,-3.119,-3.1112,-3.0958,-3.0699,-3.0559,-3.0351,0.0,-3.0225,-3.0351,-3.0146,-3.0485,-3.0609,0.0,0.0,-3.0401,-3.0401,-3.0401,-3.0526,-3.0733,-3.0733,-3.0814,-3.0912,-3.0912,-3.0952,-3.0952,-3.0952,-3.0952,-3.0952,-3.0952,-3.0952,-3.0952,-3.0952,-3.0992,-3.119,-3.2689,-3.3339,-3.3558,-3.503,-3.5622,-3.5577,-3.552,-3.5446,-3.5337,-2.7523,-2.7523,-2.7523,-2.7523,-2.7776,-2.8039,-2.8039,-2.8597,-2.9016,-2.9016,-2.9331,-2.9504,-2.9504,-2.9827,-3.0011,-3.0011,-3.097,-3.1482,-3.1482,-3.1482,-3.1482,-3.1482,-3.1482,-3.164,-3.1966,-3.1966,-3.2547,-3.3697,-3.4234,-3.4643,-3.4899,-3.4899,-3.4899,-3.4899,-3.4899,-3.4899,-3.4899,-3.4899,-3.4899,-3.4899,-3.4994,-3.4841,-3.4635,-3.4681,-3.4554,-3.4281,-3.4404,-3.4196,-3.3886,-3.3912,-3.3465,-3.284,-3.2571,-3.201,-3.1424,-3.1199,-3.1465,-3.1698,-3.1309,-3.119,-3.119,-3.119,-3.119,-3.119,-3.119,-3.119,-3.119,-3.119,-3.119,-3.119,-3.119,-3.119,-3.119,-3.119,-3.0975,-3.0699,-3.0518,-3.0267,-2.9968,-2.9633,-2.9881,-2.9968,-2.9782,-2.9984,-3.0156,-3.0189,-3.0172,0.0,-3.0443,-3.0485,-3.0568,-3.0609,-3.0609,-3.0692,-3.0831,-3.0871,-3.0912,-3.0912,-3.0912,-3.0912,-3.0912,-3.0912,-3.0912,-3.0952,-3.0952,-3.0992,-3.123,-3.2731,-3.3381,-3.3558,-3.503,-3.5622,-3.5577,-3.552,-3.5446,-3.54,-2.7523,-2.7523,-2.7523,-2.7523,-2.7523,-2.7523,-2.7523,-2.7973,-2.8352,-2.8352,-2.8757,-2.9066,-2.9066,-2.9108,-2.91,-2.91,-3.0234,-3.107,-3.1336,-3.1351,-3.1409,-3.1482,-3.1482,-3.1482,-3.1482,-3.1582,-3.216,-3.3182,-3.3815,-3.4349,-3.4899,-3.4783,-3.4717,-3.4717,-3.4618,-3.4568,-3.4568,-3.4568,-3.4568,-3.4568,-3.4568,-3.425,-3.3686,-3.3715,-3.3316,-3.2829,-3.3081,-3.3057,-3.2974,-3.3068,-3.2647,-3.2023,-3.1549,-3.1032,-3.0518,-3.014,-3.0593,-3.119,-3.1095,-3.1151,-3.119,-3.119,-3.119,-3.119,-3.119,-3.119,-3.119,-3.119,-3.119,-3.119,-3.119,-3.119,-3.119,-3.119,-3.0757,-3.0435,-3.0477,0.0,-2.9661,-2.9499,-2.9617,-2.9633,-2.9364,-2.9377,-2.9512,-2.9826,-2.9766,-2.9897,-3.0258,-3.0384,-3.0426,-3.03,-3.0443,-3.0568,-3.0651,-3.0773,-3.0831,-3.0831,-3.0831,-3.0871,-3.0871,-3.0871,-3.0912,-3.0975,-3.0975,-3.1072,-3.1269,-3.2621,-3.3305,-3.3541,-3.4912,-3.552,-3.5577,-3.552,-3.5492,-3.5446,-2.7523,-2.7523,-2.7523,-2.7523,-2.7523,-2.7523,-2.7523,-2.759,-2.7656,-2.7656,-2.7353,-2.7101,-2.7101,-2.7201,-2.7242,-2.7242,-2.7959,-2.9,-3.0571,-3.0644,-3.0896,-3.1467,-3.1482,-3.1482,-3.1482,-3.2023,-3.2586,-3.3182,-3.3815,-3.4349,-3.4883,-3.4253,-3.3955,-3.3938,-3.3309,-3.3027,-3.3027,-3.3027,-3.3027,-3.3027,-3.315,-3.3234,-3.3222,-3.3275,-3.3278,-3.3322,-3.3322,-3.2959,-3.2418,-3.2459,-3.1968,-3.136,-3.128,-3.1156,-3.1072,-3.1015,-3.1112,-3.1095,-3.0699,-3.0878,-3.119,-3.119,-3.119,-3.119,-3.119,-3.119,-3.119,-3.119,-3.119,-3.119,-3.119,-3.119,-3.1151,-3.1072,-3.1055,-3.0878,-3.0393,0.0,-2.9908,-2.9074,-2.9287,-2.9241,-2.8701,-2.898,-2.921,-2.9212,-2.9212,-2.9257,-2.9303,-2.9348,-2.9348,-2.9303,-3.0199,-3.0609,-3.051,-3.0568,-3.0568,-3.0568,-3.0568,-3.0609,-3.0733,-3.0733,-3.079,-3.0912,-3.0912,-3.0952,-3.1083,-3.1965,-3.2748,-3.3491,-3.4336,-3.5064,-3.5577,-3.552,-3.5446,-3.5354,-2.7523,-2.7523,-2.7523,-2.7523,-2.7523,-2.7419,-2.7118,-2.7066,-2.6948,-2.6648,-2.6386,-2.6216,-2.6216,-2.6268,-2.6281,-2.6281,-2.6512,-2.7215,-2.8418,-2.9129,-2.9811,-3.0421,-3.0477,-3.0477,-3.0477,-3.1036,-3.1418,-3.1665,-3.2576,-3.3096,-3.3334,-3.3267,-3.3193,-3.3176,-3.2845,-3.2741,-3.2802,-3.2802,-3.2829,-3.2857,-3.2917,-3.2787,-3.2495,-3.2521,-3.2353,-3.2042,-3.2083,-3.1904,-3.1601,-3.1681,-3.1461,-3.1151,-3.0918,-3.0658,-3.041,-3.014,-3.0617,-3.1151,-3.0935,-3.0838,-3.0878,-3.1151,-3.0797,-3.0576,-3.1095,-3.0797,-3.0535,-3.0781,-3.0617,-3.0452,-3.0452,-3.0452,-3.041,-3.0368,-3.0368,0.0,-2.9733,-2.9821,-2.9556,-2.8637,-2.9166,-2.9241,-2.8301,-2.8638,-2.8904,-2.8795,-2.8701,-2.8795,-2.9074,-2.915,-2.915,-2.9074,-2.9853,-3.03,-3.0526,-3.0526,-3.0526,-3.0609,-3.051,-3.0609,-3.0831,-3.0733,-3.0773,-3.0935,-3.0935,-3.1032,-3.1162,-3.1888,-3.2671,-3.3474,-3.4201,-3.4962,-3.5577,-3.5549,-3.5503,-3.5412,-2.7131,-2.7131,-2.7131,-2.7131,-2.7131,-2.6987,-2.6543,-2.6478,-2.6321,-2.5876,-2.5707,-2.5628,-2.5628,-2.5511,-2.5419,-2.5419,-2.5419,-2.5712,-2.6321,-2.7428,-2.8429,-2.9332,-2.9525,-2.9579,-2.9579,-3.0,-3.0299,-3.0371,-3.1242,-3.1694,-3.1837,-3.2183,-3.2342,-3.2342,-3.2309,-3.233,-3.245,-3.245,-3.2477,-3.2529,-3.2529,-3.2253,-3.1767,-3.1808,-3.1456,-3.0992,-3.1032,-3.1072,-3.1055,-3.1151,-3.1151,-3.0958,-3.0601,-3.0182,-2.9705,-2.9348,-3.0011,-3.0838,-3.0757,-3.0535,-3.0435,-3.0797,-3.0326,-2.9984,-3.0716,-3.0326,-2.9881,-3.0267,-3.0054,-2.9837,-2.9924,-2.9881,-2.9853,-2.9924,0.0,-2.9544,-2.9257,-2.9454,-2.9319,-2.8462,-2.9074,-2.912,-2.8103,-2.8431,-2.8606,-2.8383,-2.8415,-2.8543,-2.8811,-2.8857,-2.8904,-2.8919,-2.9483,-2.9984,-3.0342,-3.0443,-3.0568,-3.0651,-3.0568,-3.0609,-3.0871,-3.0733,-3.0814,-3.0975,-3.0975,-3.1015,-3.1066,-3.1742,-3.2478,-3.327,-3.3929,-3.4766,-3.5532,-3.5532,-3.5441,-3.5287,-2.5955,-2.5955,-2.5955,-2.5955,-2.5955,-2.5929,-2.589,-2.589,-2.5876,-2.5837,-2.5367,-2.5088,-2.5088,-2.4557,-2.4243,-2.4243,-2.4243,-2.4464,-2.5084,-2.5716,-2.683,-2.8691,-2.9277,-2.9579,-2.9579,-2.9633,-2.991,-3.0371,-3.049,-3.0779,-3.126,-3.1251,-3.123,-3.1197,-3.1116,-3.1039,-3.1039,-3.1039,-3.1039,-3.1063,-3.1103,-3.111,-3.1099,-3.1196,-3.1241,-3.119,-3.119,-3.119,-3.119,-3.119,-3.0918,-3.0559,-3.0518,-3.0182,-2.9793,-2.975,-2.9793,-2.9793,-2.9393,-2.9572,-2.9837,-2.9881,-2.9837,-2.9793,-2.9897,-2.9853,-2.9793,-2.9837,-2.9837,-2.9924,-3.0351,-3.0097,-2.9881,-3.0208,0.0,0.0,-2.9572,-2.9572,-2.9393,-2.8904,-2.8795,-2.8574,-2.8054,-2.8431,-2.8527,-2.8054,-2.8431,-2.8527,-2.8103,-2.7989,-2.8042,-2.8352,-2.9287,-2.981,-2.9853,-3.03,-3.051,-3.051,-3.051,-3.0568,-3.0692,-3.0692,-3.0773,-3.0912,-3.0975,-3.0757,-3.0435,-3.1026,-3.18,-3.2602,-3.3081,-3.4152,-3.5337,-3.5337,-3.4994,-3.4594,-2.5824,-2.5824,-2.5824,-2.5824,-2.5824,-2.5707,-2.5341,-2.5288,-2.5171,-2.4805,-2.457,-2.4439,-2.4439,-2.4243,-2.4112,-2.4112,-2.4112,-2.4229,-2.4447,-2.53,-2.6429,-2.7965,-2.8219,-2.8338,-2.8338,-2.8338,-2.8478,-2.8769,-2.9089,-2.9368,-2.9642,-3.0238,-3.0539,-3.0539,-3.0784,-3.0912,-3.0935,-3.0935,-3.1032,-3.1072,-3.1112,-3.1112,-3.1112,-3.119,-3.119,-3.119,-3.119,-3.1015,-3.0781,-3.0781,-3.0435,-3.0054,-3.0054,-2.975,-2.9303,-2.9013,-2.892,-2.8889,-2.87,-2.8997,-2.9438,-2.9705,-2.9364,-2.9106,-2.9677,-2.9364,-2.9013,-2.9303,-2.9136,-2.8967,-2.9182,-2.9059,-2.8967,-2.909,0.0,-2.8936,-2.8842,-2.909,-2.9074,-2.8542,-2.9028,-2.9028,-2.8103,-2.8494,-2.8574,-2.8054,-2.8186,-2.8186,-2.802,-2.7955,-2.7989,-2.8122,-2.8795,-2.9332,-2.981,-2.9984,-3.0241,-3.0609,-3.0609,-3.0733,-3.0895,-3.0895,-3.0797,-3.0658,-3.0658,-3.0435,-3.0054,-3.0576,-3.1508,-3.2646,-3.2752,-3.3694,-3.4944,-3.461,-3.435,-3.4152,-2.5288,-2.5288,-2.5288,-2.5288,-2.5288,-2.5158,-2.4766,-2.47,-2.4557,-2.4164,-2.4112,-2.4112,-2.4112,-2.4112,-2.4112,-2.4112,-2.4112,-2.4112,-2.4112,-2.5147,-2.6322,-2.7575,-2.7625,-2.7625,-2.7625,-2.7625,-2.7725,-2.7959,-2.8271,-2.8543,-2.8826,-2.9722,-3.013,-3.0172,-3.0692,-3.0992,-3.1055,-3.1055,-3.1112,-3.119,-3.119,-3.119,-3.119,-3.119,-3.1112,-3.0975,-3.0975,-3.0658,-3.0267,-3.0267,-2.9968,-2.9572,-2.9572,-2.9273,-2.8826,-2.8493,-2.8411,-2.8411,-2.8411,-2.8621,-2.8967,-2.9273,-2.8889,-2.8589,-2.9182,-2.8842,-2.8493,-2.8826,-2.8621,-2.8444,-2.8573,-2.8493,-2.8444,-2.8621,-2.8493,-2.8411,-2.8411,-2.8653,-2.8732,-2.8284,-2.892,-2.9059,-2.8201,-2.8637,-2.8732,-2.8152,-2.8235,-2.8284,-2.8054,-2.8054,-2.8054,-2.802,-2.8301,-2.8795,-2.9438,-2.9617,-2.9897,-3.03,-3.03,-3.0384,-3.0551,-3.0551,-3.041,-3.0182,-3.0225,-2.9968,-2.9572,-3.0054,-3.0888,-3.1867,-3.2187,-3.3069,-3.4136,-3.3971,-3.3799,-3.363,-2.4112,-2.4112,-2.4112,-2.4112,-2.4112,-2.4112,-2.4112,-2.4112,-2.4112,-2.4112,-2.4112,-2.4112,-2.4112,-2.4112,-2.4112,-2.4112,-2.4112,-2.4112,-2.4112,-2.5189,-2.6322,-2.7575,-2.7625,-2.7625,-2.7625,-2.761,-2.7845,-2.8288,-2.8304,-2.8591,-2.9136,-2.9705,-3.0054,-3.0123,-3.0757,-3.1072,-3.119,-3.119,-3.119,-3.119,-3.119,-3.119,-3.119,-3.119,-3.0918,-3.0518,-3.0518,-3.0225,-2.9793,-2.981,-2.9483,-2.9074,-2.9074,-2.8779,-2.8411,-2.8411,-2.8411,-2.8411,-2.8411,-2.8411,-2.8411,-2.8411,-2.8411,-2.8411,-2.8411,-2.8411,-2.8411,-2.8411,-2.8411,-2.8525,-2.8997,-2.87,-2.8525,-2.8997,-2.87,-2.8411,-2.8411,-2.8411,-2.8411,-2.8411,-2.8411,-2.8411,-2.8411,-2.8826,-2.8904,-2.8444,-2.8826,-2.8811,-2.8235,-2.8186,-2.8137,-2.802,-2.802,-2.822,-2.8685,-2.9227,-2.9486,-2.9515,-2.9515,-2.9515,-2.9515,-2.9515,-2.9515,-2.9515,-2.9589,-2.9303,-2.8951,-2.9528,-2.987,-3.0116,-3.1246,-3.2128,-3.2784,-3.3438,-3.3366,-3.2996,-2.4112,-2.4112,-2.4112,-2.4112,-2.4112,-2.4112,-2.4112,-2.4112,-2.4112,-2.4112,-2.4112,-2.4112,-2.4112,-2.4112,-2.4112,-2.4112,-2.4112,-2.4434,-2.5245,-2.5632,-2.6322,-2.7575,-2.7625,-2.7625,-2.7625,-2.7929,-2.8222,-2.8463,-2.8857,-2.9196,-2.9438,-3.0054,-3.0351,-3.0393,-3.0918,-3.1151,-3.119,-3.119,-3.119,-3.119,-3.119,-3.119,-3.119,-3.119,-3.1095,-3.0958,-3.0601,-3.0225,-2.975,-2.9438,-2.9013,-2.8621,-2.8621,-2.8525,-2.8411,-2.8411,-2.8411,-2.8411,-2.8411,-2.8411,-2.8411,-2.8411,-2.8411,-2.8411,-2.8411,-2.8411,-2.8411,-2.8411,-2.8411,-2.8444,-2.8573,-2.8493,-2.8444,-2.8573,-2.8493,-2.8411,-2.8411,-2.8411,-2.8411,-2.8411,-2.8411,-2.8411,-2.8411,-2.8541,-2.8525,-2.8396,-2.8541,-2.8525,-2.8348,-2.8348,-2.8299,-2.8266,-2.8266,-2.8348,-2.8477,-2.8811,-2.9136,-2.9515,-2.9544,-2.9589,-2.9589,-2.9677,-2.9722,-2.9677,-2.9393,-2.9166,-2.9028,-2.9212,-2.964,-3.0212,-3.0973,-3.1736,-3.2399,-3.2676,-3.2726,-3.2547,-2.4112,-2.4112,-2.4112,-2.4112,-2.4112,-2.4112,-2.4112,-2.4112,-2.4112,-2.4112,-2.4112,-2.4112,-2.4112,-2.4112,-2.4112,-2.4112,-2.4112,-2.439,-2.509,-2.5577,-2.6122,-2.6864,-2.7357,-2.7625,-2.7625,-2.8076,-2.8448,-2.8748,-2.9287,-2.9689,-2.9984,-3.0326,-3.0576,-3.0658,-3.0935,-3.1112,-3.119,-3.119,-3.119,-3.119,-3.119,-3.119,-3.119,-3.119,-3.1095,-3.0878,-3.0393,-2.9924,-2.9438,-2.8951,-2.8605,-2.8411,-2.8411,-2.8411,-2.8411,-2.8411,-2.8411,-2.8411,-2.8411,-2.8411,-2.8411,-2.8411,-2.8411,-2.8411,-2.8411,-2.8411,-2.8411,-2.8411,-2.8411,-2.8411,-2.8411,-2.8411,-2.8411,-2.8411,-2.8411,-2.8411,-2.8411,-2.8411,-2.8411,-2.8411,-2.8411,-2.8411,-2.8411,-2.8411,-2.8411,-2.8411,-2.8411,-2.8411,-2.8411,-2.8411,-2.8411,-2.8411,-2.8411,-2.8411,-2.8411,-2.851,-2.8732,-2.9075,-2.9106,-2.9152,-2.9152,-2.9198,-2.9243,-2.9227,-2.8967,-2.8826,-2.8826,-2.8826,-2.9077,-2.9562,-3.0451,-3.1092,-3.1576,-3.2153,-3.2398,-3.2398,-2.4112,-2.4112,-2.4112,-2.4112,-2.4112,-2.4112,-2.4112,-2.4112,-2.4112,-2.4112,-2.4112,-2.4112,-2.4112,-2.4112,-2.4112,-2.4112,-2.4112,-2.4171,-2.4229,-2.5189,-2.5837,-2.596,-2.7019,-2.7625,-2.7625,-2.8125,-2.8638,-2.9166,-2.9661,-3.0113,-3.0526,-3.0551,-3.0692,-3.0912,-3.0912,-3.1032,-3.119,-3.119,-3.119,-3.119,-3.119,-3.119,-3.119,-3.1151,-3.0878,-3.0418,-2.9924,-2.9483,-2.9044,-2.8573,-2.8411,-2.8411,-2.8411,-2.8411,-2.8411,-2.8411,-2.8411,-2.8411,-2.8411,-2.8411,-2.8411,-2.8411,-2.8411,-2.8411,-2.8411,-2.8411,-2.8411,-2.8411,-2.8411,-2.8411,-2.8411,-2.8411,-2.8381,-2.8319,-2.8319,-2.8319,-2.8319,-2.8319,-2.8334,-2.8396,-2.8411,-2.8411,-2.8411,-2.8411,-2.8411,-2.8411,-2.8411,-2.8411,-2.8411,-2.8411,-2.8411,-2.8411,-2.8411,-2.8411,-2.8411,-2.8411,-2.8411,-2.8411,-2.8411,-2.8411,-2.8411,-2.8411,-2.8396,-2.8444,-2.8396,-2.8396,-2.8444,-2.8396,-2.8411,-2.8535,-2.9827,-3.0366,-3.0582,-3.1844,-3.2336,-3.2398,-2.4505,-2.4505,-2.4505,-2.4505,-2.4376,-2.4305,-2.4447,-2.4287,-2.4157,-2.4247,-2.4157,-2.4112,-2.4112,-2.4112,-2.4112,-2.4112,-2.4112,-2.4492,-2.5356,-2.5687,-2.6215,-2.7188,-2.7458,-2.7625,-2.774,-2.8527,-2.9166,-2.9661,-3.0199,-3.0609,-3.0814,-3.0855,-3.0975,-3.1112,-3.1112,-3.1151,-3.119,-3.119,-3.119,-3.119,-3.119,-3.119,-3.1151,-3.0781,-3.0601,-3.0393,-2.9556,-2.9182,-2.9044,-2.8573,-2.8411,-2.8411,-2.8411,-2.8411,-2.8411,-2.8411,-2.8411,-2.8411,-2.8411,-2.8411,-2.8411,-2.8411,-2.8411,-2.8411,-2.8411,-2.8411,-2.8411,-2.8411,-2.8411,-2.8411,-2.8411,-2.8411,-2.8227,-2.7703,-2.7611,-2.7611,-2.7611,-2.7611,-2.7811,-2.835,-2.8411,-2.8411,-2.8411,-2.8411,-2.8411,-2.8411,-2.8411,-2.8411,-2.8411,-2.8411,-2.8411,-2.8411,-2.8411,-2.8411,-2.8411,-2.8411,-2.8411,-2.8411,-2.8411,-2.8411,-2.8411,-2.8411,-2.8621,-2.892,-2.8573,-2.8621,-2.8904,-2.8525,-2.8411,-2.8488,-2.9319,-2.9966,-3.052,-3.132,-3.1936,-3.2398,-2.4203,-2.4434,-2.462,-2.462,-2.4492,-2.4492,-2.4549,-2.4447,-2.439,-2.4421,-2.439,-2.4345,-2.4345,-2.4345,-2.4345,-2.4345,-2.4345,-2.4607,-2.5203,-2.5742,-2.6336,-2.693,-2.7524,-2.8008,-2.8559,-2.9012,-2.9377,-2.9601,-3.0426,-3.0831,-3.0912,-3.0952,-3.1032,-3.1095,-3.1095,-3.1151,-3.119,-3.119,-3.119,-3.119,-3.0975,-3.0878,-3.0821,-3.0351,-3.0182,-3.0081,-2.9348,-2.8967,-2.8748,-2.8493,-2.8411,-2.8411,-2.8411,-2.8411,-2.8411,-2.8411,-2.8411,-2.8411,-2.8411,-2.8411,-2.8411,-2.8411,-2.8165,-2.8011,-2.8334,-2.815,-2.7919,-2.7919,-2.7673,-2.7442,-2.7442,-2.7442,-2.7319,-2.6965,-2.6919,-2.6919,-2.6919,-2.6919,-2.7042,-2.7396,-2.7442,-2.7565,-2.7888,-2.7919,-2.8057,-2.8381,-2.8411,-2.8411,-2.8411,-2.8411,-2.8411,-2.8411,-2.8411,-2.8411,-2.8411,-2.8411,-2.8411,-2.8411,-2.8411,-2.8411,-2.8411,-2.8411,-2.8525,-2.8748,-2.8493,-2.8525,-2.8748,-2.8493,-2.8411,-2.8473,-2.915,-2.9827,-3.0505,-3.1151,-3.1813,-3.2398,-2.3793,-2.4131,-2.4434,-2.4549,-2.4549,-2.4563,-2.4677,-2.462,-2.462,-2.462,-2.462,-2.462,-2.462,-2.462,-2.462,-2.462,-2.462,-2.4664,-2.4892,-2.5756,-2.6404,-2.6549,-2.756,-2.8479,-2.9287,-2.9451,-2.9585,-2.9673,-3.0493,-3.0912,-3.0912,-3.0912,-3.0952,-3.1015,-3.1015,-3.1112,-3.119,-3.119,-3.119,-3.1151,-3.0797,-3.0559,-3.0435,-2.9968,-2.975,-2.9617,-2.9136,-2.8748,-2.8411,-2.8411,-2.8411,-2.8411,-2.8411,-2.8411,-2.8411,-2.8411,-2.8348,-2.8284,-2.8348,-2.8255,-2.8115,-2.8179,-2.7734,-2.7365,-2.7934,-2.7626,-2.7211,-2.7226,-2.678,-2.638,-2.638,-2.638,-2.6349,-2.6226,-2.6195,-2.6195,-2.6195,-2.6195,-2.6241,-2.6364,-2.638,-2.6657,-2.7334,-2.7396,-2.7673,-2.835,-2.8411,-2.8411,-2.8411,-2.8411,-2.8411,-2.8411,-2.8411,-2.8411,-2.8411,-2.8411,-2.8411,-2.8411,-2.8411,-2.8411,-2.8411,-2.8411,-2.8411,-2.8411,-2.8411,-2.8411,-2.8411,-2.8411,-2.8411,-2.8458,-2.9027,-2.9658,-3.0335,-3.1105,-3.1813,-3.2398,-2.3649,-2.3708,-2.3872,-2.4292,-2.4234,-2.4363,-2.4892,-2.4721,-2.462,-2.4778,-2.4677,-2.462,-2.462,-2.462,-2.462,-2.462,-2.462,-2.4991,-2.6014,-2.6229,-2.6721,-2.774,-2.8286,-2.8701,-2.8951,-2.9777,-3.0351,-3.0692,-3.0814,-3.0952,-3.0975,-3.0975,-3.1055,-3.119,-3.119,-3.119,-3.119,-3.119,-3.119,-3.119,-3.1151,-3.0878,-3.0435,-2.9968,-2.9528,-2.912,-2.8653,-2.8444,-2.8411,-2.8411,-2.8411,-2.8411,-2.8411,-2.8411,-2.8411,-2.8411,-2.8024,-2.773,-2.8235,-2.7598,-2.6886,-2.7425,-2.7026,-2.6549,-2.6641,-2.6565,-2.6488,-2.6518,-2.6441,-2.638,-2.6334,-2.6364,-2.618,-2.5564,-2.5456,-2.5456,-2.5456,-2.5456,-2.5672,-2.6257,-2.6364,-2.6657,-2.7334,-2.7396,-2.7673,-2.835,-2.8411,-2.8411,-2.8411,-2.8411,-2.8411,-2.8411,-2.8411,-2.8411,-2.8411,-2.8411,-2.8411,-2.8411,-2.8411,-2.8411,-2.8411,-2.8411,-2.8411,-2.8411,-2.8411,-2.8411,-2.8411,-2.8411,-2.8411,-2.8411,-2.8504,-2.895,-2.9704,-3.0936,-3.1813,-3.2398,-2.3185,-2.3412,-2.3695,-2.3872,-2.3872,-2.393,-2.4176,-2.4363,-2.4478,-2.4536,-2.4721,-2.4835,-2.4835,-2.4835,-2.4835,-2.4835,-2.4835,-2.5174,-2.6042,-2.6336,-2.6901,-2.771,-2.8253,-2.8826,-2.9393,-2.9793,-3.0368,-3.1072,-3.1072,-3.1072,-3.1112,-3.1112,-3.1151,-3.119,-3.119,-3.119,-3.119,-3.119,-3.119,-3.119,-3.0918,-3.0699,-3.0435,-2.9705,-2.9257,-2.9044,-2.8573,-2.8411,-2.8411,-2.8411,-2.8411,-2.8411,-2.8411,-2.8411,-2.8411,-2.8411,-2.7975,-2.7509,-2.7794,-2.7131,-2.6519,-2.678,-2.6303,-2.5795,-2.5795,-2.5487,-2.5318,-2.5703,-2.5487,-2.5226,-2.521,-2.521,-2.5118,-2.4795,-2.4748,-2.4748,-2.4748,-2.4748,-2.4856,-2.5164,-2.521,-2.5641,-2.6734,-2.6826,-2.7272,-2.8319,-2.8411,-2.8411,-2.8411,-2.8411,-2.8411,-2.8411,-2.8411,-2.8411,-2.8411,-2.8411,-2.8411,-2.8411,-2.8411,-2.8411,-2.8411,-2.8411,-2.8411,-2.8411,-2.8411,-2.8411,-2.8411,-2.8411,-2.8411,-2.8411,-2.8411,-2.8827,-2.9566,-3.0905,-3.1582,-3.189]},{"header":{"parameterUnit":"m.s-1","parameterCategory":1,"la1":30.6,"la2":28.766,"lo1":-90.7593,"lo2":-88.6598,"dy":0.0162,"dx":0.0183,"nx":116,"ny":114,"refTime":"2023-07-02T12:00:00:Z","depth":0,"parameterNumber":3,"parameterNumberName":"V-component_of_WINDS"},"data":[0.0,0.0,0.0,0.0,0.0,0.0,0.0,0.0,0.0,0.0,0.0,0.0,0.0,0.0,0.0,0.0,0.0,0.0,0.0,0.0,0.0,0.0,0.0,0.0,0.0,0.0,0.0,0.0,0.0,0.0,0.0,0.0,0.0,0.0,0.0,0.0,0.0,0.0,0.0,0.0,0.0,0.0,0.0,0.0,0.0,0.0,0.0,0.0,0.0,0.0,0.0,0.0,0.0,0.0,0.0,0.0,0.0,0.0,0.0,0.0,0.0,0.0,0.0,0.0,0.0,0.0,0.0,0.0,0.0,0.0,0.0,0.0,0.0,0.0,0.0,0.0,0.0,0.0,0.0,0.0,0.0,0.0,0.0,0.0,0.0,0.0,0.0,0.0,0.0,0.0,0.0,0.0,0.0,0.0,0.0,0.0,0.0,0.0,0.0,0.0,0.0,0.0,0.0,0.0,0.0,0.0,0.0,0.0,0.0,0.0,0.0,0.0,0.0,0.0,0.0,0.0,0.0,0.0,0.0,0.0,0.0,0.0,0.0,0.0,0.0,0.0,0.0,0.0,0.0,0.0,0.0,0.0,0.0,0.0,0.0,0.0,0.0,0.0,0.0,0.0,0.0,0.0,0.0,0.0,0.0,0.0,0.0,0.0,0.0,0.0,0.0,0.0,0.0,0.0,0.0,0.0,0.0,0.0,0.0,0.0,0.0,0.0,0.0,0.0,0.0,0.0,0.0,0.0,0.0,0.0,0.0,0.0,0.0,0.0,0.0,0.0,0.0,0.0,0.0,0.0,0.0,0.0,0.0,0.0,0.0,0.0,0.0,0.0,0.0,0.0,0.0,0.0,0.0,0.0,0.0,0.0,0.0,0.0,0.0,0.0,0.0,0.0,0.0,0.0,0.0,0.0,0.0,0.0,0.0,0.0,0.0,0.0,0.0,0.0,0.0,0.0,0.0,0.0,0.0,0.0,0.0,0.0,0.0,0.0,0.0,0.0,0.0,0.0,0.0,0.0,0.0,0.0,0.0,0.0,0.0,0.0,0.0,0.0,0.0,0.0,0.0,0.0,0.0,0.0,0.0,0.0,0.0,0.0,0.0,0.0,0.0,0.0,0.0,0.0,0.0,0.0,0.0,0.0,0.0,0.0,0.0,0.0,0.0,0.0,0.0,0.0,0.0,0.0,0.0,0.0,0.0,0.0,0.0,0.0,0.0,0.0,0.0,0.0,0.0,0.0,0.0,0.0,0.0,0.0,0.0,0.0,0.0,0.0,0.0,0.0,0.0,0.0,0.0,0.0,0.0,0.0,0.0,0.0,0.0,0.0,0.0,0.0,0.0,0.0,0.0,0.0,0.0,0.0,0.0,0.0,0.0,0.0,0.0,0.0,0.0,0.0,0.0,0.0,0.0,0.0,0.0,0.0,0.0,0.0,0.0,0.0,0.0,0.0,0.0,0.0,0.0,0.0,0.0,0.0,0.0,0.0,0.0,0.0,0.0,0.0,0.0,0.0,0.0,0.0,0.0,0.0,0.0,0.0,0.0,0.0,0.0,0.0,0.0,0.0,0.0,0.0,0.0,0.0,0.0,0.0,0.0,0.0,0.0,0.0,0.0,0.0,0.0,0.0,0.0,0.0,0.0,0.0,0.0,0.0,0.0,0.0,0.0,0.0,0.0,0.0,0.0,0.0,0.0,0.0,0.0,0.0,0.0,0.0,0.0,0.0,0.0,0.0,0.0,0.0,0.0,0.0,0.0,0.0,0.0,0.0,0.0,0.0,0.0,0.0,0.0,0.0,0.0,0.0,0.0,0.0,0.0,0.0,0.0,0.0,0.0,0.0,0.0,0.0,0.0,0.0,0.0,0.0,0.0,0.0,0.0,0.0,0.0,0.0,0.0,0.0,0.0,0.0,0.0,0.0,0.0,0.0,0.0,0.0,0.0,0.0,0.0,0.0,0.0,0.0,0.0,0.0,0.0,0.0,0.0,0.0,0.0,0.0,0.0,0.0,0.0,0.0,0.0,0.0,0.0,0.0,0.0,0.0,0.0,0.0,0.0,0.0,0.0,0.0,0.0,0.0,0.0,0.0,0.0,0.0,0.0,0.0,0.0,0.0,0.0,0.0,0.0,0.0,0.0,0.0,0.0,0.0,0.0,0.0,0.0,0.0,0.0,0.0,0.0,0.0,0.0,0.0,0.0,0.0,0.0,0.0,0.0,0.0,0.0,0.0,0.0,0.0,0.0,0.0,0.0,0.0,0.0,0.0,0.0,0.0,0.0,0.0,0.0,0.0,0.0,0.0,0.0,0.0,0.0,0.0,0.0,0.0,0.0,0.0,0.0,0.0,0.0,0.0,0.0,0.0,0.0,0.0,0.0,0.0,0.0,0.0,0.0,0.0,0.0,0.0,0.0,0.0,0.0,0.0,0.0,0.0,0.0,0.0,0.0,0.0,0.0,0.0,0.0,0.0,0.0,0.0,0.0,0.0,0.0,0.0,0.0,0.0,0.0,0.0,0.0,0.0,0.0,0.0,0.0,0.0,0.0,0.0,0.0,0.0,0.0,0.0,0.0,0.0,0.0,0.0,0.0,0.0,0.0,0.0,0.0,0.0,0.0,0.0,0.0,0.0,0.0,0.0,0.0,0.0,0.0,0.0,0.0,0.0,0.0,0.0,0.0,0.0,0.0,0.0,0.0,0.0,0.0,0.0,0.0,0.0,0.0,0.0,0.0,0.0,0.0,0.0,0.0,0.0,0.0,0.0,0.0,0.0,0.0,0.0,0.0,0.0,0.0,0.0,0.0,0.0,0.0,0.0,0.0,0.0,0.0,0.0,0.0,0.0,0.0,0.0,0.0,0.0,0.0,0.0,0.0,0.0,0.0,0.0,0.0,0.0,0.0,0.0,0.0,0.0,0.0,0.0,0.0,0.0,0.0,0.0,0.0,0.0,0.0,0.0,0.0,0.0,0.0,0.0,0.0,0.0,0.0,0.0,0.0,0.0,0.0,0.0,0.0,0.0,0.0,0.0,0.0,0.0,0.0,0.0,0.0,0.0,0.0,0.0,0.0,0.0,0.0,0.0,0.0,0.0,0.0,0.0,0.0,0.0,0.0,0.0,0.0,0.0,0.0,0.0,0.0,0.0,0.0,0.0,0.0,0.0,0.0,0.0,0.0,0.0,0.0,0.0,0.0,0.0,0.0,0.0,0.0,0.0,0.0,0.0,0.0,0.0,0.0,0.0,0.0,0.0,0.0,0.0,0.0,0.0,0.0,0.0,0.0,0.0,0.0,0.0,0.0,0.0,0.0,0.0,0.0,0.0,0.0,0.0,0.0,0.0,0.0,0.0,0.0,0.0,0.0,0.0,0.0,0.0,0.0,0.0,0.0,0.0,0.0,0.0,0.0,0.0,0.0,0.0,0.0,0.0,0.0,0.0,0.0,0.0,0.0,0.0,0.0,0.0,0.0,0.0,0.0,0.0,0.0,0.0,0.0,0.0,0.0,0.0,0.0,0.0,0.0,0.0,0.0,0.0,0.0,0.0,0.0,0.0,0.0,0.0,0.0,0.0,0.0,0.0,0.0,0.0,0.0,0.0,0.0,0.0,0.0,0.0,0.0,0.0,0.0,0.0,0.0,0.0,0.0,0.0,0.0,0.0,0.0,0.0,0.0,0.0,0.0,0.0,0.0,0.0,0.0,0.0,0.0,0.0,0.0,0.0,0.0,0.0,0.0,0.0,0.0,0.0,0.0,0.0,0.0,0.0,0.0,0.0,0.0,0.0,0.0,0.0,0.0,0.0,0.0,0.0,0.0,0.0,0.0,0.0,0.0,0.0,0.0,0.0,0.0,0.0,0.0,0.0,0.0,0.0,0.0,0.0,0.0,0.0,0.0,0.0,0.0,0.0,0.0,0.0,0.0,0.0,0.0,0.0,0.0,0.0,0.0,0.0,0.0,0.0,0.0,0.0,0.0,0.0,0.0,0.0,0.0,0.0,0.0,0.0,0.0,0.0,0.0,0.0,0.0,0.0,0.0,0.0,0.0,0.0,0.0,0.0,0.0,0.0,0.0,0.0,0.0,0.0,0.0,0.0,0.0,0.0,0.0,0.0,0.0,0.0,0.0,0.0,0.0,0.0,0.0,0.0,0.0,0.0,0.0,0.0,0.0,0.0,0.0,0.0,0.0,0.0,0.0,0.0,0.0,0.0,0.0,0.0,0.0,0.0,0.0,0.0,0.0,0.0,0.0,0.0,0.0,0.0,0.0,0.0,0.0,0.0,0.0,0.0,0.0,0.0,0.0,0.0,0.0,0.0,0.0,0.0,0.0,0.0,0.0,0.0,0.0,0.0,0.0,0.0,0.0,0.0,0.0,0.0,0.0,0.0,0.0,0.0,0.0,0.0,0.0,0.0,0.0,0.0,0.0,0.0,0.0,0.0,0.0,0.0,0.0,0.0,0.0,0.0,0.0,0.0,0.0,0.0,0.0,0.0,0.0,0.0,0.0,0.0,0.0,0.0,0.0,0.0,0.0,0.0,0.0,0.0,0.0,0.0,0.0,0.0,0.0,0.0,0.0,0.0,0.0,0.0,0.0,0.0,0.0,0.0,0.0,0.0,0.0,0.0,0.0,0.0,0.0,0.0,0.0,0.0,0.0,0.0,0.0,0.0,0.0,0.0,0.0,0.0,0.0,0.0,0.0,0.0,0.0,0.0,0.0,0.0,0.0,0.0,0.0,0.0,0.0,0.0,0.0,0.0,0.0,0.0,0.0,0.0,0.0,0.0,0.0,0.0,0.0,0.0,0.0,0.0,0.0,0.0,0.0,0.0,0.0,0.0,0.0,0.0,0.0,0.0,0.0,0.0,0.0,0.0,0.0,0.0,0.0,0.0,0.0,0.0,0.0,0.0,0.0,0.0,0.0,0.0,0.0,0.0,0.0,0.0,0.0,0.0,0.0,0.0,0.0,0.0,0.0,0.0,0.0,0.0,0.0,0.0,0.0,0.0,0.0,0.0,0.0,0.0,0.0,0.0,0.0,0.0,0.0,0.0,0.0,0.0,0.0,0.0,0.0,0.0,0.0,0.0,0.0,0.0,0.0,0.0,0.0,0.0,0.0,0.0,0.0,0.0,0.0,0.0,0.0,0.0,0.0,0.0,0.0,0.0,0.0,0.0,0.0,0.0,0.0,0.0,0.0,0.0,0.0,0.0,0.0,0.0,0.0,0.0,0.0,0.0,0.0,0.0,0.0,0.0,0.0,0.0,0.0,0.0,0.0,0.0,0.0,0.0,0.0,0.0,0.0,0.0,0.0,0.0,0.0,0.0,0.0,0.0,0.0,0.0,0.0,0.0,0.0,0.0,0.0,0.0,0.0,0.0,0.0,0.0,0.0,0.0,0.0,0.0,0.0,0.0,0.0,0.0,0.0,0.0,0.0,0.0,0.0,0.0,0.0,0.0,0.0,0.0,0.0,0.0,0.0,0.0,0.0,0.0,0.0,0.0,0.0,0.0,0.0,0.0,0.0,0.0,0.0,0.0,0.0,0.0,0.0,0.0,0.0,0.0,0.0,0.0,0.0,0.0,0.0,0.0,0.0,0.0,0.0,0.0,0.0,0.0,0.0,0.0,0.0,0.0,0.0,0.0,0.0,0.0,0.0,0.0,0.0,0.0,0.0,0.0,0.0,0.0,0.0,0.0,0.0,0.0,0.0,0.0,0.0,0.0,0.0,0.0,0.0,0.0,0.0,0.0,0.0,0.0,0.0,0.0,0.0,0.0,0.0,0.0,0.0,0.0,0.0,0.0,0.0,0.0,0.0,0.0,0.0,0.0,0.0,0.0,0.0,0.0,0.0,0.0,0.0,0.0,0.0,0.0,0.0,0.0,0.0,0.0,0.0,0.0,0.0,0.0,0.0,0.0,0.0,0.0,0.0,0.0,0.0,0.0,0.0,0.0,0.0,0.0,0.0,0.0,0.0,0.0,0.0,0.0,0.0,0.0,0.0,0.0,0.0,0.0,0.0,0.0,0.0,0.0,0.0,0.0,0.0,0.0,0.0,0.0,0.0,0.0,0.0,0.0,0.0,0.0,0.0,0.0,0.0,0.0,0.0,0.0,-1.6807,-1.8688,0.0,0.0,0.0,0.0,0.0,0.0,0.0,0.0,0.0,0.0,0.0,0.0,0.0,0.0,0.0,0.0,0.0,0.0,0.0,0.0,0.0,0.0,0.0,0.0,0.0,0.0,0.0,0.0,0.0,0.0,0.0,0.0,0.0,0.0,0.0,0.0,0.0,0.0,0.0,0.0,0.0,0.0,0.0,0.0,0.0,0.0,0.0,0.0,0.0,0.0,0.0,0.0,0.0,0.0,0.0,0.0,0.0,0.0,0.0,0.0,0.0,0.0,0.0,0.0,0.0,0.0,0.0,0.0,0.0,0.0,0.0,0.0,0.0,0.0,0.0,0.0,0.0,0.0,0.0,0.0,0.0,0.0,0.0,0.0,0.0,0.0,0.0,0.0,0.0,0.0,0.0,0.0,0.0,0.0,0.0,0.0,0.0,0.0,0.0,0.0,0.0,0.0,0.0,0.0,0.0,0.0,0.0,0.0,0.0,0.0,0.0,0.0,0.0,0.0,-1.6432,-1.7375,0.0,0.0,0.0,0.0,0.0,0.0,0.0,0.0,0.0,0.0,0.0,0.0,0.0,0.0,0.0,0.0,0.0,0.0,0.0,0.0,0.0,0.0,0.0,0.0,0.0,0.0,0.0,0.0,0.0,0.0,0.0,0.0,0.0,0.0,0.0,0.0,0.0,0.0,0.0,0.0,0.0,0.0,0.0,0.0,0.0,0.0,0.0,0.0,0.0,0.0,0.0,0.0,0.0,0.0,0.0,0.0,0.0,0.0,0.0,0.0,0.0,0.0,0.0,0.0,0.0,0.0,0.0,0.0,0.0,0.0,0.0,0.0,0.0,0.0,0.0,0.0,0.0,0.0,0.0,0.0,0.0,0.0,0.0,0.0,0.0,0.0,0.0,0.0,0.0,0.0,0.0,0.0,0.0,0.0,0.0,0.0,0.0,0.0,0.0,0.0,0.0,0.0,0.0,0.0,0.0,0.0,0.0,0.0,-1.3249,-1.3443,-1.3443,-1.3443,-1.4765,-1.6922,-1.5785,-1.5697,-1.6734,-1.8126,0.0,0.0,0.0,0.0,0.0,0.0,0.0,0.0,0.0,0.0,0.0,0.0,0.0,0.0,0.0,0.0,0.0,0.0,0.0,0.0,0.0,0.0,0.0,0.0,0.0,0.0,0.0,0.0,0.0,0.0,0.0,0.0,0.0,0.0,0.0,0.0,0.0,0.0,0.0538,-0.0717,-0.1345,-0.1524,0.0,0.0,0.0,0.0,0.0,0.0,0.0,0.0,0.0,0.0,0.0,0.0,0.0,0.0,0.0,0.0,0.0,0.0,0.0,0.0,0.0,0.0,0.0,0.0,0.0,0.0,0.0,0.0,0.0,0.0,0.0,0.0,0.0,0.0,0.0,0.0,0.0,0.0,0.0,0.0,0.0,0.0,0.0,0.0,-0.947,-0.9169,0.0,0.0,0.0,0.0,0.0,0.0,0.0,0.0,0.0,0.0,0.0,0.0,0.0,-1.3055,-1.2861,-1.2861,-1.2861,-1.2861,-1.2861,-1.305,-1.3335,-1.3352,-1.4304,-1.592,-1.4867,0.0,-1.9729,-1.9911,0.0,0.0,0.0,0.0,0.0,0.0,0.0,0.0,0.0,0.0,0.0,0.0,0.0,0.0,0.0,0.0,0.0,0.0,0.0,0.0,0.0,0.0,0.0,0.0,0.0,0.0,0.0,0.0,0.0,0.0,0.0,0.0,0.0,0.0,0.0,0.0,0.313,0.2148,0.0896,-0.0179,-0.1075,-0.1705,-0.3671,-0.4654,-0.4921,-0.491,0.0,0.0,0.0,0.0,0.0,0.0,0.0,0.0,0.0,0.0,0.0,0.0,0.0,0.0,0.0,0.0,0.0,0.0,0.0,0.0,0.0,0.0,0.0,0.0,0.0,0.0,0.0,0.0,0.0,0.0,0.0,0.0,0.0,0.0,0.0,0.0,0.0,0.0,0.0,-0.958,-0.9431,-0.9254,-0.9337,-0.9731,0.0,0.0,0.0,0.0,0.0,0.0,0.0,0.0,0.0,-1.3539,-1.3249,-1.2953,-1.2764,-1.2764,-1.2764,-1.2764,-1.2764,-1.2953,-1.3238,-1.3908,-1.5045,-1.6452,-1.6734,-1.8133,-2.0201,-1.9271,-1.9088,-1.9471,0.0,0.0,0.0,0.0,-2.0163,-1.9984,0.0,0.0,0.0,0.0,0.0,0.0,0.0,0.0,0.0,0.0,0.0,0.0,0.0,0.0,0.0,0.3047,0.0,0.0,0.0,0.0,0.0,0.0,0.0,0.0,0.0,0.0,0.0,0.0,0.4022,0.304,0.1253,0.0179,-0.0806,-0.1794,-0.3314,-0.4117,-0.4208,-0.4732,-0.4999,0.0,0.0,0.0,0.0,0.0,0.0,0.0,0.0,0.0,0.0,0.0,0.0,0.0,0.0,0.0,0.0,0.0,0.0,0.0,0.0,0.0,0.0,0.0,0.0,0.0,0.0,0.0,0.0,0.0,0.0,0.0,0.0,0.0,0.0,0.0,0.0,0.0,0.0,-0.9677,-0.9409,-0.9414,-0.9315,-0.9707,0.0,0.0,0.0,0.0,0.0,0.0,-1.4298,-1.4022,-1.3738,-1.3539,-1.3147,-1.2953,-1.2764,-1.2764,-1.2764,-1.2764,-1.2764,-1.2953,-1.3147,-1.3998,-1.5127,-1.6432,-1.7569,-1.8603,-1.9546,-1.8711,-1.8719,-1.9288,-2.0019,-2.0232,-2.0155,-2.0155,-1.9915,-1.9598,0.0,0.0,0.0,0.0,0.0,0.0,0.0,0.0,0.0,0.0,0.0,0.0,0.0,0.0,0.1793,0.2868,0.2867,0.3401,0.0,0.0,0.0,0.0,0.0,0.0,0.0,0.0,0.0,0.527,0.5087,0.384,0.17,0.0537,-0.0537,-0.1524,-0.3403,-0.4119,-0.3939,-0.3937,-0.4561,-0.5359,0.0,0.0,0.0,0.0,0.0,0.0,0.0,0.0,0.0,0.0,0.0,0.0,0.0,0.0,0.0,0.0,0.0,0.0,0.0,0.0,0.0,0.0,0.0,0.0,0.0,0.0,0.0,0.0,0.0,0.0,0.0,0.0,0.0,0.0,0.0,0.0,0.0,0.0,0.0,-0.9315,-0.9209,0.0,0.0,0.0,0.0,-1.41,-1.4298,-1.4298,-1.4298,-1.3823,-1.3539,-1.3539,-1.3055,-1.2764,-1.2764,-1.2764,-1.2764,-1.2764,-1.2764,-1.2953,-1.3147,-1.2953,-1.3715,-1.5134,-1.5697,-1.6648,-1.7963,-1.9546,-2.0201,-2.0201,-2.0292,-2.0078,-1.9769,-1.9769,-1.953,-1.9204,0.0,0.0,0.0,0.0,0.0,0.0,0.0,0.0,0.0,0.0,0.0,0.0,0.0,0.0897,0.2151,0.3937,0.3935,0.4732,0.6949,0.0,0.0,0.0,0.0,0.0,0.0,0.0,0.6874,0.6346,0.6074,0.5001,0.3132,0.2415,0.1163,-0.0538,-0.2326,-0.3487,-0.4289,-0.5797,-0.6242,-0.616,-0.7309,-0.7485,0.0,0.0,0.0,0.0,0.0,0.0,0.0,0.0,0.0,0.0,0.0,0.0,0.0,0.0,0.0,0.0,0.0,0.0,0.0,0.0,0.0,0.0,0.0,0.0,0.0,0.0,0.0,0.0,0.0,0.0,0.0,0.0,0.0,0.0,0.0,0.0,0.0,-0.9044,-0.9409,0.0,-1.1463,-1.2145,-1.3028,-1.4196,-1.4112,-1.4022,-1.4022,-1.3539,-1.3244,-1.3244,-1.2953,-1.2764,-1.2764,-1.2764,-1.2764,-1.2764,-1.2764,-1.2861,-1.2953,-1.3613,-1.4561,-1.5609,-1.6553,-1.7598,-1.845,-1.9096,-1.9554,-1.992,-2.0201,-2.0069,-1.9744,-1.9744,-1.9341,-1.8793,0.0,0.0,0.0,0.0,0.0,0.0,0.0,0.0,0.0,0.0,0.0,-0.0806,0.0628,0.1166,0.2239,0.438,0.4378,0.5442,0.8021,0.0,0.0,0.0,0.0,0.0,0.0,0.7217,0.7104,0.6881,0.652,0.5539,0.3846,0.3398,0.2057,-0.009,-0.1788,-0.3126,-0.4287,-0.6593,-0.7309,-0.6962,-0.846,-0.8548,-0.8021,0.0,0.0,0.0,0.0,0.0,0.0,0.0,0.0,0.0,0.0,0.0,0.0,0.0,0.0,0.0,0.0,0.0,0.0,0.0,0.0,0.0,0.0,0.0,0.0,0.0,0.0,0.0,0.0,0.0,0.0,0.0,0.0,0.0,0.0,-0.9099,-0.875,-0.8866,-0.9559,-1.0386,-1.1468,-1.2441,-1.3318,-1.4202,-1.4022,-1.3931,-1.3931,-1.3346,-1.3147,-1.3147,-1.2861,-1.2764,-1.2764,-1.2764,-1.2764,-1.2764,-1.2764,-1.2764,-1.2861,-1.3613,-1.4465,-1.5229,-1.6553,-1.7498,-1.8164,-1.8643,-1.9012,-1.9371,-1.9828,-1.9881,-1.9744,-1.9744,-1.9333,-1.8768,0.0,0.0,0.0,0.0,0.0,0.0,0.0,0.0,0.0,0.0,0.0,-0.0448,0.1166,0.1346,0.215,0.4111,0.0,0.0,0.0,0.7058,0.0,0.0,0.0,0.0,0.7468,0.7468,0.7302,0.7146,0.6704,0.5539,0.3838,0.3396,0.2057,-0.009,-0.1699,-0.3037,-0.4105,-0.6245,-0.7404,-0.7937,-0.8803,-0.9069,-0.8999,0.0,0.0,0.0,0.0,0.0,0.0,0.0,0.0,0.0,0.0,0.0,0.0,0.0,0.0,0.0,0.0,0.0,0.0,0.0,0.0,0.0,0.0,0.0,0.0,0.0,0.0,0.0,0.0,0.0,0.0,0.0,0.0,0.0,-0.8836,-0.896,-0.8897,-0.8711,-0.9477,-1.0373,-1.1453,-1.2231,-1.3113,-1.4196,-1.4022,-1.3931,-1.3931,-1.3346,-1.305,-1.305,-1.2861,-1.2764,-1.2764,-1.2764,-1.2764,-1.2764,-1.2764,-1.2764,-1.2861,-1.2861,-1.3238,-1.3998,-1.5324,-1.6271,-1.703,-1.8257,-1.8827,-1.8827,-1.9371,-1.9611,-1.9655,-1.9655,-1.9504,-1.9119,0.0,0.0,0.0,0.0,0.0,0.0,0.0,0.0,0.0,0.0,-0.1524,-0.0718,0.0269,0.0987,0.215,0.0,0.0,0.0,0.0,0.0,0.0,0.0,0.0,0.0,0.8733,0.8366,0.8,0.7642,0.7382,0.5978,0.3666,0.3937,0.2774,0.0448,-0.1073,-0.2677,-0.4548,-0.6681,-0.8105,-0.8907,-0.9165,-0.9428,-0.9689,0.0,0.0,0.0,0.0,0.0,0.0,0.0,0.0,0.0,0.0,0.0,0.0,0.0,0.0,0.0,0.0,0.0,0.0,0.0,0.0,0.0,0.0,0.0,0.0,0.0,0.0,0.0,0.0,0.0,0.0,0.0,-0.8937,-0.8637,-0.8718,-0.8364,-0.8022,-0.7959,-0.9443,-1.031,-1.0066,-1.2189,-1.3417,-1.3204,-1.3431,-1.3636,-1.3636,-1.3152,-1.2856,-1.2856,-1.2861,-1.2764,-1.2764,-1.2764,-1.2764,-1.2764,-1.2764,-1.305,-1.3619,-1.3619,-1.4286,-1.5615,-1.59,-1.6473,-1.7232,-1.7986,-1.8458,-1.8827,-1.892,-1.9068,-1.9204,-1.9204,-1.9233,-1.9153,0.0,0.0,0.0,0.0,0.0,0.0,0.0,0.0,0.0,0.0,-0.1881,-0.1165,-0.009,0.0452,0.0,0.0,0.0,0.0,0.0,0.0,0.0,0.0,0.0,0.8493,0.8974,0.8878,0.8695,0.8321,0.7464,0.5971,0.397,0.3763,0.2616,0.0612,-0.0697,-0.2347,-0.4342,-0.6328,-0.8056,-0.9361,-0.97,-1.0043,-1.0381,-1.0376,-1.0376,-1.0376,-1.0376,-1.0289,-1.0366,-1.1408,0.0,0.0,0.0,0.0,0.0,0.0,0.0,0.0,0.0,0.0,0.0,0.0,0.0,0.0,0.0,0.0,0.0,0.0,0.0,0.0,0.0,0.0,0.0,0.0,-0.8552,-0.8182,-0.8197,-0.7927,-0.7671,-0.7492,-0.9465,-1.0444,-0.9515,-1.2278,-1.3648,-1.2624,-1.3136,-1.3443,-1.3346,-1.2958,-1.2764,-1.2764,-1.2764,-1.2807,-1.2795,-1.2795,-1.2854,-1.2956,-1.2956,-1.3391,-1.406,-1.406,-1.4871,-1.619,-1.619,-1.6662,-1.7326,-1.7613,-1.7893,0.0,0.0,0.0,0.0,0.0,-1.9462,-1.941,0.0,0.0,0.0,0.0,0.0,0.0,0.0,0.0,0.0,0.0,0.0,-0.1703,-0.027,-0.0091,0.0,0.0,0.0,0.0,0.0,0.0,0.0,0.7722,0.8501,0.9003,0.9125,0.9388,0.9379,0.892,0.7267,0.5809,0.4413,0.3389,0.21,0.0674,-0.0504,-0.2012,-0.3926,-0.5756,-0.7581,-0.9505,-1.0357,-1.0826,-1.1123,-1.1144,-1.1154,-1.1154,-1.0982,-1.0982,-1.1241,-1.202,0.0,0.0,0.0,0.0,0.0,0.0,0.0,0.0,0.0,0.0,0.0,0.0,0.0,0.0,0.0,0.0,0.0,0.0,0.0,0.0,0.0,0.0,0.0,0.0,-0.8028,-0.7507,-0.7507,-0.7635,-0.764,-0.7461,-0.9363,-1.0423,-0.9523,-1.2177,-1.3584,-1.2441,-1.3044,-1.3346,-1.3147,-1.2883,0.0,0.0,0.0,-1.2822,-1.2778,-1.2783,-1.2984,-1.318,-1.3206,-1.3707,-1.4481,-1.4511,-1.518,-1.6388,-1.6448,-1.6718,-1.7384,-1.734,-1.7419,-1.7699,-1.8996,-1.9828,-2.0201,-2.0292,-2.0086,-1.9804,0.0,0.0,0.0,0.0,0.0,0.0,0.0,0.0,0.0,-0.3587,-0.2777,-0.1892,-0.1191,-0.0461,0.0,0.0,0.0,0.5238,0.0,0.0,0.7432,0.829,0.8738,0.9612,1.0784,1.0508,0.9848,0.8918,0.8224,0.6502,0.3721,0.3558,0.2518,0.0674,-0.0504,-0.2261,-0.4502,-0.6245,-0.8151,-1.0065,-1.0843,-1.1249,-1.1573,-1.2111,-1.2277,-1.2186,-1.2534,-1.2448,-1.2015,-1.1499,-1.1068,-1.0626,-0.941,0.0,0.0,0.0,0.0,0.0,0.0,0.0,0.0,0.0,0.0,0.0,0.0,0.0,0.0,0.0,0.0,0.0,0.0,0.0,0.0,-0.8636,-0.8201,-0.7768,-0.7507,-0.7458,-0.7461,-0.737,-0.8504,-0.9292,-0.9403,-1.1277,-1.2437,-1.2431,-1.2845,-1.3147,-1.3147,-1.2926,-1.2824,-1.2824,-1.3015,-1.3042,-1.2783,-1.2998,-1.3248,-1.3434,0.0,0.0,-1.5275,-1.5494,-1.6467,-1.7898,-1.7638,-1.7529,-1.7706,-1.7912,-1.8442,-1.918,-1.9004,-1.9279,-1.9828,-2.0201,-2.0249,-2.0189,0.0,0.0,0.0,0.0,0.0,0.0,0.0,0.0,0.0,0.0,-0.3372,-0.239,-0.179,-0.0986,0.0,0.0,0.4766,0.0,0.0,0.7058,0.7524,0.8577,0.9298,0.999,1.0975,1.088,1.037,0.9376,0.8491,0.6678,0.4168,0.358,0.2298,0.0488,-0.0406,-0.1945,-0.3957,-0.5713,-0.7549,-0.9409,-1.0723,-1.1408,-1.1641,-1.2278,-1.2675,-1.2881,-1.3052,-1.3052,-1.279,-1.1843,-1.1063,-1.0279,-0.9061,-0.8636,-0.8552,0.0,0.0,0.0,0.0,0.0,0.0,0.0,0.0,0.0,0.0,0.0,0.0,0.0,0.0,-0.9689,-0.9345,0.0,-0.8468,-0.8288,-0.7848,-0.7524,-0.7431,-0.7416,-0.737,-0.7191,-0.8321,-0.8859,-0.8272,-1.0669,-1.193,-1.1258,-1.2459,-1.3177,-1.2964,-1.2974,-1.2945,-1.2827,-1.3055,-1.3325,-1.3535,-1.3209,-1.3004,-1.3125,-1.3233,-1.4019,-1.5477,-1.5617,-1.6393,-1.7808,-1.764,-1.7574,-1.756,-1.768,-1.8164,-1.8819,-1.855,-1.9096,-1.992,-1.992,-2.011,-2.0292,0.0,0.0,0.0,0.0,0.0,0.0,0.0,0.0,0.0,0.0,0.0,-0.287,-0.2185,-0.148,0.0173,0.0,0.0,0.0,0.0,0.7044,0.7634,0.8918,0.9732,1.0372,1.0727,1.1068,1.0809,0.9859,0.8533,0.6905,0.4929,0.36,0.2003,0.0236,-0.0314,-0.1646,-0.3519,-0.5129,-0.69,-0.878,-1.0357,-1.1171,-1.1504,-1.1978,-1.2569,-1.3153,-1.3203,-1.3222,-1.3137,-1.2015,-1.1144,-1.0188,-0.9065,-0.8456,-0.8288,-0.846,-0.9074,0.0,0.0,0.0,0.0,0.0,0.0,0.0,0.0,-1.0906,-1.0376,-1.012,-0.9777,-0.9257,-0.8911,-0.8468,-0.8113,-0.794,-0.7524,-0.7227,-0.7353,-0.7421,-0.7273,-0.7003,-0.823,-0.8586,-0.7466,-1.0099,-1.1463,-1.0391,-1.2231,-1.3155,-1.2775,-1.298,-1.3017,-1.2829,-1.2981,-1.3391,-1.3968,-1.3214,-1.2857,-1.2791,-1.2832,-1.3674,-1.5189,-1.5442,-1.6115,-1.7319,-1.7356,-1.7384,-1.7326,-1.7326,-1.7613,-1.8087,-1.7994,-1.8819,-2.0019,-1.9737,-1.992,-2.0292,0.0,0.0,0.0,0.0,0.0,0.0,0.0,0.0,0.0,0.0,0.0,0.0,0.0,0.0,0.0,0.0,0.0,0.0,0.6902,0.707,0.7933,0.9694,0.9873,1.0299,1.1241,1.1241,1.0722,0.9602,0.8974,0.7418,0.5256,0.408,0.2398,0.0236,-0.0314,-0.2035,-0.4598,-0.5286,-0.7134,-0.9544,-1.01,-1.0696,-1.1313,-1.1615,-1.1968,-1.2474,-1.3134,-1.3307,-1.2881,-1.1068,-1.0722,-1.0549,-0.864,-0.8116,-0.8288,-0.8732,-0.917,-0.9593,-0.947,-0.9826,-1.0188,-1.0193,-1.0366,-1.0549,0.0,-1.0125,-0.9951,-0.9519,-0.8999,-0.8652,-0.8656,-0.838,-0.8113,-0.794,-0.7792,-0.7619,-0.7461,-0.7412,-0.7286,-0.7003,-0.7411,-0.7858,-0.8572,-0.9587,-1.0583,-1.1365,-1.2288,-1.2889,-1.2764,-1.287,-1.2872,-1.2846,-1.2845,-1.2866,-1.2998,-1.3104,-1.3017,-1.284,-1.3044,-1.3629,-1.4499,-1.5426,-1.6321,-1.7182,-1.7592,-1.7596,-1.7326,-1.7326,-1.7613,-1.8087,-1.7613,-1.8079,-1.9012,-1.9463,-1.992,-2.0292,0.0,0.0,0.0,0.0,0.0,0.0,0.0,0.0,0.0,0.0,0.0,0.0,0.0,0.0,0.0,0.0,0.0,0.0,0.6788,0.6973,0.7925,0.9836,0.9923,1.0361,1.1322,1.1327,1.0722,0.9602,0.926,0.7765,0.5256,0.4465,0.2671,0.0079,-0.0393,-0.1724,-0.3675,-0.5132,-0.6747,-0.8461,-0.983,-1.0657,-1.1082,-1.1426,-1.1768,-1.2143,-1.2987,-1.2954,0.0,0.0,-1.0371,-0.9763,-0.8644,-0.838,-0.8552,-0.8995,-0.9257,-0.9428,-0.9497,-0.9492,-0.9671,-1.0193,-1.0115,-0.9951,-1.0294,-0.9951,-0.9519,-0.9349,-0.8915,-0.8564,-0.8384,-0.8204,-0.794,-0.768,-0.7541,-0.7492,-0.7492,-0.7495,-0.7362,-0.7146,-0.706,-0.7372,-0.8212,-0.9304,-1.0288,-1.1058,-1.2278,-1.3002,-1.277,-1.3303,-1.3364,-1.2806,-1.2793,-1.2798,-1.2801,-1.2904,-1.2959,-1.2764,-1.2861,-1.3584,-1.4849,-1.5246,-1.6075,-1.7241,-1.7399,-1.7457,-1.7326,-1.7326,-1.7419,-1.7613,-1.7426,-1.7707,-1.8458,-1.8635,-1.9004,-1.9471,0.0,0.0,0.0,0.0,0.0,0.0,0.0,0.0,0.0,0.0,0.0,0.0,0.0,0.0,0.0,0.0,0.0,0.0,0.0,0.7025,0.7967,1.0009,1.0009,0.0,1.1068,1.1241,1.0722,0.9602,0.9432,0.7924,0.5256,0.4589,0.2776,0.0,-0.0393,-0.1568,-0.3366,-0.498,-0.6597,-0.8228,-0.9604,-1.0443,-1.0842,-1.1177,-1.148,-1.1798,-1.2665,-1.2638,0.0,0.0,-1.0197,-0.9327,-0.8736,-0.856,-0.8727,-0.9174,-0.9432,-0.9519,-0.9694,-0.951,-0.9506,-1.0115,-0.9864,-0.9519,-1.0294,-0.9864,-0.9262,-0.9262,-0.8823,-0.8472,-0.8201,-0.794,-0.7694,-0.756,-0.7427,-0.7393,-0.7543,-0.7398,-0.7229,-0.7126,-0.6842,-0.7036,-0.7925,-0.9004,-0.9981,-1.076,-1.2205,-1.304,-1.277,-1.345,-1.3467,-1.2867,-1.2764,-1.2764,-1.2764,-1.2764,-1.2764,-1.2764,-1.2764,-1.3335,-1.4484,-1.486,-1.5906,-1.7326,-1.7326,-1.7326,-1.7326,-1.7326,-1.7326,-1.7326,-1.7326,-1.752,-1.7893,-1.7893,-1.8265,-1.8827,0.0,0.0,0.0,0.0,0.0,0.0,0.0,0.0,0.0,0.0,0.0,0.0,0.0,0.0,0.0,0.0,0.0,0.0,0.0,0.7264,0.8025,1.0453,1.0101,1.0101,1.0636,1.1068,1.0722,0.9602,0.9432,0.7924,0.5256,0.4589,0.2776,0.0,-0.0393,-0.2035,-0.437,-0.4833,-0.6754,-0.9523,-0.9392,-0.9916,-1.0767,-1.0638,-1.0818,-1.121,-1.2306,0.0,0.0,0.0,-1.0289,-0.9685,-0.8828,-0.8568,0.0,-0.9174,-0.9607,-0.9951,-0.9951,-0.9694,-0.9345,-0.9602,-0.9524,-0.9616,-0.9956,-0.9607,-0.9262,-0.9262,-0.8732,-0.8201,-0.8201,-0.7852,-0.7553,-0.7699,-0.7389,-0.7256,-0.7401,-0.7054,-0.6839,-0.6842,-0.6539,-0.6833,-0.7922,-0.8297,-0.9276,-1.1068,-1.217,-1.277,-1.2764,-1.2867,-1.2872,-1.2764,-1.2764,-1.2764,-1.2764,-1.2764,-1.2764,-1.2764,-1.2764,-1.2861,-1.2958,-1.4388,-1.5906,-1.7326,-1.7326,-1.7326,-1.7326,-1.7326,-1.7326,-1.7326,-1.7326,-1.7333,-1.7326,-1.7326,-1.7986,-1.8827,0.0,0.0,0.0,0.0,0.0,0.0,0.0,0.0,0.0,0.0,0.0,0.0,0.0,0.0,0.0,0.0,0.0,0.0,0.0,0.7199,0.8134,0.9298,1.0034,1.0458,1.0636,1.0722,1.0463,0.9602,0.9432,0.7924,0.5256,0.4758,0.2939,0.0157,-0.0863,-0.2115,-0.3675,-0.5143,-0.7065,-0.8988,-0.9236,-0.9992,-1.0974,-1.0534,-1.0363,-1.0372,0.0,0.0,0.0,-0.9885,-0.924,-0.8723,-0.8652,-0.8652,-0.8915,-0.9266,-0.9529,-0.9703,-0.9625,-0.9266,-0.8903,-0.9345,-0.9174,-0.9003,-0.9432,-0.9174,-0.8828,-0.8828,-0.8652,-0.8384,-0.8201,-0.794,-0.7731,-0.7702,-0.7396,-0.7263,-0.7408,-0.706,-0.6845,-0.6845,-0.6539,-0.6833,-0.7922,-0.8297,-0.9583,-1.2114,-1.2581,-1.2764,-1.2764,-1.2764,-1.2764,-1.2764,-1.2764,-1.2764,-1.2764,-1.2764,-1.2764,-1.2764,-1.3335,-1.3811,-1.4388,-1.5337,-1.6379,-1.7326,-1.7326,-1.7326,-1.7326,-1.7326,-1.7326,-1.7326,-1.7326,-1.7326,-1.7326,-1.7326,-1.7512,-1.7893,0.0,0.0,0.0,0.0,0.0,0.0,0.0,0.0,0.0,0.0,0.0,0.0,0.0,0.0,0.0,0.0,0.0,0.0,0.0,0.0,0.7528,0.8429,0.9384,0.9808,0.9656,1.0086,0.9881,0.9046,0.8949,0.775,0.5366,0.5074,0.3428,0.0706,-0.0627,-0.2034,-0.3443,-0.5223,-0.7218,-0.921,-0.9079,-0.9911,-1.1186,-1.0062,-0.9627,0.0,0.0,0.0,0.0,-0.924,-0.8839,-0.838,-0.8564,-0.8744,-0.8832,-0.8464,-0.8823,-0.9187,-0.8736,-0.8732,-0.8819,-0.8999,-0.8828,-0.8656,-0.8999,-0.8828,-0.8568,-0.8568,-0.8564,-0.8384,-0.8116,-0.794,-0.7749,-0.7502,-0.7246,-0.7092,-0.7183,-0.6889,-0.6642,-0.6642,-0.6537,-0.6833,-0.7922,-0.8297,-0.9481,-1.1903,-1.2478,-1.2764,-1.2764,-1.2764,-1.2764,-1.2764,-1.2764,-1.2764,-1.2764,-1.2764,-1.2764,-1.2764,-1.3238,-1.41,-1.5146,-1.5622,-1.6379,-1.7326,-1.7326,-1.7326,-1.7326,-1.7326,-1.7326,-1.7326,-1.7326,-1.7326,-1.7326,-1.7326,-1.726,-1.725,0.0,0.0,0.0,0.0,0.0,0.0,0.0,0.0,0.0,0.0,0.0,0.0,0.0,0.0,0.0,0.0,0.0,0.0,0.0,0.0,0.0,0.7824,0.8245,0.8348,0.7851,0.9025,0.9099,0.8098,0.8191,0.7253,0.5502,0.5369,0.3912,0.1411,-0.0078,-0.1874,-0.383,-0.5154,-0.7452,-1.004,-0.8927,-0.9755,-1.1403,-0.9453,0.0,0.0,0.0,0.0,0.0,-0.8981,-0.8931,-0.8568,-0.8568,-0.8668,-0.8496,-0.6864,-0.7588,-0.858,-0.7383,-0.7918,-0.8828,-0.8564,-0.8568,-0.8568,-0.8568,-0.8568,-0.8568,-0.8568,-0.8384,-0.8113,-0.794,-0.768,-0.7427,-0.7263,-0.6932,-0.6745,-0.6807,-0.6539,-0.6437,-0.6437,-0.6437,-0.6833,-0.7922,-0.84,-0.9276,-1.0556,-1.1955,-1.2764,-1.2764,-1.2764,-1.2764,-1.2764,-1.2764,-1.2764,-1.2764,-1.2764,-1.2764,-1.2764,-1.2764,-1.3624,-1.5051,-1.5051,-1.5906,-1.7326,-1.7326,-1.7326,-1.7326,-1.7326,-1.7326,-1.7326,-1.7326,-1.7326,-1.7326,-1.7311,-1.7113,-1.6941,0.0,0.0,0.0,0.0,0.0,0.0,0.0,0.0,0.0,0.0,0.0,0.0,0.0,0.0,0.0,0.0,0.0,0.0,0.0,0.0,0.0,0.0,0.0,0.0,0.0,0.0,0.0,0.0,0.0,0.5812,0.3966,0.3256,0.1931,0.0,-0.1877,-0.3279,-0.4373,-0.6237,-0.8003,-0.9523,0.0,-0.9604,-1.0663,0.0,0.0,0.0,0.0,0.0,0.0,-0.8197,-0.8524,-0.8488,-0.7753,-0.7118,-0.6554,-0.6002,-0.6496,-0.7015,-0.6263,-0.6949,-0.7845,-0.7757,-0.8208,-0.8568,-0.8568,-0.8568,-0.8568,-0.8568,-0.8384,-0.8201,-0.8113,-0.7584,-0.7241,-0.7359,-0.6932,-0.6547,-0.6807,-0.6539,-0.6437,-0.6437,-0.6437,-0.6833,-0.7922,-0.9324,-1.0306,-1.0658,-1.1955,-1.2764,-1.2764,-1.2764,-1.2764,-1.2764,-1.2764,-1.2764,-1.2764,-1.2764,-1.2764,-1.2764,-1.2764,-1.3624,-1.5051,-1.5051,-1.5906,-1.7326,-1.7326,-1.7326,-1.7326,-1.7326,-1.7326,-1.7326,-1.7326,-1.7326,-1.7304,-1.7062,-1.6923,-1.6791,0.0,0.0,0.0,0.0,0.0,0.0,0.0,0.0,0.0,0.0,0.0,0.0,0.0,0.0,0.0,0.0,0.0,0.0,0.0,0.0,0.0,0.0,0.0,0.0,0.0,0.0,0.0,0.0,0.0,0.0,0.0,0.2658,0.144,-0.0235,-0.1798,-0.3279,-0.4608,0.0,0.0,0.0,0.0,0.0,0.0,0.0,0.0,0.0,0.0,0.0,0.0,-0.7599,-0.7757,-0.7764,-0.6773,-0.6207,-0.5716,-0.5201,-0.5589,-0.6082,-0.5646,-0.6514,-0.7489,-0.7489,-0.7937,-0.8472,-0.8568,-0.8476,-0.8472,-0.8568,-0.8384,-0.8201,-0.8113,-0.7496,-0.7151,-0.7172,-0.6744,-0.6449,-0.6606,-0.6537,-0.6437,-0.6437,-0.6437,-0.7033,-0.8517,-0.9624,-1.0609,-1.156,-1.2355,-1.2764,-1.2764,-1.2764,-1.2764,-1.2764,-1.2764,-1.2764,-1.2764,-1.2764,-1.2764,-1.2764,-1.2764,-1.3624,-1.5051,-1.5051,-1.5906,-1.7326,-1.7326,-1.7326,-1.7326,-1.7326,-1.7326,-1.7326,-1.7326,-1.7326,-1.7311,-1.7128,-1.6887,-1.6594,0.0,0.0,0.0,0.0,0.0,0.0,0.0,0.0,0.0,0.0,0.0,0.0,0.0,0.0,0.0,0.0,0.0,0.0,0.0,0.0,0.0,0.0,0.0,0.0,0.0,0.0,0.0,0.0,0.0,0.0,0.0,0.0,0.0,0.0,0.0,0.0,0.0,0.0,0.0,0.0,0.0,0.0,0.0,0.0,0.0,0.0,0.0,0.0,0.0,-0.7305,-0.7129,-0.6861,-0.5797,-0.5552,-0.5394,-0.4572,-0.4846,-0.5484,-0.5287,-0.6254,-0.7224,-0.7312,-0.7669,-0.8113,-0.8476,-0.8384,-0.8288,-0.8564,-0.8384,-0.8113,-0.7852,-0.7408,-0.6969,-0.6795,-0.6552,-0.6353,-0.6404,-0.6437,-0.6437,-0.6437,-0.6437,-0.7229,-0.9312,-0.9509,-1.0395,-1.2467,-1.2667,-1.2667,-1.2667,-1.2662,-1.2662,-1.2667,-1.2667,-1.2764,-1.2764,-1.2764,-1.2764,-1.2764,-1.2764,-1.3528,-1.4956,-1.5051,-1.5812,-1.7138,-1.7239,-1.7326,-1.7326,-1.7326,-1.7326,-1.7326,-1.7326,-1.7326,-1.7326,-1.7282,-1.6887,-1.636,0.0,0.0,0.0,0.0,0.0,0.0,0.0,0.0,0.0,0.0,-0.2117,0.0,0.0,0.0,0.0,0.0,0.0,0.0,0.0,0.0,0.0,0.0,0.0,0.0,0.0,0.0,0.0,0.0,0.0,0.0,0.0,0.0,0.0,0.0,0.0,0.0,0.0,0.0,0.0,0.0,0.0,0.0,0.0,0.0,0.0,0.0,0.0,0.0,0.0,0.0,-0.7061,-0.626,-0.5001,-0.4615,-0.4671,-0.4412,-0.4443,-0.4578,-0.4499,-0.5102,-0.5902,-0.6428,-0.6959,-0.7496,-0.8388,-0.8384,-0.8288,-0.8564,-0.8296,-0.7852,-0.758,-0.6959,-0.652,-0.6508,-0.6272,-0.6168,-0.6401,-0.6437,-0.6437,-0.6437,-0.6437,-0.7033,-0.8821,-0.9316,-1.0105,-1.1389,-1.1883,-1.2175,-1.2175,-1.1683,-1.1683,-1.2078,-1.2175,-1.237,-1.2764,-1.2764,-1.2764,-1.2764,-1.2764,-1.3244,-1.4094,-1.4765,-1.5527,-1.6379,-1.7044,0.0,-1.7326,-1.7326,-1.7326,-1.7326,-1.7326,-1.7326,-1.7296,-1.7033,-1.6696,-1.633,0.0,0.0,0.0,0.0,0.0,0.0,0.0,0.0,0.0,0.0,-0.1426,-0.0795,0.0,0.0,0.0,0.0,0.0,0.0,0.0,0.0,0.0,0.0,0.0,0.0,0.0,0.0,0.2973,0.2507,0.0,0.0,0.0,-0.0864,-0.1805,0.0,0.0,0.0,0.0,0.0,0.0,0.0,0.0,0.0,0.0,0.0,0.0,0.0,0.0,0.0,0.0,0.0,-0.6077,-0.5099,-0.4914,-0.4322,-0.3631,-0.3593,-0.3791,-0.3995,-0.3954,-0.4476,-0.5097,-0.5361,-0.5983,-0.6782,-0.7492,-0.7848,-0.8116,-0.8384,-0.8116,-0.7764,-0.7404,-0.6782,-0.6427,-0.6415,-0.6272,-0.6168,-0.6401,-0.6437,-0.6437,-0.6437,-0.6292,-0.681,-0.8035,-0.8696,-0.9506,-1.0502,-1.0895,-1.1292,-1.159,-1.1296,-1.1292,-1.159,-1.1883,-1.2078,-1.237,-1.2662,-1.2764,-1.2764,-1.2764,-1.3147,-1.3902,-1.4765,-1.5527,-1.6285,-1.6951,-1.7326,-1.7326,-1.7326,-1.7326,-1.7326,-1.7326,-1.7326,-1.7311,-1.7157,-1.6791,-1.6345,0.0,0.0,0.0,0.0,0.0,0.0,0.0,-0.5332,-0.4171,-0.1736,-0.0886,-0.0244,0.0479,0.1673,0.2629,0.0,0.0,0.0,0.0,0.0,0.0,0.0,0.0,0.0,0.0,0.0,0.0,0.158,0.0943,0.0,0.0,0.0,0.0,0.0,-0.4064,-0.5381,0.0,0.0,0.0,0.0,0.0,0.0,0.0,0.0,0.0,0.0,0.0,0.0,0.0,0.0,-0.5095,-0.4026,-0.4736,-0.4115,-0.3047,-0.2957,-0.3227,-0.3587,-0.3497,-0.3849,-0.4291,-0.4383,-0.5181,-0.598,-0.6599,-0.7316,-0.7852,-0.8116,-0.7937,-0.7588,-0.7143,-0.6609,-0.6332,-0.6284,-0.6158,-0.6159,-0.6372,-0.662,-0.6734,-0.6537,-0.6545,-0.6774,-0.7543,-0.816,-0.8892,-0.962,-1.001,-1.0413,-1.0801,-1.0904,-1.09,-1.0998,-1.1487,-1.1785,-1.198,-1.237,-1.2667,-1.2764,-1.2764,-1.3147,-1.3902,-1.4765,-1.5527,-1.6285,-1.6951,-1.7326,-1.7326,-1.7326,-1.7326,-1.7326,-1.7326,-1.7326,-1.7326,-1.7326,-1.6923,-1.6367,0.0,0.0,0.0,0.0,0.0,0.0,0.0,-0.6195,-0.4996,-0.2104,-0.0989,0.0,0.1086,0.1754,0.2672,0.0,0.0,0.0,0.0,0.0,0.0,0.0,0.0,0.0,0.0,0.0,0.0,0.0568,0.0079,0.0,0.0,0.0,0.0,0.0,0.0,-0.6468,-0.7015,0.0,0.0,0.0,0.0,0.0,0.0,0.0,0.0,0.0,0.0,-0.7191,-0.6877,-0.6346,-0.5097,-0.3849,-0.3758,-0.3671,-0.3497,-0.3227,-0.3406,-0.3497,-0.3047,-0.3045,-0.3224,-0.3849,-0.4563,-0.5361,-0.6239,-0.7048,-0.7591,-0.7852,-0.7496,-0.7143,-0.6881,-0.6438,-0.6126,-0.599,-0.6013,-0.6132,-0.6265,-0.7156,-0.7627,-0.7135,-0.7449,-0.7677,-0.7643,-0.816,-0.8592,-0.8542,-0.9229,-0.9727,-0.9723,-0.9723,-0.992,-1.0413,-1.0511,-1.0998,-1.198,-1.2078,-1.2273,-1.2764,-1.2764,-1.3147,-1.3902,-1.4765,-1.5527,-1.6285,-1.6951,-1.7326,0.0,-1.7326,-1.7326,-1.7326,-1.7326,-1.7326,-1.7326,-1.7326,-1.6923,-1.6367,0.0,0.0,0.0,0.0,0.0,0.0,0.0,-0.6961,-0.5192,-0.2147,-0.0675,0.0769,0.2566,0.329,0.38,0.0,0.0,0.0,0.0,0.0,0.0,0.0,0.0,0.0,0.0,0.0,0.0576,0.0166,-0.0244,0.0,0.0,0.0,0.0,0.0,0.0,-0.7242,-0.8012,-0.8713,0.0,0.0,0.0,0.0,0.0,0.0,0.0,0.0,0.0,0.0,-0.6071,-0.5899,-0.4652,-0.3048,-0.3138,-0.3138,-0.3048,-0.2511,-0.2602,-0.2871,-0.2601,-0.2511,-0.2511,-0.278,-0.3758,-0.4736,-0.5179,-0.6428,-0.7503,-0.7411,-0.7231,-0.6962,-0.6438,-0.626,-0.6034,-0.5885,-0.6005,-0.6127,-0.6052,-0.6462,-0.6836,-0.6942,-0.7115,-0.7259,-0.7553,-0.8241,-0.8798,-0.9149,-0.9426,-0.9628,-0.9628,-0.9628,-0.9727,-0.992,-1.0216,-1.0609,-1.0998,-1.1683,-1.2078,-1.2273,-1.2667,-1.3147,-1.3902,-1.4765,-1.5527,-1.6285,-1.6951,-1.7326,0.0,-1.7326,-1.7326,-1.7326,-1.7326,-1.7326,-1.7326,-1.7326,-1.6923,-1.6367,0.0,0.0,0.0,0.0,0.0,0.0,-0.9218,-0.7748,-0.5665,-0.2278,-0.0949,0.0525,0.2976,0.3901,0.433,0.4201,0.0,0.0,0.0,0.0,0.0,0.0,0.0,0.0,0.0,0.0,0.0338,-0.0085,-0.0582,-0.1232,0.0,0.0,-0.4384,-0.5647,0.0,0.0,0.0,0.0,0.0,0.0,0.0,0.0,0.0,0.0,0.0,0.0,0.0,0.0,0.0,0.0,0.0,-0.2694,-0.2873,0.0,0.0,-0.2154,-0.2243,-0.2424,-0.2154,-0.2064,-0.1974,-0.1974,-0.3133,-0.4378,-0.4469,-0.5985,-0.7238,-0.7054,-0.6877,-0.67,-0.6171,-0.5997,-0.5936,0.0,0.0,-0.5926,-0.5815,-0.6145,-0.6439,-0.6642,-0.6819,-0.7067,-0.7456,-0.8221,-0.8973,-0.9545,-0.9628,-0.9628,-0.9628,-0.9628,-0.9628,-0.9628,-0.992,-1.0216,-1.0413,-1.1194,-1.1688,-1.198,-1.237,-1.3141,-1.4286,-1.486,-1.5622,-1.6567,-1.7044,-1.7326,0.0,-1.7326,-1.7326,-1.7326,-1.7326,-1.7326,-1.7326,-1.7326,-1.6923,-1.6367,0.0,0.0,0.0,0.0,0.0,0.0,0.0,-0.8332,-0.6459,-0.2762,-0.2208,-0.1074,0.1524,0.2865,0.3935,0.4645,0.0,0.0,0.0,0.0,0.0,0.0,0.0,0.0,0.0,0.0,0.0,-0.0261,-0.102,-0.2098,-0.3434,-0.4513,-0.5758,-0.708,0.0,0.0,0.0,0.0,0.0,0.0,0.0,0.0,0.0,0.0,0.0,0.0,0.0,0.0,0.0,0.0,0.0,0.0,0.0,0.0,0.0,0.0,-0.2513,-0.2424,-0.1974,-0.1615,-0.1436,-0.1436,-0.2864,-0.4289,-0.4289,-0.5628,-0.6795,-0.6795,-0.6438,-0.6083,-0.6083,-0.5908,-0.5733,-0.5735,-0.566,0.0,-0.5716,-0.6577,-0.7027,-0.6434,-0.6737,-0.7068,-0.715,-0.7935,-0.8733,-0.9529,-0.9628,-0.9628,-0.9628,-0.9628,-0.9628,-0.9628,-0.9628,-0.9821,-1.0413,-1.0413,-1.0998,-1.198,-1.198,-1.3136,-1.5051,-1.5051,-1.5906,-1.7326,-1.7326,-1.7326,0.0,-1.7326,-1.7326,-1.7326,-1.7326,-1.7326,-1.7326,-1.7326,-1.6923,-1.6367,0.0,0.0,0.0,0.0,0.0,0.0,0.0,-0.9341,-0.7123,-0.3789,-0.2488,-0.0893,0.1701,0.3041,0.4198,0.5272,0.0,0.0,0.0,0.0,0.0,0.0,0.0,0.0,0.0,0.0,0.0,0.0,-0.1217,-0.2147,-0.3512,-0.455,-0.5847,-0.7345,-0.82,-0.8995,0.0,0.0,0.0,0.0,0.0,0.0,0.0,0.0,0.0,0.0,0.0,0.0,0.0,0.0,0.0,0.0,0.0,0.0,0.0,0.0,0.0,-0.2424,-0.2154,-0.1974,-0.1974,-0.1974,-0.3223,-0.4469,-0.4295,-0.5633,-0.6704,-0.6349,-0.6171,-0.6083,-0.5819,-0.5733,-0.5733,-0.5733,-0.5684,-0.5624,-0.5414,-0.6117,-0.6637,-0.6924,-0.8072,-0.8822,-0.8985,-0.9195,-0.9331,-0.9628,-0.9628,-0.9628,-0.9628,-0.9628,-0.9628,-0.9628,-0.9628,-0.9727,-0.9826,-1.0216,-1.0609,-1.09,-1.1688,-1.2651,-1.38,-1.4094,-1.514,-1.6567,-1.6567,-1.6857,-1.7326,-1.7326,-1.7326,-1.7326,-1.7326,-1.7326,-1.7326,-1.7326,-1.6923,-1.6367,0.0,0.0,0.0,0.0,0.0,0.0,0.0,-1.0321,-0.7885,-0.524,-0.3476,-0.1606,0.0625,0.2323,0.3486,0.42,0.0,0.0,0.0,0.0,0.0,0.0,0.0,0.0,0.0,0.0,0.0,0.0,0.0,0.0,-0.4204,-0.5435,-0.6678,-0.8127,-0.8735,-0.9455,0.0,0.0,0.0,0.0,0.0,0.0,-0.9838,0.0,0.0,0.0,0.0,0.0,0.0,0.0,0.0,0.0,0.0,0.0,0.0,0.0,-0.2784,-0.2604,-0.2334,-0.2243,-0.2243,-0.2512,-0.3582,-0.4563,-0.4652,-0.5633,-0.6438,-0.6171,-0.5997,-0.5908,-0.5733,-0.5733,-0.5733,-0.5733,-0.5559,-0.5563,-0.5815,-0.6059,-0.6401,-0.712,-0.8333,-0.9168,-0.9373,-0.949,-0.9628,-0.9628,-0.9628,-0.9628,-0.9628,-0.9628,-0.9628,-0.9628,-0.9628,-0.9628,-0.9628,-0.992,-1.0216,-1.0413,-1.1096,-1.197,-1.3119,-1.3414,-1.4567,-1.619,-1.619,-1.6662,0.0,-1.7326,-1.7326,-1.7326,-1.7326,-1.7326,-1.7311,-1.7194,-1.6821,-1.6352,0.0,0.0,0.0,0.0,0.0,0.0,0.0,0.0,0.0,0.0,-0.4903,-0.3127,-0.1339,0.0625,0.179,0.0,0.0,0.0,0.0,0.0,0.0,0.0,0.0,0.0,0.0,0.0,0.0,-0.1436,-0.2865,-0.4202,-0.5447,0.0,0.0,-0.934,-0.9496,0.0,0.0,0.0,0.0,0.0,0.0,0.0,0.0,0.0,0.0,0.0,0.0,0.0,0.0,0.0,0.0,0.0,0.0,0.0,0.0,0.0,0.0,0.0,0.0,-0.2424,-0.2423,-0.3048,-0.3762,-0.4476,-0.5272,-0.5722,0.0,-0.6083,-0.5908,-0.5733,-0.5733,-0.5733,-0.5733,-0.5644,-0.5368,-0.5524,-0.6718,-0.6484,-0.6399,-0.7208,-0.8024,-0.8432,-0.8432,-0.913,-0.9628,-0.9628,-0.9628,-0.9628,-0.9628,-0.9628,-0.9628,-0.9628,-0.9628,-0.9628,-0.9628,-0.9628,-0.9826,-1.0314,-1.0408,-1.1282,-1.2926,-1.3028,-1.4082,0.0,-1.6096,-1.6567,-1.7232,-1.7232,-1.7326,-1.7326,-1.7326,-1.7326,-1.7289,-1.6974,-1.6645,-1.6323,0.0,0.0,0.0,0.0,0.0,0.0,0.0,0.0,0.0,0.0,-0.6319,-0.4461,-0.1606,-0.1071,0.0,0.0,0.0,0.0,0.0,0.0,0.0,0.0,0.0,0.0,0.0,0.0,0.0,-0.1705,-0.3135,-0.438,-0.5447,-0.6864,0.0,0.0,0.0,0.0,0.0,0.0,0.0,0.0,0.0,0.0,0.0,0.0,0.0,0.0,-0.8644,-0.794,0.0,0.0,0.0,0.0,0.0,0.0,0.0,0.0,-0.2875,-0.2875,-0.2784,0.0,-0.2872,-0.3583,-0.4204,-0.4741,0.0,0.0,-0.6083,-0.5822,-0.5733,-0.5733,-0.5733,-0.5733,-0.5644,-0.5463,-0.5213,-0.5433,-0.6515,-0.7513,-0.8293,-0.8523,-0.8943,-0.9031,-0.8432,-0.913,-0.9628,-0.9628,-0.9628,-0.9628,-0.9628,-0.9628,-0.9628,-0.9628,-0.9628,-0.9628,-0.9628,-0.9628,-0.9628,-0.9821,-1.0216,-1.0605,-1.1091,-1.1873,-1.284,-1.389,-1.4949,-1.5812,-1.6473,-1.7044,-1.7326,-1.7326,-1.7326,-1.7326,-1.7289,-1.6974,-1.6645,-1.6323,0.0,0.0,0.0,0.0,0.0,0.0,0.0,0.0,0.0,0.0,0.0,0.0,0.0,0.0,0.0,0.0,0.0,0.0,0.0,0.0,0.0,0.0,0.0,0.0,0.0,0.0,0.0,0.0,0.0,-0.4917,0.0,0.0,0.0,0.0,0.0,0.0,0.0,0.0,0.0,0.0,-1.3137,0.0,0.0,0.0,0.0,0.0,-0.8823,-0.8212,0.0,-0.6697,-0.5719,-0.4743,0.0,0.0,0.0,0.0,-0.2875,-0.2873,-0.2784,-0.2694,-0.2962,-0.4119,-0.4383,-0.4561,-0.5633,0.0,0.0,-0.5733,-0.5733,-0.5733,-0.5733,-0.5733,-0.5644,-0.5552,-0.5722,-0.6135,-0.6872,-0.7688,-0.8295,-0.856,-0.8754,-0.8912,-0.8912,-0.9209,-0.9539,-0.962,-0.9628,-0.9628,-0.9628,-0.9628,-0.9628,-0.9628,-0.9628,-0.9628,-0.9628,-0.9628,-0.9628,-0.9628,-0.9924,-1.0117,-1.0413,-1.0998,-1.1965,-1.3119,-1.389,-1.4949,-1.619,-1.6662,-1.6951,-1.7326,-1.7326,-1.7238,-1.7069,-1.6755,-1.6433,-1.6118,0.0,0.0,0.0,0.0,0.0,0.0,0.0,0.0,0.0,0.0,0.0,0.0,0.0,0.0,0.0,0.0,0.0,0.0,0.0,0.0,0.0,0.0,0.0,0.0,0.0,0.0,0.0,0.0,0.0,0.0,0.0,0.0,-0.9345,0.0,0.0,0.0,0.0,0.0,0.0,0.0,-1.2966,0.0,0.0,0.0,0.0,0.0,0.0,0.0,0.0,-0.7408,-0.6517,-0.5542,-0.4565,0.0,0.0,0.0,0.0,0.0,-0.2603,-0.2513,-0.296,-0.4476,-0.4385,-0.4293,-0.5985,0.0,0.0,-0.5733,-0.5733,-0.5733,-0.5733,-0.5733,-0.5733,-0.5644,-0.6432,-0.7217,-0.7749,-0.7902,-0.8059,-0.8295,-0.8427,-0.8638,-0.912,-0.934,-0.9421,-0.9575,-0.9612,-0.9628,-0.9628,-0.9628,-0.9628,-0.9628,-0.9628,-0.9628,-0.9628,-0.9628,-0.9628,-0.9628,-0.9628,-0.9821,-1.0314,-1.0314,-1.1282,-1.2732,0.0,0.0,-1.5906,-1.6096,-1.6662,-1.7326,-1.7274,-1.7091,-1.6813,-1.644,-1.614,-1.587,0.0,0.0,0.0,0.0,0.0,0.0,0.0,0.0,0.0,0.0,0.0,0.0,0.0,0.0,0.0,0.0,0.0,0.0,0.0,0.0,0.0,0.0,0.0,0.0,0.0,0.0,0.0,0.0,0.0,0.0,-0.7224,-0.864,-0.9607,-1.0207,0.0,-1.1257,-1.1763,-1.1952,-1.2289,-1.2705,-1.2966,0.0,0.0,0.0,0.0,0.0,0.0,0.0,0.0,-0.7408,-0.6517,-0.5542,-0.4565,0.0,0.0,0.0,0.0,0.0,-0.2603,-0.2781,-0.3315,-0.421,-0.4117,-0.4295,-0.5813,-0.5908,-0.5733,-0.5733,-0.5733,-0.5733,-0.5733,-0.5733,-0.5644,-0.5463,-0.6868,-0.8288,-0.9134,-0.9915,-1.0044,-0.898,-0.9309,-0.9222,-0.819,-0.8886,-0.9368,-0.9393,-0.9539,-0.9628,-0.9628,-0.9628,-0.9628,-0.9628,-0.9628,-0.9628,-0.9628,-0.9628,-0.9628,-0.9628,-0.9628,-0.9628,-0.9727,-1.0216,-1.0507,-1.0895,0.0,-1.3692,-1.4651,-1.5805,-1.6662,-1.7304,-1.7033,-1.6901,-1.6784,-1.6199,-1.5957,-1.587,0.0,0.0,0.0,0.0,0.0,0.0,0.0,0.0,0.0,0.0,0.0,0.0,0.0,0.0,0.0,0.0,0.0,0.0,0.0,0.0,0.0,0.0,0.0,0.0,0.0,0.0,0.0,0.0,0.0,-0.6425,-0.7489,-0.8811,-0.9864,-1.0463,0.0,-1.1257,-1.186,-1.1952,-1.2289,-1.2705,0.0,0.0,0.0,0.0,0.0,0.0,0.0,0.0,0.0,0.0,-0.7231,-0.634,-0.5985,0.0,0.0,0.0,0.0,0.0,-0.3937,-0.3937,-0.4115,-0.4563,-0.4474,-0.465,-0.5813,-0.5908,-0.5733,-0.5733,-0.5733,-0.5733,-0.5733,-0.5733,-0.5997,-0.6959,-0.7746,-0.8564,-0.9549,-0.9464,-0.9251,-0.8989,-0.8972,-0.8934,-0.8754,-0.8922,-0.9108,-0.921,-0.938,-0.9482,-0.9482,-0.9571,-0.9628,-0.9628,-0.9628,-0.9628,-0.9628,-0.9628,-0.9628,-0.9628,-0.9628,-0.9628,-0.9628,-0.9826,-1.0117,-1.0507,0.0,-1.2926,-1.4351,-1.5068,-1.6037,-1.704,-1.6718,-1.6491,-1.6294,-1.5826,-1.565,-1.5635,0.0,0.0,0.0,0.0,0.0,0.0,0.0,0.0,0.0,0.0,0.0,0.0,0.0,0.0,0.0,0.0,0.0,0.0,0.0,0.0,0.0,0.0,0.0,0.0,0.0,0.0,-0.3139,-0.4563,-0.5625,-0.6776,-0.8017,-0.9248,-1.012,0.0,0.0,-1.1257,-1.1957,-1.1957,-1.2203,-1.2619,0.0,0.0,0.0,0.0,0.0,0.0,0.0,0.0,0.0,0.0,0.0,0.0,0.0,0.0,0.0,-0.563,-0.5539,-0.5359,-0.5001,-0.4912,-0.4917,-0.5008,-0.4919,-0.5008,-0.5816,-0.5819,-0.5733,-0.5733,-0.5733,-0.5733,-0.5733,-0.5911,-0.6612,-0.8193,-0.8536,-0.8932,-0.9972,-0.9361,-0.891,-0.937,-0.9097,-0.9008,-0.9379,-0.9152,-0.8968,-0.9023,-0.9198,-0.9295,-0.9295,-0.9425,-0.9502,-0.9502,-0.9543,-0.9563,-0.9563,-0.9608,-0.9628,-0.9628,-0.9628,-0.9628,-0.9628,-0.9628,-0.9821,-1.0216,-1.09,-1.2129,-1.3778,-1.4341,-1.5331,-1.653,-1.6389,-1.6074,-1.5767,-1.5518,-1.5431,-1.5431,0.0,0.0,0.0,0.0,0.0,0.0,0.0,0.0,0.0,0.0,0.0,0.0,0.0,0.0,0.0,0.0,0.0,0.0,0.0,0.0,0.0,0.0,0.0,0.0,0.0,-0.2424,-0.3405,-0.5359,-0.5802,-0.7217,-0.9428,-1.0207,-1.0641,-1.0727,0.0,-1.1435,-1.1699,-1.1957,-1.2118,-1.2448,-1.2881,0.0,0.0,0.0,0.0,0.0,0.0,0.0,0.0,0.0,0.0,0.0,0.0,0.0,-0.563,-0.545,-0.5447,-0.527,-0.4828,-0.5184,-0.5542,-0.5097,-0.501,-0.5099,-0.5641,-0.5733,-0.5733,-0.5733,-0.5733,-0.5733,-0.5733,-0.6438,-0.7316,-0.8368,-0.9244,-1.0125,-1.1018,-1.111,-1.0932,-1.0487,-1.0482,-1.0139,-0.9367,-0.9433,-0.9272,-0.884,-0.9011,-0.9116,-0.9116,-0.9129,-0.9137,-0.9137,-0.9291,-0.9372,-0.9372,-0.9543,-0.9628,-0.9628,-0.9628,-0.9628,-0.9628,-0.9628,-0.9628,-0.9727,-1.0703,-1.1564,-1.2315,-1.3888,-1.4937,-1.5575,-1.5806,-1.5752,-1.546,-1.5438,-1.5431,-1.5431,0.0,0.0,0.0,0.0,0.0,0.0,0.0,0.0,0.0,0.0,0.0,0.0,0.0,0.0,0.0,0.0,0.0,0.0,0.0,0.0,0.0,0.0,0.0,-0.2872,-0.278,-0.3317,-0.4297,-0.5628,-0.7309,-0.8719,-1.0033,-1.0294,0.0,0.0,0.0,-1.1354,-1.1699,-1.1871,-1.2118,-1.2448,-1.3052,-1.3313,0.0,0.0,0.0,0.0,0.0,0.0,0.0,0.0,-0.8388,-0.8032,0.0,-0.7764,-0.7496,-0.7224,-0.7048,-0.6874,-0.652,-0.6871,-0.7048,-0.6074,-0.6248,0.0,0.0,-0.5733,-0.5733,-0.5733,-0.5733,-0.5733,-0.5733,-0.6962,-0.8105,-0.8456,-0.9772,-1.0911,-1.1262,-1.1262,-1.1262,-1.1084,-1.0814,-1.0376,-0.9777,-0.9499,-0.919,-0.875,-0.8824,-0.8926,-0.8926,-0.9035,-0.9096,-0.9096,-0.9161,-0.9194,-0.9194,-0.9263,-0.9299,-0.9299,-0.9522,-0.9628,-0.9624,-0.951,-0.9458,-0.9546,-1.0105,-1.113,-1.2509,-1.3272,-1.4408,-1.5705,-1.5653,-1.554,-1.5431,-1.5431,-1.5431,-1.5431,0.0,0.0,0.0,0.0,0.0,0.0,0.0,0.0,0.0,0.0,0.0,0.0,0.0,0.0,0.0,0.0,0.0,0.0,0.0,0.0,0.0,0.0,0.0,-0.3318,-0.3673,-0.4561,-0.5272,-0.5894,-0.8281,-0.9689,-1.0294,0.0,0.0,0.0,0.0,-1.1354,-1.1699,-1.2203,-1.2454,-1.2534,-1.3476,-1.3646,0.0,0.0,0.0,0.0,0.0,0.0,0.0,0.0,-0.8568,0.0,0.0,0.0,0.0,0.0,-0.8113,-0.8025,-0.7768,-0.794,-0.8021,-0.7401,0.0,0.0,-0.67,-0.6349,-0.6263,-0.6523,-0.6349,-0.6263,-0.6523,-0.7669,-0.8632,-0.8894,-1.0299,-1.1262,-1.1262,-1.0997,-1.0824,-1.0824,-1.0554,-1.0202,-0.9767,-0.9602,-0.9345,-0.8828,-0.8763,-0.8739,-0.8739,-0.8861,-0.893,-0.893,-0.8982,-0.9011,-0.9011,-0.9068,-0.9096,-0.91,-0.9344,-0.9462,-0.9458,-0.9332,-0.9275,-0.9362,-0.9707,-1.0711,-1.2163,-1.2803,-1.4089,-1.5738,-1.5518,-1.5431,-1.5431,-1.5431,-1.5431,-1.5431,0.0,0.0,0.0,0.0,0.0,0.0,0.0,0.0,0.0,0.0,0.0,0.0,0.0,0.0,0.0,0.0,0.0,0.0,0.0,0.0,0.0,0.0,0.0,-0.3941,-0.4739,-0.5797,-0.6416,-0.6416,-0.8536,-0.9864,-1.0294,-1.0549,0.0,0.0,0.0,-1.144,-1.1785,-1.2948,-1.3118,-1.2875,-1.4146,-1.4321,-1.3737,0.0,0.0,0.0,0.0,0.0,0.0,0.0,-0.8568,-0.8568,0.0,0.0,0.0,-0.794,-0.8201,-0.8456,-0.8285,-0.8201,-0.8285,-0.8803,-0.836,-0.7921,-0.8364,-0.7753,-0.7404,-0.8281,-0.7753,-0.7404,-0.8368,-0.8544,-0.8807,-0.9767,-1.0651,-1.1262,-1.1262,-1.0472,-0.9859,-0.9859,-0.9859,-0.968,-0.9235,-0.968,-0.9777,-0.9345,-0.8828,-0.8568,-0.8568,-0.8568,-0.8568,-0.8568,-0.8731,-0.882,-0.882,-0.8999,-0.9092,-0.9092,-0.9092,-0.9092,-0.9096,-0.9096,-0.9096,-0.9096,-0.9647,-1.0259,-1.1038,-1.2463,-1.3972,-1.5431,-1.5431,-1.5431,-1.5431,-1.5431,-1.5431,-1.5431,0.0,0.0,0.0,0.0,0.0,0.0,0.0,0.0,0.0,0.0,0.0,0.0,0.0,0.0,0.0,0.0,0.0,0.0,0.0,0.0,0.0,0.0,0.0,0.0,0.0,0.0,-0.8097,-0.8627,-0.951,-1.0125,0.0,0.0,0.0,-1.1267,0.0,0.0,0.0,-1.3789,-1.4203,-1.4119,-1.4559,-1.4566,-1.4405,0.0,0.0,0.0,0.0,0.0,0.0,0.0,0.0,0.0,0.0,0.0,0.0,-0.7768,-0.768,-0.7764,-0.7496,-0.8193,-0.8798,-0.8273,-0.8711,-0.9327,-0.9419,-0.8281,-0.7139,-0.7489,-0.7841,-0.8193,-0.8456,-0.9069,-0.9593,-0.9859,-1.0651,-1.1089,-1.0386,-1.012,-0.968,-0.8982,-0.8894,-0.8715,-0.8269,-0.836,-0.8189,-0.7573,-0.7401,-0.7492,-0.7845,-0.7845,-0.8028,-0.8568,-0.8617,-0.8641,-0.8641,-0.8698,-0.8723,-0.8723,-0.8723,-0.8857,-0.9092,-0.8962,-0.8905,-0.8897,-0.8955,-0.9916,-1.1581,-1.3664,-1.4825,-1.5431,-1.5431,-1.5431,-1.5431,-1.5431,-1.5431,-1.5431,0.0,0.0,0.0,0.0,0.0,0.0,0.0,0.0,0.0,0.0,0.0,0.0,0.0,0.0,0.0,0.0,0.0,0.0,0.0,0.0,0.0,0.0,0.0,0.0,0.0,-0.8536,-0.9423,0.0,0.0,0.0,0.0,0.0,0.0,-1.1354,0.0,-1.279,-1.3118,-1.4622,-1.5039,-1.4713,-1.5144,-1.4901,-1.4412,0.0,0.0,0.0,0.0,0.0,0.0,0.0,0.0,0.0,0.0,0.0,0.0,-0.8032,-0.8116,-0.8197,-0.8368,-0.8978,-0.9589,-0.9235,-0.9593,-1.0033,-0.9946,-0.9331,-0.8807,-0.8807,-0.8894,-0.9157,-0.9506,-0.9772,-1.0033,-1.0386,-1.0911,-1.0997,-1.0033,-0.9593,-0.8982,-0.8017,-0.7929,-0.7841,-0.7573,-0.7658,-0.7658,-0.7217,-0.7044,-0.7044,-0.7221,-0.7221,-0.7489,-0.8116,-0.8204,-0.8296,-0.8568,-0.8568,-0.8568,-0.8568,-0.8568,-0.8678,-0.8885,-0.8771,-0.8718,-0.8714,-0.9393,-1.0458,-1.1986,-1.4048,-1.5082,-1.5431,-1.5431,-1.5431,-1.5431,-1.5431,-1.5431,-1.5431,0.0,0.0,0.0,0.0,0.0,0.0,0.0,0.0,0.0,0.0,0.0,0.0,0.0,0.0,0.0,0.0,0.0,0.0,0.0,0.0,0.0,0.0,0.0,0.0,0.0,0.0,0.0,0.0,0.0,0.0,0.0,0.0,-1.1181,-1.1435,0.0,-1.3118,-1.3698,-1.5455,-1.5628,-1.4985,-1.5809,-1.5318,-1.4173,-1.4088,0.0,0.0,0.0,0.0,0.0,0.0,0.0,0.0,-0.9689,-0.899,-0.8204,-0.8819,-0.9069,-0.941,-1.0028,-1.0294,-1.0467,-1.1089,-1.0824,-1.0294,-1.012,-1.0651,-1.1267,-1.1176,-1.0559,-1.0299,-1.1176,-1.0559,-1.0299,-1.1176,-1.1262,-1.0824,-0.9946,-0.8982,-0.8017,-0.7051,-0.6966,-0.6966,-0.6966,-0.7401,-0.757,-0.757,-0.7224,-0.6871,-0.6779,-0.6691,-0.6956,-0.7401,-0.7401,-0.7757,-0.8476,-0.8476,-0.8568,-0.8568,-0.8568,-0.8568,-0.8568,-0.8568,-0.8568,-0.874,-1.0549,-1.1574,-1.2072,-1.3957,-1.4992,-1.5347,-1.5431,-1.5431,-1.5431,-1.5431,-1.5431,-1.5431,0.0,0.0,0.0,0.0,0.0,0.0,0.0,0.0,0.0,0.0,0.0,0.0,0.0,0.0,0.0,0.0,0.0,0.0,0.0,0.0,0.0,0.0,0.0,0.0,0.0,0.0,0.0,0.0,0.0,0.0,0.0,0.0,0.0,-1.2448,0.0,-1.4448,0.0,-1.6698,-1.696,-1.6229,-1.6139,-1.5567,-1.4838,-1.4341,-1.4088,0.0,0.0,0.0,0.0,0.0,0.0,0.0,-1.0294,-0.9946,-0.9767,-0.9671,-0.9579,-0.9584,-0.9671,-1.0024,-1.0294,-1.0467,-1.0824,-1.1089,-1.0997,-1.1176,-1.1084,-1.0386,-1.0646,-1.1089,-1.1262,-1.1176,-1.1089,-1.1267,-1.0646,-0.9859,-0.8894,-0.8017,-0.7051,-0.6086,-0.5997,-0.5997,-0.5997,-0.6086,-0.6083,-0.5899,-0.5813,-0.5902,-0.6257,-0.6077,-0.6248,-0.6956,-0.6782,-0.6959,-0.7757,-0.7757,-0.8025,-0.8568,-0.8568,-0.8568,-0.8568,-0.8568,-0.8568,-0.874,-1.0549,-1.1488,-1.1901,-1.3873,-1.4908,-1.5173,-1.5347,-1.5431,-1.5431,-1.5431,-1.5431,-1.5506,0.0,0.0,0.0,0.0,0.0,0.0,0.0,0.0,0.0,0.0,0.0,0.0,0.0,0.0,0.0,0.0,0.0,0.0,0.0,0.0,0.0,0.0,0.0,0.0,0.0,0.0,0.0,0.0,0.0,0.0,0.0,0.0,0.0,-1.2705,0.0,-1.4622,0.0,-1.687,-1.6886,-1.5733,-1.5974,-1.5484,-1.4587,-1.4257,-1.4088,-1.4088,-1.4088,0.0,0.0,0.0,0.0,0.0,0.0,0.0,-1.0376,-1.0539,-1.0453,-1.0284,-1.0549,-1.0814,-1.0906,-1.0824,-1.0997,-1.1262,-1.1262,-1.1262,-1.1176,-1.0646,-1.0997,-1.1262,-1.1262,-1.1262,-1.1262,-1.1262,-1.0911,-1.012,-0.8719,-0.8105,-0.7228,-0.5908,-0.5733,-0.5733,-0.5733,-0.5733,-0.5644,-0.5552,-0.5552,-0.5641,-0.5727,-0.5544,-0.563,-0.6248,-0.6077,-0.6254,-0.6959,-0.7312,-0.7669,-0.8116,-0.8388,-0.8568,-0.8568,-0.8568,-0.8568,-0.8656,-1.0033,-1.1058,-1.1815,-1.3451,-1.4482,-1.509,-1.5347,-1.5431,-1.5431,-1.5431,-1.5665,-1.6064,0.0,0.0,0.0,0.0,0.0,0.0,0.0,0.0,0.0,0.0,0.0,0.0,0.0,0.0,0.0,0.0,0.0,0.0,0.0,0.0,0.0,0.0,0.0,0.0,0.0,0.0,0.0,0.0,0.0,0.0,0.0,0.0,0.0,-1.3039,0.0,0.0,0.0,-1.6714,-1.6476,-1.5144,-1.5809,-1.5401,-1.4257,-1.4173,-1.4088,-1.4088,-1.4088,-1.3828,-1.3483,-1.3398,0.0,0.0,0.0,0.0,-1.0809,-1.1413,-1.1413,-1.1332,-1.1693,-1.1699,-1.1613,-1.1354,-1.1262,-1.1262,-1.1262,-1.1262,-1.1262,-1.1262,-1.1262,-1.1262,-1.1262,-1.1262,-1.1262,-1.1262,-1.1176,-1.0472,-0.8719,-0.8368,-0.7577,-0.5911,-0.5733,-0.5733,-0.5733,-0.5733,-0.5733,-0.5733,-0.5733,-0.5644,-0.5463,-0.5191,-0.5188,-0.5542,-0.5369,-0.5547,-0.6254,-0.6871,-0.7224,-0.7489,-0.8208,-0.8568,-0.8568,-0.8568,-0.8568,-0.8652,-0.9602,-1.0626,-1.1815,-1.3021,-1.4139,-1.509,-1.5347,-1.5431,-1.5431,-1.5431,-1.5824,-1.6542,0.0,0.0,0.0,0.0,0.0,0.0,0.0,0.0,0.0,0.0,0.0,0.0,0.0,0.0,0.0,0.0,0.0,0.0,-1.0641,0.0,0.0,-1.0641,-1.0824,0.0,0.0,0.0,0.0,0.0,0.0,0.0,0.0,0.0,0.0,-1.4196,0.0,0.0,0.0,-1.6952,-1.6796,-1.6722,-1.6304,-1.565,-1.4922,-1.4334,-1.4088,-1.4088,-1.4088,-1.4088,-1.3913,-1.3568,-1.3307,0.0,0.0,0.0,-1.2363,-1.2534,-1.2363,-1.2198,-1.2037,-1.1699,-1.1354,-1.1354,-1.1262,-1.1262,-1.1262,-1.1262,-1.1262,-1.1262,-1.1262,-1.1262,-1.1262,-1.1262,-1.1262,-1.1262,-1.0651,-0.9685,-0.8632,-0.7841,-0.6874,-0.5822,-0.5733,-0.5733,-0.5733,-0.5733,-0.5733,-0.5733,-0.5733,-0.5644,-0.5644,-0.5463,-0.528,-0.5099,-0.4926,-0.5015,-0.5549,-0.5638,-0.6254,-0.7489,-0.8208,-0.8568,-0.8568,-0.8568,-0.8568,-0.8656,-0.9946,-1.0971,-1.1815,-1.3366,-1.4398,-1.509,-1.5347,-1.5431,-1.5431,-1.5431,-1.5506,-1.5831,0.0,0.0,0.0,0.0,0.0,0.0,0.0,0.0,0.0,0.0,0.0,0.0,0.0,0.0,0.0,-1.2443,-1.1516,-1.0916,-1.0727,-1.0824,-1.0911,-1.0911,-1.1089,-1.1181,0.0,0.0,0.0,0.0,0.0,0.0,0.0,-1.3209,-1.3795,0.0,0.0,0.0,0.0,-1.6952,-1.6862,-1.637,-1.655,-1.6221,-1.5567,-1.4915,-1.4671,-1.4587,-1.4257,-1.3913,-1.3652,-1.3483,-1.3222,-1.296,-1.279,0.0,0.0,0.0,-1.2619,-1.2448,-1.2123,-1.1699,-1.1262,-1.1262,-1.1262,-1.1262,-1.1262,-1.1262,-1.1262,-1.1262,-1.1262,-1.1262,-1.1262,-1.1262,-1.1262,-1.1262,-1.0911,-1.0386,-0.9419,-0.8456,-0.758,-0.6612,-0.5997,-0.5733,-0.5733,-0.5733,-0.5733,-0.5733,-0.5733,-0.5733,-0.5733,-0.5552,-0.5371,-0.5191,-0.5013,-0.4926,-0.5018,-0.5369,-0.6251,-0.7489,-0.7845,-0.8208,-0.8568,-0.8568,-0.8568,-0.8656,-0.9937,-1.088,-1.1821,-1.3275,-1.4398,-1.509,-1.5347,-1.5431,-1.5431,-1.5431,-1.5748,-1.6304,0.0,0.0,0.0,0.0,0.0,0.0,0.0,0.0,0.0,0.0,0.0,0.0,0.0,0.0,0.0,0.0,-1.2026,-1.1257,-1.0906,-1.1003,-1.1094,-1.1094,-1.1181,-1.1262,-1.1262,0.0,0.0,0.0,0.0,0.0,-1.2705,-1.388,-1.4384,0.0,-1.5123,-1.5621,-1.5884,-1.6952,-1.7025,-1.637,-1.6878,-1.6804,-1.6221,-1.5325,-1.4999,-1.4915,-1.4166,-1.3743,-1.3392,-1.3313,-1.3052,-1.279,-1.2705,-1.2705,0.0,0.0,0.0,-1.2454,-1.2123,-1.1699,-1.1348,-1.1521,-1.1435,-1.1348,-1.178,-1.1521,-1.1348,-1.1516,-1.1435,-1.1262,-1.1262,-1.1262,-1.1262,-1.1262,-1.1262,-1.0997,-1.0033,-0.9331,-0.8456,-0.7228,-0.6526,-0.5997,-0.5733,-0.5733,-0.5733,-0.5733,-0.5733,-0.5733,-0.5733,-0.5552,-0.5463,-0.5371,-0.5191,-0.5013,-0.4661,-0.528,-0.6163,-0.7224,-0.7401,-0.7848,-0.8568,-0.8568,-0.8656,-0.8828,-1.0024,-1.1133,-1.2334,-1.3451,-1.4391,-1.5173,-1.5347,-1.5431,-1.5431,-1.5431,-1.5824,-1.6542,0.0,0.0,0.0,0.0,0.0,0.0,0.0,0.0,0.0,0.0,0.0,0.0,-1.6394,-1.5726,-1.4887,-1.3789,-1.3039,-1.2198,-1.1348,-1.1267,-1.1267,-1.1267,-1.1262,0.0,-1.1262,0.0,0.0,0.0,0.0,0.0,-1.2705,-1.4468,-1.5137,-1.4706,-1.4706,-1.5869,-1.7789,-1.7033,-1.7196,-1.7789,-1.7204,-1.7041,-1.6886,-1.5318,-1.4734,-1.4566,-1.373,-1.3392,-1.3398,-1.3137,-1.3137,-1.3052,-1.279,-1.2705,-1.2705,0.0,0.0,0.0,-1.2043,-1.1699,-1.1435,-1.2192,-1.186,-1.1693,-1.2973,-1.2289,-1.1521,-1.2192,-1.1774,-1.1262,-1.1262,-1.1262,-1.1262,-1.1262,-1.1262,-1.0997,-1.0033,-0.9859,-0.9157,-0.7316,-0.7051,-0.67,-0.5822,-0.5733,-0.5733,-0.5733,-0.5733,-0.5733,-0.5733,-0.5733,-0.5555,-0.5371,-0.5371,-0.5193,-0.4661,-0.5193,-0.5725,-0.6428,-0.7136,-0.7848,-0.8568,-0.8568,-0.8828,-0.9345,-1.0467,-1.2003,-1.362,-1.4132,-1.4741,-1.5431,-1.5431,-1.5431,-1.5431,-1.5431,-1.5423,-1.5748,0.0,0.0,0.0,0.0,0.0,0.0,0.0,0.0,0.0,0.0,0.0,0.0,0.0,-1.5891,-1.497,-1.3957,-1.2613,-1.1688,-1.1348,-1.1262,-1.1262,-1.1262,-1.1262,-1.1262,-1.1262,-1.1262,0.0,0.0,0.0,-1.2705,-1.2705,-1.4126,-1.5039,-1.5538,-1.6124,-1.6706,-1.7196,-1.7448,-1.77,-1.7959,-1.7708,-1.7627,-1.7546,-1.6139,-1.547,-1.5213,-1.3977,-1.3398,-1.3228,-1.3137,-1.2966,-1.279,-1.2705,-1.2705,-1.2705,-1.2705,-1.2448,-1.2203,-1.2043,-1.1785,-1.1607,-1.1688,-1.186,-1.2112,-1.2619,-1.2369,-1.2112,-1.2363,-1.1768,-1.1262,-1.1262,-1.1262,-1.1262,-1.1262,-1.1262,-1.1176,-1.0824,-1.0299,-0.968,-0.8982,-0.7841,-0.6966,-0.6612,-0.6086,-0.5733,-0.5733,-0.5733,-0.5733,-0.5733,-0.5733,-0.5644,-0.5555,-0.5552,-0.5371,-0.4924,-0.4926,-0.5458,-0.6428,-0.6694,-0.7408,-0.8568,-0.8568,-0.9262,-1.0467,-1.1316,-1.2163,-1.319,-1.4482,-1.5166,-1.5431,-1.5431,-1.5431,-1.5431,-1.5431,-1.5748,-1.6386,0.0,0.0,0.0,0.0,0.0,0.0,0.0,0.0,0.0,0.0,0.0,0.0,0.0,0.0,-1.5477,-1.4545,-1.3118,-1.2112,-1.1774,-1.1774,-1.1602,-1.1354,-1.1262,-1.1262,-1.1262,0.0,0.0,0.0,0.0,0.0,0.0,-1.4196,-1.5282,-1.6034,-1.7041,-1.7375,-1.7196,-1.7781,-1.804,-1.804,-1.804,-1.7976,-1.7848,-1.6598,-1.5831,-1.5235,-1.3893,-1.3222,-1.2966,-1.2966,-1.2875,-1.2705,-1.2705,-1.2705,-1.2705,-1.2705,-1.2534,-1.2369,-1.2037,-1.1871,-1.1699,-1.1688,-1.2112,-1.2619,-1.2954,-1.2954,-1.2784,-1.279,-1.2198,-1.1574,-1.1241,-1.1225,-1.1257,-1.1251,-1.1262,-1.1262,-1.1262,-1.0738,-1.0207,-0.9946,-0.8544,-0.7404,-0.7139,-0.626,-0.5733,-0.5733,-0.5733,-0.5733,-0.5733,-0.5733,-0.5733,-0.5733,-0.5644,-0.5463,-0.5099,-0.4837,-0.5191,-0.6163,-0.634,-0.7051,-0.8208,-0.8476,-0.9345,-1.0722,-1.1655,-1.2498,-1.336,-1.4824,-1.5431,-1.5431,-1.5431,-1.5431,-1.5431,-1.5431,-1.5982,-1.6854,0.0,0.0,0.0,0.0,0.0,0.0,0.0,0.0,0.0,-1.9423,0.0,0.0,0.0,0.0,0.0,-1.5477,-1.4552,-1.3626,-1.2784,-1.2705,-1.2363,-1.1435,-1.1348,-1.1348,-1.1348,0.0,0.0,0.0,0.0,0.0,0.0,0.0,-1.5786,-1.6034,-1.7196,-1.7781,-1.804,-1.804,-1.804,-1.804,-1.7951,-1.8019,-1.7859,-1.6684,-1.5747,-1.4699,-1.3307,-1.2705,-1.2705,-1.2705,-1.2705,-1.2705,-1.2705,-1.2705,-1.2705,-1.2705,-1.2534,-1.2369,0.0,0.0,0.0,-1.2283,-1.2534,-1.2954,-1.4132,-1.4035,-1.3613,-1.3464,-1.2863,-1.2099,-1.1193,-1.0977,-1.1052,-1.1289,-1.1246,-1.1246,-1.1251,-1.1251,-1.0992,-1.0033,-0.9157,-0.8193,-0.7316,-0.6349,-0.5733,-0.5733,-0.5733,-0.5733,-0.5733,-0.5733,-0.5733,-0.5733,-0.5552,-0.5371,-0.5371,-0.4926,-0.5013,-0.5719,-0.6163,-0.6782,-0.7489,-0.8296,-0.9087,-1.0125,-1.1391,-1.293,-1.4398,-1.509,-1.5431,-1.5431,-1.5431,-1.5431,-1.5431,-1.5431,-1.5989,-1.6862,0.0,0.0,0.0,0.0,0.0,0.0,0.0,0.0,-2.1318,0.0,0.0,0.0,-1.7764,-1.6542,-1.5643,-1.5394,-1.4552,-1.3873,-1.3626,-1.3626,-1.3542,-1.3288,-1.3288,-1.3288,-1.3288,0.0,0.0,0.0,0.0,0.0,0.0,0.0,0.0,0.0,-1.7448,-1.7951,-1.804,-1.804,-1.804,-1.7951,-1.7286,-1.7465,-1.7831,-1.6409,-1.5575,-1.5159,-1.423,-1.3379,-1.279,-1.3457,-1.3209,-1.2705,-1.2705,-1.2705,-1.2705,-1.2705,-1.2534,-1.2369,-1.2037,0.0,0.0,0.0,0.0,0.0,-1.3361,-1.3322,-1.3246,-1.3823,-1.2757,-1.1758,-1.1715,-1.1178,-1.0756,-1.0739,-1.0749,-1.0891,-1.1063,-1.1085,-1.1064,-1.089,-1.012,-0.9419,-0.9157,-0.8281,-0.7404,0.0,-0.67,-0.6438,-0.5733,-0.5733,-0.5733,-0.5733,-0.5644,-0.5552,-0.5371,-0.5282,-0.5369,-0.5719,-0.6337,-0.6956,-0.7577,-0.864,-0.9432,-1.0125,-1.174,-1.2942,-1.373,-1.4915,-1.5431,-1.5431,-1.5431,-1.5431,-1.5431,-1.5431,-1.6312,-1.7674,0.0,0.0,0.0,0.0,0.0,0.0,-2.2402,-2.2252,-2.1711,0.0,0.0,0.0,-1.7602,-1.655,-1.5982,-1.5982,-1.547,-1.497,-1.4636,-1.4552,-1.4378,-1.4041,-1.3957,-1.3957,-1.3957,0.0,0.0,0.0,0.0,0.0,0.0,0.0,0.0,0.0,0.0,0.0,-1.804,-1.804,-1.804,-1.7959,-1.7448,-1.7269,-1.7253,-1.6828,-1.6268,-1.5748,-1.5354,-1.4328,-1.3372,-1.4294,-1.3964,-1.3209,-1.279,-1.2705,-1.2705,-1.2705,-1.2869,-1.3039,-1.2631,-1.2796,-1.2784,-1.2026,0.0,0.0,-1.3252,-1.347,-1.3768,-1.4056,-1.3238,-1.2376,-1.2067,-1.1609,-1.1078,-1.074,-1.0645,-1.0688,-1.0789,-1.0837,-1.0891,-1.0952,-1.0194,-0.9602,-0.9602,-0.8747,-0.8006,-0.7559,-0.7215,-0.6637,-0.573,-0.5733,-0.5555,-0.5104,-0.5463,-0.5463,-0.4924,-0.5282,-0.546,-0.5544,-0.6425,-0.7044,-0.7577,-0.8727,-0.9607,-1.0381,-1.1997,-1.2942,-1.3476,-1.4831,-1.5431,-1.5431,-1.5431,-1.5431,-1.5431,-1.5824,-1.6788,-1.8078,0.0,0.0,0.0,0.0,0.0,0.0,-2.2402,-2.2252,-2.1787,0.0,-1.9904,-1.8709,-1.7049,-1.6812,-1.673,-1.673,-1.673,-1.6402,-1.556,-1.556,-1.5137,-1.4384,-1.4294,-1.4294,-1.4294,-1.4294,0.0,0.0,0.0,0.0,0.0,0.0,0.0,0.0,0.0,0.0,-1.804,-1.804,-1.804,-1.7951,-1.787,-1.7245,-1.6464,-1.7474,-1.7253,-1.6366,-1.6322,-1.5362,-1.4294,-1.5137,-1.4887,-1.4126,-1.3118,-1.2954,-1.2954,-1.279,-1.3372,-1.4048,-1.3561,-1.4048,-1.4371,-1.3118,-1.3432,0.0,-1.3555,-1.4025,-1.4427,-1.4102,-1.3945,-1.3527,-1.2479,-1.2216,-1.1948,-1.1079,-1.0962,-1.0836,-1.061,-1.0595,-1.0686,-1.0632,-0.9892,-0.9399,-0.9399,-0.8578,-0.8152,-0.8312,-0.7392,-0.6436,-0.5706,-0.5714,-0.5272,-0.4297,-0.5193,-0.5285,-0.43,-0.5013,-0.546,-0.5371,-0.6428,-0.7132,-0.7577,-0.8815,-0.9864,-1.0717,-1.2169,-1.3033,-1.3476,-1.4831,-1.5431,-1.5431,-1.5431,-1.5431,-1.5506,-1.6378,-1.7269,-1.8158,-2.4492,0.0,0.0,0.0,0.0,0.0,-2.2478,-2.2402,-2.2176,-2.1645,-2.0382,-1.9116,-1.7844,-1.7286,-1.6976,-1.673,-1.673,-1.6648,-1.6484,-1.6484,-1.6402,-1.6147,-1.6147,-1.6147,-1.6147,-1.6147,-1.6147,0.0,0.0,0.0,0.0,0.0,0.0,0.0,0.0,0.0,-1.804,-1.804,-1.804,-1.7951,-1.7196,-1.6854,-1.6683,-1.6886,-1.6812,-1.6632,-1.664,-1.5974,-1.5144,-1.5311,-1.5718,-1.5869,-1.4294,-1.43,-1.4552,-1.3124,-1.3704,-1.4629,-1.3646,-1.388,-1.4364,-1.3873,-1.3695,0.0,-1.402,-1.3945,-1.398,-1.4892,-1.4403,-1.3789,-1.3761,-1.3194,-1.255,-1.2048,-1.1855,-1.1452,-1.0472,-1.0819,-1.0959,-1.0611,-1.0869,-1.0864,-1.0384,-1.0141,-0.975,-0.9046,-0.7552,-0.6292,-0.5581,-0.5499,-0.5192,-0.4297,-0.5193,-0.5285,-0.43,-0.5193,-0.5552,-0.546,-0.6868,-0.757,-0.7577,-0.9501,-1.0463,-1.0722,-1.2528,-1.3307,-1.3476,-1.4831,-1.5431,-1.5431,-1.5431,-1.5431,-1.5506,-1.6378,-1.7269,-1.8158,-2.485,-2.4059,0.0,0.0,0.0,0.0,0.0,-2.2553,-2.2402,-2.2035,-2.0857,-1.9511,-1.8158,-1.7764,-1.7286,-1.673,-1.673,-1.673,-1.673,-1.673,-1.673,-1.673,-1.673,-1.673,-1.673,-1.673,-1.6738,0.0,0.0,0.0,0.0,0.0,0.0,0.0,0.0,0.0,-1.804,-1.804,-1.7789,-1.7367,-1.7367,-1.7367,-1.7367,-1.7367,-1.7367,-1.7367,-1.7367,-1.7041,-1.655,-1.5726,-1.5726,-1.5876,-1.472,-1.4391,-1.4223,-1.313,-1.4048,-1.5137,-1.4146,-1.4803,-1.5538,-1.4887,-1.4601,0.0,0.0,-1.4345,-1.4468,-1.511,-1.4781,-1.4424,-1.4424,-1.3848,-1.3283,-1.2847,-1.2599,-1.221,-1.138,-1.1386,-1.1359,-1.1188,-1.1128,-1.1051,-1.074,-1.0433,-0.9932,-0.9082,-0.7947,-0.6961,-0.6123,-0.5628,-0.4825,-0.3524,-0.4847,-0.4963,-0.3582,-0.5015,-0.5644,-0.5552,-0.7044,-0.7834,-0.8017,-0.985,-1.0727,-1.1079,-1.2711,-1.3398,-1.3476,-1.4831,-1.5431,-1.5431,-1.5431,-1.5431,-1.559,-1.687,-1.7585,-1.8158,-2.5288,-2.4564,-2.3829,0.0,0.0,0.0,0.0,0.0,-2.2553,-2.2176,-2.1242,-2.006,-1.8709,-1.8399,-1.7997,-1.7294,-1.7049,-1.6976,-1.6976,-1.6894,-1.6812,-1.6812,-1.6812,-1.6812,-1.6812,-1.6812,-1.6976,-1.7139,0.0,0.0,0.0,0.0,0.0,0.0,0.0,0.0,-1.804,-1.804,-1.7619,-1.7033,-1.7708,-1.7789,-1.7538,-1.7708,-1.7789,-1.7789,-1.7951,-1.804,-1.7789,-1.6214,-1.5636,-1.556,-1.4985,-1.4475,-1.3971,-1.3548,-1.472,-1.5899,-1.4977,-1.5891,-1.6886,-1.5891,-1.5546,-1.5323,0.0,0.0,0.0,-1.5164,-1.5227,-1.5119,-1.478,-1.4494,-1.4141,-1.3564,-1.3339,-1.3112,-1.2739,-1.2372,-1.2077,-1.1855,-1.1409,-1.1037,-1.0887,-1.0293,-0.9616,-0.8944,-0.8378,-0.7663,-0.6637,-0.5906,-0.4797,-0.3014,-0.4586,-0.4722,-0.3115,-0.4828,-0.5733,-0.5733,-0.7224,-0.8097,-0.8544,-1.0028,-1.0906,-1.1348,-1.2796,-1.3398,-1.3476,-1.4831,-1.5431,-1.5431,-1.5431,-1.5431,-1.559,-1.7359,-1.7997,-1.8238,-2.4612,-2.4192,-2.3829,0.0,0.0,0.0,0.0,0.0,-2.2628,-2.2402,-2.1624,-2.0924,-2.0527,-1.9825,-1.9274,-1.9027,-1.8487,-1.8095,-1.8095,-1.7627,-1.731,-1.731,-1.731,-1.731,-1.731,-1.731,-1.731,-1.7392,0.0,0.0,0.0,0.0,0.0,0.0,-1.804,-1.804,-1.804,-1.804,-1.7951,-1.787,-1.7959,-1.7041,-1.5809,-1.6535,-1.6862,-1.6944,-1.7708,-1.804,-1.787,-1.687,-1.6535,-1.637,-1.5553,-1.5801,-1.6206,-1.5387,-1.6214,-1.7204,-1.6221,-1.6468,-1.6968,-1.6648,-1.6094,-1.5709,-1.5976,0.0,-1.5268,-1.5557,0.0,-1.5502,-1.517,0.0,0.0,-1.4472,-1.4353,-1.4209,-1.4137,-1.3985,-1.3397,-1.2372,-1.2305,-1.2077,-1.1186,-1.0368,-0.9549,-0.8813,-0.8679,-0.7991,-0.6485,-0.6334,-0.5502,-0.3785,-0.4894,-0.5036,-0.4004,-0.5147,-0.5733,-0.5733,-0.7577,-0.8456,-0.8544,-1.0386,-1.1262,-1.1348,-1.2796,-1.3398,-1.3476,-1.4831,-1.5431,-1.5431,-1.5431,-1.5431,-1.559,-1.7359,-1.7997,-1.8238,-2.5063,-2.4791,-2.4432,-2.3213,0.0,0.0,0.0,0.0,-2.2703,-2.2553,-2.2166,-2.1624,-2.1068,-2.0672,-2.0207,-1.9511,-1.9204,-1.8816,-1.8336,-1.8023,-1.7789,-1.7392,-1.7392,-1.7392,-1.7392,-1.7392,-1.7473,-1.7538,-1.7619,0.0,0.0,0.0,0.0,0.0,-1.804,-1.804,-1.804,-1.804,-1.804,-1.7959,-1.7448,-1.6788,-1.6206,-1.7123,-1.7448,-1.7529,-1.787,-1.804,-1.7951,-1.7619,-1.7041,-1.655,-1.6558,-1.6304,-1.5884,-1.5477,-1.6139,-1.6796,-1.5891,-1.6386,-1.7057,-1.6738,-1.6589,-1.6429,-1.6214,-1.5983,-1.5761,-1.569,0.0,0.0,0.0,0.0,0.0,0.0,-1.4497,-1.4433,-1.4497,-1.4274,-1.3912,-1.3397,-1.3112,-1.2599,-1.1706,-1.0887,-1.0438,-1.0432,-0.9377,-0.8579,-0.8267,-0.7036,-0.5765,-0.4592,-0.5059,-0.49,-0.4074,-0.5075,-0.5923,-0.6523,-0.7841,-0.8807,-0.9331,-1.0651,-1.1262,-1.1348,-1.2796,-1.3398,-1.3476,-1.4831,-1.5431,-1.5431,-1.5431,-1.5431,-1.559,-1.7359,-1.7997,-1.8238,-2.5721,-2.5288,-2.4576,-2.3213,-2.3001,0.0,0.0,-2.2852,-2.2777,-2.2777,-2.2628,-2.2241,-2.1614,-2.1451,-2.1068,-2.0382,-2.007,-1.9678,-1.9045,-1.8665,-1.8345,-1.8103,-1.7708,-1.7635,-1.7797,-1.7635,-1.7635,-1.7781,-1.7781,0.0,0.0,0.0,0.0,0.0,-1.804,-1.804,-1.804,-1.804,-1.804,-1.7951,-1.7286,-1.7033,-1.7115,-1.7448,-1.7789,-1.804,-1.804,-1.804,-1.7951,-1.7708,-1.7123,0.0,-1.7049,-1.655,-1.5801,-1.6057,-1.6386,-1.664,-1.6064,-1.6476,-1.7057,-1.6738,-1.675,-1.6637,-1.6238,-1.6063,-1.5848,-1.5594,-1.5348,0.0,0.0,0.0,-1.4569,-1.4569,0.0,-1.4569,-1.4784,-1.4633,-1.4489,-1.4489,-1.3905,-1.3178,0.0,-1.1632,-1.1335,-1.1781,-1.0207,-0.9377,-0.9593,-0.7846,-0.6514,-0.575,-0.5562,-0.5347,-0.5096,-0.5595,-0.6452,-0.7425,-0.8432,-0.9244,-0.9946,-1.0911,-1.1435,-1.1688,-1.2881,-1.3476,-1.373,-1.4915,-1.5431,-1.5431,-1.5431,-1.5431,-1.559,-1.7359,-1.7997,-1.8238,-2.6483,-2.5193,-2.3913,-2.3139,-2.3001,-2.3001,-2.3001,-2.3001,-2.3001,-2.3001,-2.2852,-2.2703,-2.2628,-2.2327,-2.2025,-2.2025,-2.1328,-2.0867,-2.0779,-1.9696,-1.9222,-1.9825,-1.8656,-1.8282,-1.8922,-1.8273,-1.7959,-1.7951,-1.7951,-1.7951,0.0,0.0,0.0,0.0,-1.804,-1.804,-1.804,-1.804,-1.804,-1.804,-1.7951,-1.7959,-1.787,-1.7033,-1.7286,-1.804,-1.804,-1.804,0.0,-1.7033,-1.6698,0.0,0.0,0.0,-1.678,-1.77,-1.7789,-1.7619,-1.7392,-1.7221,-1.7057,-1.6738,-1.6222,-1.5801,-1.6134,-1.5697,-1.5213,-1.5205,-1.5197,-1.5078,-1.472,-1.4577,-1.4569,-1.4569,-1.4569,0.0,0.0,-1.5434,-1.5434,-1.5434,-1.4752,-1.3962,-1.3266,-1.2452,-1.2003,-1.2003,-1.1186,-1.0432,-0.9674,-0.8998,-0.8241,-0.7472,-0.6702,-0.6708,-0.7509,-0.7101,-0.7339,-0.8191,-0.9325,-0.9859,-0.9946,-1.0911,-1.1688,-1.2363,-1.3137,-1.3815,-1.4398,-1.509,-1.5431,-1.5431,-1.5431,-1.5431,-1.559,-1.7359,-1.7997,-1.8238,-2.6414,-2.5193,-2.4047,-2.3768,-2.335,-2.3001,-2.3001,-2.3001,-2.2927,-2.2852,-2.2777,-2.2628,-2.2553,-2.2402,-2.2252,-2.2101,-2.1873,-2.1482,-2.0944,-2.0624,-2.0304,-1.9904,-1.9213,-1.8913,-1.9002,-1.8362,-1.804,-1.804,-1.804,-1.804,0.0,0.0,0.0,0.0,0.0,-1.804,-1.804,-1.804,-1.804,-1.804,-1.804,-1.804,-1.7951,-1.77,-1.7708,-1.804,-1.804,-1.804,0.0,-1.7619,-1.7448,-1.7367,-1.7212,-1.7131,-1.7212,-1.7383,-1.7465,-1.7473,0.0,0.0,-1.7057,-1.6976,0.0,-1.6063,-1.6174,-1.5674,-1.5189,-1.5189,-1.499,-1.4784,-1.4665,-1.4569,-1.4713,-1.5141,-1.5213,-1.5426,0.0,-1.6394,-1.6542,-1.6263,-1.5125,-1.4482,-1.4681,-1.3462,-1.2753,-1.3193,-1.2077,-1.1477,-1.1545,-1.0126,-0.9145,-0.8912,-0.7752,-0.7301,-0.7573,-0.745,-0.795,-0.9114,-0.9526,-1.0066,-1.0824,-1.1176,-1.1688,-1.2448,-1.3137,-1.3815,-1.4482,-1.5082,-1.5431,-1.5431,-1.5431,-1.5748,-1.6386,-1.7594,-1.7997,-1.8238,-2.6769,-2.5767,-2.4755,-2.4192,-2.3486,-2.3001,-2.3001,-2.3001,-2.2927,-2.2703,-2.2703,-2.2628,-2.2402,-2.2327,-2.2252,-2.2101,-2.2025,-2.1797,-2.1328,-2.1175,-2.1011,-2.0682,-1.9913,-1.9529,-1.9696,-1.8834,-1.8362,-1.8362,-1.8121,-1.804,0.0,0.0,0.0,0.0,0.0,-1.804,-1.804,-1.804,-1.804,-1.804,-1.804,-1.804,-1.804,-1.804,-1.804,-1.804,0.0,-1.804,-1.804,-1.804,-1.787,-1.7781,-1.7473,-1.7473,-1.7554,-1.7302,-1.7383,-1.7554,-1.7392,-1.7221,0.0,-1.6968,-1.6667,0.0,-1.6167,-1.5764,-1.5422,-1.5284,-1.5161,-1.5054,-1.5196,-1.5338,-1.548,-1.5771,-1.5842,-1.6053,0.0,-1.7019,-1.7304,-1.7304,-1.6184,-1.5551,-1.5895,-1.4816,-1.4258,-1.4569,-1.3237,-1.2572,-1.2945,-1.1316,-1.0351,-1.0351,-0.8983,-0.844,-0.8723,-0.833,-0.8738,-0.9828,-1.006,-1.0468,-1.1219,-1.1563,-1.2112,-1.279,-1.3476,-1.4153,-1.4824,-1.5257,-1.5431,-1.5431,-1.5431,-1.5899,-1.678,-1.7674,-1.8399,-1.9125,-2.7523,-2.6905,-2.5918,-2.4397,-2.3486,-2.3001,-2.3001,-2.3001,-2.2927,-2.2703,-2.2703,-2.2628,-2.2402,-2.2176,-2.2111,-2.2111,-2.1883,-2.1883,-2.2101,-2.1405,-2.1328,-2.2025,-2.0682,-2.0226,-2.0867,-1.9618,-1.9002,-1.9002,-1.8362,-1.804,-1.804,0.0,0.0,0.0,-1.804,-1.804,-1.804,-1.804,-1.804,-1.804,-1.804,-1.804,-1.804,-1.804,-1.804,-1.804,-1.804,-1.804,-1.804,-1.804,-1.804,-1.7959,-1.7554,-1.7716,-1.7959,-1.7554,-1.7716,-1.7878,-1.7302,-1.7139,-1.705,-1.6746,-1.6619,0.0,0.0,0.0,-1.5762,-1.5568,-1.57,-1.5903,-1.6237,-1.6585,-1.6724,-1.6376,-1.6524,-1.6811,-1.7166,-1.7373,-1.7725,-1.8414,-1.7862,-1.7235,-1.6742,-1.6446,-1.6237,-1.6044,-1.4657,-1.378,-1.378,-1.2498,-1.1781,-1.1781,-1.0426,-1.0051,-1.0812,-0.9741,-0.9635,-1.0377,-1.0822,-1.1044,-1.0993,-1.198,-1.2778,-1.3483,-1.4146,-1.4741,-1.5431,-1.5431,-1.5431,-1.5431,-1.5423,-1.5982,-1.6935,-1.7755,-1.9116,-2.0566,-2.7523,-2.6905,-2.5918,-2.4397,-2.3486,-2.3001,-2.3001,-2.2852,-2.2703,-2.2478,-2.2327,-2.2176,-2.1959,-2.1883,-2.1883,-2.1883,-2.1807,-2.1807,-2.1883,-2.1797,-2.1797,-2.1883,-2.1242,-2.0857,-2.0867,-1.9618,-1.9002,-1.9002,-1.8362,-1.804,-1.804,0.0,0.0,0.0,0.0,-1.804,-1.804,-1.804,-1.804,-1.804,-1.804,-1.804,-1.804,0.0,-1.804,-1.804,-1.804,-1.804,-1.804,-1.804,-1.804,-1.7959,-1.7554,-1.7716,-1.7959,-1.7554,-1.7716,-1.7878,-1.7473,-1.7057,-1.6806,-1.6921,-1.6558,-1.6187,0.0,0.0,0.0,0.0,0.0,0.0,0.0,-1.6376,-1.6585,-1.6881,-1.7373,-1.7657,-1.7803,-1.793,-1.8202,-1.8482,-1.8337,-1.7998,-1.7501,-1.6594,-1.6035,-1.5974,-1.5658,-1.5084,-1.4378,0.0,-1.3084,-1.2378,-1.1552,-1.1254,-1.1484,-1.1172,-1.1006,-1.0973,-1.11,-1.1117,-1.1071,-1.1801,-1.2608,-1.3483,-1.4146,-1.4741,-1.5431,-1.5431,-1.5431,-1.5431,-1.6147,-1.7269,-1.8647,-1.8895,-1.9687,-2.0566,-2.7523,-2.6905,-2.5988,-2.485,-2.4215,-2.379,-2.3446,-2.3075,-2.2852,-2.2927,-2.2553,-2.2176,-2.1959,-2.1873,-2.1807,-2.1807,-2.1807,-2.1807,-2.1959,-2.1959,-2.1949,-2.1949,-2.1645,-2.1405,-2.1339,-2.0323,-1.9696,-1.9371,-1.8754,0.0,-1.804,0.0,0.0,0.0,0.0,-1.804,-1.804,-1.804,-1.804,-1.804,-1.804,-1.804,0.0,-1.804,-1.804,-1.804,-1.804,-1.804,-1.804,-1.804,-1.804,-1.7959,-1.7554,-1.7554,-1.7635,-1.7229,-1.7221,-1.7465,-1.7383,-1.7212,-1.7082,-1.7415,-1.719,-1.6963,-1.6991,-1.6897,-1.6733,0.0,-1.6733,-1.6802,0.0,0.0,-1.7354,-1.7647,-1.793,-1.8144,-1.8144,-1.8337,-1.8539,-1.8617,-1.8607,-1.8539,-1.8192,-1.7501,-1.7019,-1.7088,-1.6724,-1.6289,0.0,0.0,-1.4171,-1.3608,-1.2592,-1.2077,-1.2077,-1.1855,-1.1633,-1.1411,-1.1295,-1.1268,-1.1474,-1.1996,-1.277,-1.3625,-1.4289,-1.4954,-1.5431,-1.5431,-1.5582,-1.6064,-1.7359,-1.8407,-1.9381,-1.9696,-2.0167,-2.0566,-2.7523,-2.6973,-2.6277,-2.5581,-2.53,-2.4933,-2.425,-2.3582,-2.3287,-2.353,-2.299,-2.2467,-2.2101,-2.2035,-2.1873,-2.1807,-2.1807,-2.1883,-2.2025,-2.1883,-2.1883,-2.2025,-2.1883,-2.1807,-2.1807,-2.1175,-2.0624,-2.006,-1.946,-1.8834,0.0,0.0,0.0,0.0,0.0,0.0,0.0,-1.804,-1.804,-1.804,-1.804,-1.804,-1.804,-1.804,-1.804,-1.7951,-1.7959,-1.7959,-1.804,-1.804,-1.804,-1.7959,-1.7554,-1.7473,-1.7392,-1.6902,-1.6894,-1.7057,-1.7277,-1.7398,-1.7598,-1.7872,-1.8101,-1.8026,-1.7413,-1.7373,-1.7451,-1.7314,-1.7373,-1.7588,-1.794,0.0,-1.8434,-1.8417,-1.8309,-1.8269,-1.8269,-1.8539,-1.8741,-1.8741,-1.8741,0.0,-1.8808,-1.8539,-1.8337,-1.8482,-1.7774,-1.7345,0.0,0.0,-1.5037,-1.4903,-1.347,-1.2746,-1.2746,-1.2224,-1.1929,-1.1781,-1.1493,-1.1621,-1.2126,-1.2446,-1.3034,-1.3885,-1.4588,-1.5101,-1.5372,-1.5492,-1.6147,-1.718,-1.8727,-1.9381,-1.9618,-2.0333,-2.0654,-2.0644,-2.7523,-2.739,-2.704,-2.6346,-2.6057,-2.5849,-2.5581,-2.4779,-2.3998,-2.3446,-2.3632,-2.3316,-2.2025,-2.2402,-2.2553,-2.1883,-2.1807,-2.1807,-2.1883,-2.1807,-2.1807,-2.1883,-2.1807,-2.1807,-2.1807,-2.1175,-2.0934,-2.1001,-2.0313,-1.9696,0.0,0.0,0.0,0.0,0.0,0.0,-1.804,-1.804,0.0,-1.804,-1.804,-1.804,-1.804,-1.804,-1.804,-1.7959,-1.7635,-1.7716,-1.804,-1.804,-1.804,-1.7959,-1.7959,-1.7878,-1.7797,-1.7392,-1.7806,-1.8201,-1.761,-1.7615,-1.7898,-1.7959,-1.7743,-1.7602,-1.7841,-1.7872,-1.7872,-1.7872,-1.7872,-1.794,-1.8008,0.0,0.0,-1.8825,-1.8576,-1.8269,-1.8076,-1.8279,-1.8405,-1.8549,-1.8549,-1.8674,-1.9008,-1.8674,-1.8482,-1.8482,-1.8472,-1.8114,0.0,0.0,-1.5596,0.0,-1.3768,0.0,0.0,0.0,-1.29,-1.2452,-1.2351,-1.2273,-1.212,-1.2716,-1.3212,-1.3505,-1.4495,-1.4896,-1.5043,-1.6024,-1.7432,-1.8895,-1.9143,-1.9863,-2.0664,-2.0829,-2.0974,-2.1051,-2.7523,-2.7523,-2.7242,-2.6414,-2.6414,-2.6358,-2.5804,-2.5581,-2.5229,-2.4599,-2.4348,-2.3975,-2.3254,-2.3412,-2.3265,-2.2478,-2.2756,-2.267,-2.1873,-2.2176,-2.2252,-2.1807,-2.1807,-2.1807,-2.1807,-2.1492,-2.1328,-2.1165,-2.0857,-2.0235,-1.9301,0.0,0.0,-1.804,0.0,-1.8362,0.0,0.0,0.0,-1.804,-1.804,-1.804,-1.804,-1.804,-1.804,-1.7951,-1.7797,-1.7878,-1.7951,-1.7465,-1.7302,-1.7302,-1.7302,-1.7465,-1.761,-1.7456,-1.7861,-1.8345,-1.8416,-1.8364,-1.8357,-1.8629,-1.836,-1.8024,-1.8037,-1.8008,-1.8008,-1.8008,-1.8008,-1.8008,-1.8008,-1.8134,0.0,0.0,-1.8418,-1.8347,-1.8212,-1.8279,-1.8414,-1.8482,-1.8617,-1.8741,-1.8942,-1.8875,-1.8741,-1.8674,-1.8751,-1.8539,0.0,0.0,-1.6576,0.0,0.0,0.0,-1.4049,0.0,-1.3346,-1.3046,-1.2746,-1.2674,-1.2818,-1.2818,-1.3134,-1.374,-1.4214,-1.4633,-1.5043,-1.679,-1.831,-1.9529,-2.0089,-2.0498,-2.0906,-2.0984,-2.1138,-2.1205,-2.7469,-2.7469,-2.7188,-2.6414,-2.6645,-2.6671,-2.5955,-2.6245,-2.6245,-2.5606,-2.5146,-2.4707,-2.4337,-2.4337,-2.4059,-2.3276,-2.3768,-2.3548,-2.2176,-2.2628,-2.2628,-2.1807,-2.1807,-2.1807,-2.1807,-2.1807,-2.1645,-2.1395,-2.1395,-2.0847,0.0,-1.9608,0.0,0.0,0.0,0.0,0.0,0.0,-1.8594,-1.804,-1.804,-1.804,-1.804,-1.804,-1.804,-1.7959,-1.7878,-1.7878,-1.7797,-1.7139,-1.7057,-1.7221,-1.7221,-1.7529,-1.7908,-1.7836,-1.8158,-1.8621,-1.9113,-1.9025,-1.8845,-1.9175,-1.8818,-1.8418,-1.8154,-1.8008,-1.8008,-1.8008,-1.8008,-1.8037,-1.8203,-1.8271,0.0,0.0,0.0,-1.8414,-1.8269,-1.8347,-1.8414,-1.8482,-1.8617,-1.8674,-1.8741,-1.8942,-1.8942,-1.8741,-1.8808,-1.8674,-1.8482,0.0,0.0,0.0,0.0,-1.4887,-1.4887,0.0,-1.3702,-1.3702,-1.3112,-1.3046,-1.3499,-1.3046,-1.3181,-1.3879,-1.3953,-1.4572,-1.5583,-1.759,-1.8955,-1.9923,-2.0722,-2.1051,-2.0984,-2.1128,-2.1282,-2.1359,-2.7335,-2.7335,-2.7201,-2.6943,-2.6794,-2.6714,-2.6577,-2.6521,-2.6245,-2.5453,-2.5886,-2.5721,-2.4264,-2.4779,-2.4862,-2.4047,-2.4047,-2.3768,-2.2916,-2.2927,-2.2628,-2.1807,-2.1807,-2.1807,-2.1807,-2.1807,-2.1883,-2.2025,-2.2176,-2.1863,0.0,-2.0615,0.0,0.0,0.0,0.0,0.0,-1.9002,-1.8594,-1.804,-1.804,-1.804,-1.804,-1.804,-1.804,-1.7951,-1.7554,-1.7473,-1.7473,-1.7538,-1.8103,-1.8754,-1.8754,-1.9213,-1.958,-1.9265,-1.9668,-2.0159,-1.9238,-1.9286,-1.9374,-1.9011,-1.8518,-1.8125,-1.8212,-1.8144,-1.8008,-1.8008,-1.8008,-1.8203,-1.8795,-1.8537,-1.8398,0.0,0.0,-1.8279,-1.8076,-1.8008,-1.8144,-1.8279,-1.8337,-1.8405,-1.8549,-1.8674,-1.8741,-1.8549,-1.8684,-1.8674,0.0,0.0,0.0,-1.7079,-1.6289,-1.5869,-1.5869,-1.495,-1.4466,-1.4466,-1.3768,-1.3419,-1.3492,-1.3419,-1.3441,-1.3558,-1.385,-1.5241,-1.7354,-1.8398,-1.9495,-2.0489,-2.0644,-2.0886,-2.1205,-2.1205,-2.1436,-2.1731,-2.7146,-2.7146,-2.7079,0.0,0.0,0.0,0.0,-2.6521,-2.6383,-2.6025,-2.6314,-2.6233,-2.5581,-2.5804,-2.5734,-2.4862,-2.5288,-2.5004,-2.3768,-2.4143,-2.379,-2.2553,-2.2553,-2.2327,-2.1807,-2.1807,-2.1883,-2.2101,-2.2327,-2.2014,0.0,0.0,0.0,0.0,0.0,-1.9923,-1.9529,-1.9529,-1.9143,-1.8603,-1.8201,-1.804,-1.804,-1.804,-1.804,-1.7959,-1.7797,-1.7959,-1.821,-1.8282,-1.8273,-1.8264,-1.8638,-1.9265,-1.9816,-1.959,-2.0089,-2.0566,-1.9802,-1.9451,-1.9324,-1.8811,-1.8389,-1.8008,-1.8076,-1.8076,-1.8008,-1.8008,-1.8008,-1.8057,-1.837,-1.832,-1.8329,-1.838,0.0,0.0,-1.8008,-1.8008,-1.8008,-1.8144,-1.8212,-1.8337,-1.8337,-1.8607,-1.8741,-1.8684,-1.8875,-1.8808,0.0,0.0,0.0,-1.792,0.0,-1.6645,-1.6645,-1.5737,-1.5242,-1.5242,-1.4545,-1.4186,-1.4122,-1.3702,-1.3775,-1.4209,-1.499,-1.6321,-1.797,-1.8662,-1.9707,-2.0819,-2.0886,-2.0974,-2.1061,-2.1138,-2.1205,-2.1282,-2.7281,0.0,-2.7134,0.0,-2.6658,-2.6589,-2.6533,-2.6533,-2.6533,-2.6533,-2.6533,-2.6533,-2.6533,-2.6533,-2.6245,-2.5664,-2.6176,-2.5943,-2.4552,-2.5004,-2.4731,-2.335,-2.315,-2.2703,-2.2187,-2.1959,-2.1883,-2.2025,-2.2176,-2.209,0.0,0.0,0.0,0.0,-2.0702,-2.0624,-2.0216,-2.0216,-1.9835,-1.9222,-1.8745,-1.8585,-1.8585,-1.8585,-1.8505,-1.8505,-1.8505,-1.8674,-1.8931,-1.9091,-1.8834,-1.8576,-1.8948,-1.9659,-2.0226,-2.0079,-2.0401,-2.0695,-2.0003,-1.9497,-1.9066,-1.8625,-1.8232,-1.8008,-1.8076,-1.8008,-1.8008,-1.8008,-1.8008,-1.8008,-1.8008,-1.8144,-1.8144,-1.8008,0.0,0.0,0.0,-1.8008,-1.8008,-1.8076,-1.8202,-1.8337,-1.8337,-1.8607,-1.8808,-1.8808,-1.9008,0.0,0.0,0.0,0.0,0.0,0.0,0.0,-1.7423,-1.6515,-1.6018,-1.6026,-1.5313,-1.4887,-1.4887,-1.441,-1.4402,-1.4974,-1.6028,-1.7026,-1.8027,-1.8892,-1.9773,-2.0641,-2.0914,-2.0974,-2.0906,-2.1061,-2.1061,-2.0984,-2.7973,-2.7776,-2.7523,-2.6658,-2.6533,-2.6533,-2.6533,-2.6533,-2.6533,-2.6533,-2.6533,-2.6533,-2.6533,-2.6533,-2.6533,-2.6465,-2.6452,-2.6164,-2.5312,-2.53,-2.4933,0.0,-2.3423,-2.3001,-2.3001,-2.2176,-2.1807,-2.1807,-2.2025,0.0,-2.1807,0.0,-2.0867,-2.0867,-2.0867,-2.0867,-2.0867,-2.0867,-2.0459,-1.9904,-1.9904,-1.9904,-1.9904,-1.9904,-1.9747,-1.9599,-1.9599,-1.945,-1.9381,-2.002,-2.0264,-2.0264,-2.0264,-2.0741,-2.1205,-2.1205,-2.0903,-2.0471,-1.978,-1.9332,-1.8904,-1.8388,-1.8144,-1.8076,-1.8269,-1.8134,-1.8008,-1.8008,-1.8008,-1.8008,-1.8008,-1.8008,-1.8008,-1.8008,0.0,0.0,0.0,-1.8008,-1.8076,-1.8269,-1.8269,-1.8337,-1.8482,-1.8674,-1.8808,-1.8808,0.0,0.0,0.0,0.0,0.0,-1.8337,-1.8269,0.0,-1.8269,-1.7354,-1.6862,-1.6862,-1.6088,-1.5675,-1.5675,-1.5675,-1.5675,-1.5745,-1.6655,-1.725,-1.7604,-1.8986,-1.9708,-1.9961,-2.04,-2.0731,-2.0906,-2.0906,-2.1061,-2.1205,-2.8312,-2.826,-2.8195,-2.792,-2.7484,-2.7162,-2.7162,-2.6782,-2.6533,-2.6533,-2.6533,-2.6533,-2.6533,-2.6533,-2.6533,0.0,-2.6533,-2.6383,0.0,-2.6107,-2.5734,-2.4933,-2.4659,-2.4082,-2.3001,-2.2777,-2.2327,-2.1807,0.0,0.0,0.0,-2.1797,-2.1645,-2.1492,-2.1492,-2.1492,-2.1492,-2.1098,-2.0779,-2.0547,-1.9913,-1.9678,-1.9678,-1.9529,-1.945,-1.9381,-1.9381,-1.9539,-1.9706,-1.9942,-2.0255,-2.0489,-2.0489,-2.0809,-2.1145,-2.0671,-2.0406,-2.0138,-1.9177,-1.8811,-1.8605,-1.8184,-1.8076,-1.8008,-1.8076,-1.8076,-1.8008,-1.8008,-1.8008,-1.8008,-1.8008,-1.8008,-1.8008,-1.8008,-1.8008,0.0,-1.8008,0.0,-1.8076,-1.8269,-1.8269,-1.8337,-1.8482,-1.8674,-1.8875,0.0,0.0,0.0,0.0,0.0,0.0,0.0,-1.8539,0.0,-1.8269,-1.7862,-1.7647,-1.7647,-1.6872,-1.6228,-1.5745,-1.6237,-1.6515,-1.6585,-1.7364,-1.7896,-1.8318,-1.9111,-1.9615,-1.9961,-2.0391,-2.0644,-2.0731,-2.0731,-2.0819,-2.0984,-2.8953,-2.8889,-2.8826,-2.8556,-2.8182,-2.7855,-2.7855,-2.7284,-2.6905,-2.6905,-2.6658,-2.6533,-2.6533,-2.6533,0.0,-2.6533,-2.6533,-2.6533,-2.6533,-2.6533,-2.6245,-2.5746,-2.5453,-2.4874,-2.3863,-2.357,0.0,-2.267,-2.2542,-2.2252,-2.1959,-2.1959,-2.1959,-2.1807,-2.1807,-2.1807,-2.1807,-2.1415,-2.1252,-2.1175,-2.0624,-2.0469,-2.0391,-2.0313,-2.0167,-2.0089,-2.002,-2.0098,-2.0264,-2.0264,-2.0304,-2.0322,-2.0399,-2.0444,-2.0456,-2.0177,-1.9826,-1.9462,-1.8779,-1.8525,-1.834,-1.8076,-1.8008,-1.8008,-1.8008,-1.8008,-1.8008,-1.8008,-1.8008,-1.8008,-1.8008,-1.8008,-1.8008,-1.8008,-1.8202,-1.8269,-1.8008,-1.8202,-1.8405,-1.8405,-1.8337,-1.8405,0.0,-1.8741,-1.8875,0.0,0.0,0.0,0.0,0.0,0.0,-1.8684,-1.8549,-1.8414,-1.8269,-1.8212,-1.8076,-1.8008,-1.751,-1.7079,-1.6594,-1.7079,-1.7295,-1.7364,-1.7794,-1.8154,-1.8447,-1.9043,-1.9443,-1.9736,-2.0332,-2.0566,-2.0644,-2.0654,-2.0819,-2.0906,-2.9808,-2.9685,-2.9421,0.0,-2.862,-2.8556,-2.8556,-2.7986,-2.7537,-2.7537,-2.704,-2.6658,-2.6658,-2.6589,-2.6589,-2.6589,0.0,0.0,-2.6533,-2.6533,-2.6533,-2.6533,-2.5816,-2.5382,-2.5312,-2.4564,-2.412,-2.4047,-2.3276,-2.2553,-2.1807,-2.1807,-2.1807,-2.1807,-2.1807,-2.1807,-2.1807,-2.1807,-2.1807,-2.1807,-2.1807,-2.1807,-2.1731,-2.1731,-2.1578,-2.1425,-2.1205,-2.1041,-2.0857,-2.0857,-2.0397,-1.9863,-2.0088,-1.9728,-1.9316,-1.9717,-1.9268,-1.8562,-1.8603,-1.8311,-1.8008,-1.8008,-1.8008,-1.8008,-1.8008,-1.8008,-1.8008,-1.8008,-1.8008,-1.8008,-1.8008,-1.8008,-1.8008,-1.8008,-1.8519,-1.8721,-1.8134,-1.8596,-1.8921,-1.8674,0.0,0.0,-1.9075,-1.8942,-1.8875,0.0,0.0,0.0,0.0,0.0,-1.8942,-1.8549,-1.8549,-1.8482,-1.8337,-1.8337,-1.8212,-1.8008,-1.8008,-1.8008,-1.8008,-1.8008,-1.8008,-1.8008,-1.8008,-1.8008,-1.8076,-1.8936,-1.9287,-1.9375,-2.0225,-2.0566,-2.0644,-2.0819,-2.0906,-2.0984,0.0,0.0,-3.0312,-3.0115,-2.967,-2.9359,-2.9359,-2.8698,-2.8247,-2.8247,-2.8117,-2.8051,-2.8051,-2.7537,-2.7297,-2.7297,-2.6782,-2.6533,-2.6533,-2.6533,-2.6533,-2.6533,-2.6314,-2.5955,-2.5312,-2.5087,-2.4432,-2.3287,-2.2467,-2.1959,-2.1807,-2.1807,-2.1807,-2.1807,-2.1807,-2.1807,-2.1807,-2.1807,-2.1807,-2.1807,-2.1655,-2.1502,-2.1359,-2.1205,-2.0974,-2.0799,-2.0722,-2.0515,-2.0154,-2.0154,-1.987,-1.9434,-1.9507,-1.9141,-1.8809,-1.8906,-1.8789,-1.8494,-1.8242,-1.8086,-1.8008,-1.8008,-1.8008,-1.8008,-1.8008,-1.8008,-1.8008,-1.8008,-1.8008,-1.8008,-1.8008,-1.8008,-1.8008,-1.8008,-1.8144,-1.8327,-1.8721,-1.8911,-1.9243,0.0,-1.9441,-1.9243,-1.9671,-1.9142,-1.8942,0.0,0.0,-1.9274,-1.9274,-1.9274,-1.9075,-1.8741,-1.8741,-1.8607,-1.8482,-1.8482,-1.8414,-1.8414,-1.8414,-1.8414,-1.8414,-1.8414,-1.8414,-1.8414,-1.8414,-1.8347,-1.8281,-1.916,-1.9442,-1.9375,-2.0225,-2.0566,-2.0644,-2.0819,-2.0984,-2.1128,-3.0568,-3.0568,-3.0568,-3.0568,-3.0312,-3.0068,-3.0068,-2.9484,-2.9016,-2.9016,-2.8698,-2.8492,-2.8492,-2.8182,-2.7986,-2.7986,-2.704,-2.6533,-2.6533,-2.6533,-2.6533,-2.6533,-2.6533,-2.6314,-2.5886,-2.5886,-2.5087,-2.3486,-2.2767,-2.2176,-2.1807,-2.1807,-2.1807,-2.1807,-2.1807,-2.1807,-2.1807,-2.1807,-2.1807,-2.1807,-2.1655,-2.1456,-2.112,-2.1045,-2.0762,-2.0497,-2.0367,-2.0143,-1.9861,-1.9777,-1.9419,-1.9056,-1.9474,-1.9233,-1.8881,-1.9213,-1.8813,-1.8301,-1.8076,-1.8008,-1.8008,-1.8008,-1.8008,-1.8008,-1.8008,-1.8008,-1.8008,-1.8008,-1.8008,-1.8008,-1.8008,-1.8008,-1.8008,-1.8008,-1.8337,-1.8721,-1.8977,-1.9375,-1.9835,-2.0366,-1.9966,-1.9835,-2.0183,-1.9846,-1.9584,-1.9605,-1.9594,0.0,-1.9208,-1.9142,-1.9008,-1.8942,-1.8942,-1.8808,-1.8617,-1.8549,-1.8482,-1.8482,-1.8482,-1.8482,-1.8482,-1.8482,-1.8482,-1.8414,-1.8414,-1.8347,-1.8213,-1.9088,-1.937,-1.9375,-2.0225,-2.0566,-2.0644,-2.0819,-2.0984,-2.1061,-3.0568,-3.0568,-3.0568,-3.0568,-3.0568,-3.0568,-3.0568,-3.0129,-2.9747,-2.9747,-2.9136,-2.8688,-2.8688,-2.8479,-2.8348,-2.8348,-2.7223,-2.6536,-2.6645,-2.6658,-2.6589,-2.6533,-2.6533,-2.6533,-2.6533,-2.6383,-2.5581,-2.4108,-2.335,-2.2628,-2.1807,-2.1735,-2.1694,-2.1694,-2.1631,-2.16,-2.16,-2.16,-2.16,-2.16,-2.16,-2.1298,-2.0947,-2.0864,-2.0617,-2.0216,-1.9877,-1.9765,-1.9715,-1.9479,-1.9039,-1.8675,-1.9428,-1.9297,-1.8977,-1.9573,-1.8931,-1.8008,-1.8134,-1.8076,-1.8008,-1.8008,-1.8008,-1.8008,-1.8008,-1.8008,-1.8008,-1.8008,-1.8008,-1.8008,-1.8008,-1.8008,-1.8008,-1.8008,-1.8664,-1.911,-1.9044,0.0,-2.0291,-2.056,-2.0355,-2.0366,-2.0752,-2.0666,-2.0473,-2.0118,-2.0172,-1.9977,-1.9462,-1.9264,-1.9198,-1.9396,-1.9208,-1.9008,-1.8875,-1.8674,-1.8617,-1.8617,-1.8617,-1.8549,-1.8549,-1.8549,-1.8482,-1.8337,-1.8337,-1.8212,-1.8144,-1.8929,-1.9228,-1.9365,-2.0156,-2.0508,-2.0644,-2.0819,-2.0906,-2.0984,-3.0568,-3.0568,-3.0568,-3.0568,-3.0568,-3.0568,-3.0568,-3.0507,-3.0447,-3.0447,-2.9851,-2.9446,-2.9446,-2.8415,-2.7722,-2.7722,-2.6999,-2.6807,-2.7285,-2.7351,-2.7095,-2.6521,-2.6533,-2.6533,-2.6533,-2.5816,-2.5004,-2.4108,-2.335,-2.2628,-2.1797,-2.1404,-2.1217,-2.1207,-2.0814,-2.0638,-2.0638,-2.0638,-2.0638,-2.0638,-2.0514,-2.0266,-2.006,-1.9895,-1.97,-1.9433,-1.9433,-1.9125,-1.8811,-1.874,-1.8457,-1.8105,-1.8242,-1.8261,-1.8212,-1.8269,-1.8144,-1.8134,-1.8721,-1.8462,-1.8008,-1.8008,-1.8008,-1.8008,-1.8008,-1.8008,-1.8008,-1.8008,-1.8008,-1.8008,-1.8008,-1.8008,-1.8076,-1.8212,-1.8202,-1.8462,-1.9177,0.0,-1.989,-2.1123,-2.0794,-2.0858,-2.1628,-2.1152,-2.0835,-2.0933,-2.0933,-2.0869,-2.0805,-2.0741,-2.0741,-2.0805,-1.9518,-1.8942,-1.9065,-1.9008,-1.9008,-1.9008,-1.9008,-1.8942,-1.8741,-1.8741,-1.8684,-1.8482,-1.8482,-1.8414,-1.8309,-1.8735,-1.9098,-1.9336,-1.9824,-2.0244,-2.0644,-2.0819,-2.0984,-2.1138,-3.0568,-3.0568,-3.0568,-3.0568,-3.0568,-3.0451,-3.0118,-3.006,-2.9929,-2.9595,-2.9305,-2.9116,-2.9116,-2.8541,-2.8183,-2.8183,-2.7938,-2.7694,-2.7563,-2.6927,-2.6259,-2.564,-2.5573,-2.5573,-2.5573,-2.4798,-2.4217,-2.3861,-2.2704,-2.201,-2.1647,-2.099,-2.0741,-2.0731,-2.0524,-2.0359,-2.0298,-2.0298,-2.0216,-2.0135,-2.0073,-1.9798,-1.9525,-1.9444,-1.9153,-1.8874,-1.8804,-1.8606,-1.8429,-1.8291,-1.8164,-1.8076,-1.8395,-1.8787,-1.9187,-1.9573,-1.8854,-1.8076,-1.8405,-1.8529,-1.8462,-1.8076,-1.8596,-1.8921,-1.8134,-1.8596,-1.8988,-1.8586,-1.8854,-1.9121,-1.9121,-1.9121,-1.9187,-1.9253,-1.9253,0.0,-2.015,-2.002,-2.0409,-2.1776,-2.0996,-2.0858,-2.2211,-2.1678,-2.129,-2.1502,-2.1628,-2.1502,-2.1123,-2.0985,-2.0985,-2.1123,-2.0042,-1.9396,-1.9075,-1.9075,-1.9075,-1.8942,-1.9065,-1.8942,-1.8617,-1.8741,-1.8674,-1.8405,-1.8405,-1.8279,-1.8173,-1.8596,-1.8958,-1.9326,-1.9746,-2.0185,-2.0644,-2.0731,-2.0809,-2.0964,-3.0132,-3.0132,-3.0132,-3.0132,-3.0132,-2.9972,-2.9479,-2.9406,-2.9232,-2.8739,-2.855,-2.8463,-2.8463,-2.8332,-2.8231,-2.8231,-2.8231,-2.7937,-2.7256,-2.6142,-2.5374,-2.5052,-2.4885,-2.482,-2.482,-2.4186,-2.3779,-2.3622,-2.2491,-2.1885,-2.1677,-2.0801,-2.0407,-2.0407,-2.0091,-1.9909,-1.9788,-1.9788,-1.9707,-1.9545,-1.9545,-1.9284,-1.8993,-1.8924,-1.8714,-1.8347,-1.8279,-1.8212,-1.8202,-1.8076,-1.8076,-1.8327,-1.8844,-1.9507,-2.0226,-2.0741,-1.977,-1.8529,-1.8664,-1.8988,-1.911,-1.8596,-1.932,-1.9846,-1.8731,-1.932,-1.9966,-1.9375,-1.9704,-2.0031,-1.9901,-1.9966,-2.0042,-1.9901,0.0,-2.0495,-2.0869,-2.0624,-2.0816,-2.2037,-2.1123,-2.106,-2.2555,-2.2013,-2.1753,-2.2075,-2.2002,-2.1803,-2.1514,-2.1353,-2.129,-2.1302,-2.0549,-1.9846,-1.933,-1.9208,-1.9008,-1.8875,-1.9008,-1.8942,-1.8549,-1.8741,-1.8607,-1.8337,-1.8337,-1.8269,-1.8299,-1.8419,-1.8941,-1.9598,-1.9787,-2.0174,-2.0722,-2.0722,-2.0876,-2.1098,-2.8826,-2.8826,-2.8826,-2.8826,-2.8826,-2.8797,-2.8753,-2.8753,-2.8739,-2.8695,-2.8173,-2.7741,-2.7741,-2.7273,-2.6924,-2.6924,-2.6924,-2.6697,-2.6089,-2.5382,-2.5239,-2.5608,-2.5116,-2.482,-2.482,-2.4755,-2.4329,-2.3622,-2.3501,-2.3089,-2.24,-2.1079,-2.0475,-2.0454,-1.9162,-1.865,-1.865,-1.865,-1.865,-1.8572,-1.8504,-1.8417,-1.8319,-1.8193,-1.8037,-1.8008,-1.8008,-1.8008,-1.8008,-1.8008,-1.8395,-1.8911,-1.8977,-1.9507,-2.0096,-2.0161,-2.0096,-2.0096,-2.0677,-2.042,-2.0031,-1.9966,-2.0031,-2.0096,-1.9977,-2.0042,-2.0096,-2.0031,-2.0031,-1.9901,-1.9243,-1.9639,-1.9966,-1.9431,0.0,0.0,-2.042,-2.042,-2.0677,-2.1388,-2.1502,-2.1827,-2.2616,-2.2013,-2.1889,-2.2616,-2.2013,-2.1889,-2.2555,-2.2665,-2.2506,-2.2051,-2.0794,-2.0107,-2.0042,-1.9396,-1.9065,-1.9065,-1.9065,-1.9008,-1.8808,-1.8808,-1.8674,-1.8482,-1.8337,-1.8664,-1.911,-1.8367,-1.9013,-2.0471,-1.9877,-2.0217,-2.1128,-2.1128,-2.1655,-2.2252,-2.8681,-2.8681,-2.8681,-2.8681,-2.8681,-2.855,-2.8144,-2.8086,-2.7955,-2.7549,-2.7287,-2.7142,-2.7142,-2.6924,-2.6779,-2.6779,-2.6779,-2.6674,-2.6447,-2.5522,-2.4753,-2.4096,-2.3889,-2.3778,-2.3778,-2.3778,-2.358,-2.3193,-2.2727,-2.2332,-2.1934,-2.0588,-1.9927,-1.9927,-1.8957,-1.8482,-1.8405,-1.8405,-1.8279,-1.8212,-1.8144,-1.8144,-1.8144,-1.8008,-1.8008,-1.8008,-1.8008,-1.8269,-1.8586,-1.8586,-1.911,-1.9704,-1.9704,-2.0161,-2.0805,-2.1273,-2.14,-2.1474,-2.1726,-2.1262,-2.0613,-2.0226,-2.0752,-2.1146,-2.0302,-2.0752,-2.1273,-2.0805,-2.1071,-2.1336,-2.1008,-2.121,-2.1336,-2.1135,0.0,-2.1411,-2.1537,-2.1135,-2.1123,-2.1901,-2.1187,-2.1187,-2.2555,-2.1963,-2.1827,-2.2616,-2.242,-2.242,-2.269,-2.2739,-2.2665,-2.2469,-2.1502,-2.073,-2.0107,-1.9846,-1.9452,-1.8942,-1.8942,-1.8741,-1.8472,-1.8472,-1.8596,-1.8787,-1.8787,-1.911,-1.9704,-1.8921,-1.9308,-2.04,-2.0267,-2.0749,-2.1624,-2.2155,-2.2521,-2.282,-2.8086,-2.8086,-2.8086,-2.8086,-2.8086,-2.794,-2.7505,-2.7432,-2.7273,-2.6837,-2.6779,-2.6779,-2.6779,-2.6779,-2.6779,-2.6779,-2.6779,-2.6779,-2.6779,-2.5701,-2.4439,-2.3138,-2.3078,-2.3078,-2.3078,-2.3078,-2.2957,-2.2641,-2.2187,-2.1803,-2.1428,-2.0237,-1.966,-1.9594,-1.8808,-1.8347,-1.8202,-1.8202,-1.8144,-1.8008,-1.8008,-1.8008,-1.8008,-1.8008,-1.8144,-1.8337,-1.8337,-1.8787,-1.9375,-1.9375,-1.9835,-2.042,-2.042,-2.088,-2.1526,-2.2061,-2.2197,-2.2197,-2.2197,-2.1862,-2.1336,-2.088,-2.1474,-2.1937,-2.1008,-2.1537,-2.2061,-2.1526,-2.1862,-2.2123,-2.1925,-2.2061,-2.2123,-2.1862,-2.2061,-2.2197,-2.2197,-2.1788,-2.1651,-2.2297,-2.14,-2.121,-2.2432,-2.1776,-2.1651,-2.2494,-2.2359,-2.2297,-2.2616,-2.2616,-2.2616,-2.269,-2.2211,-2.1502,-2.0613,-2.0355,-1.9977,-1.9396,-1.9396,-1.9264,-1.8998,-1.8998,-1.9187,-1.9507,-1.9441,-1.9835,-2.042,-1.9704,-1.9963,-2.0893,-2.0903,-2.1373,-2.2168,-2.2914,-2.3338,-2.3548,-2.6779,-2.6779,-2.6779,-2.6779,-2.6779,-2.6779,-2.6779,-2.6779,-2.6779,-2.6779,-2.6779,-2.6779,-2.6779,-2.6779,-2.6779,-2.6779,-2.6779,-2.6779,-2.6779,-2.5632,-2.4439,-2.3138,-2.3078,-2.3078,-2.3078,-2.3065,-2.275,-2.2101,-2.2113,-2.1741,-2.1071,-2.0226,-1.9704,-1.9562,-1.8664,-1.8212,-1.8008,-1.8008,-1.8008,-1.8008,-1.8008,-1.8008,-1.8008,-1.8008,-1.8395,-1.8977,-1.8977,-1.9441,-2.0096,-2.0107,-2.0549,-2.1123,-2.1123,-2.1588,-2.2197,-2.2197,-2.2197,-2.2197,-2.2197,-2.2197,-2.2197,-2.2197,-2.2197,-2.2197,-2.2197,-2.2197,-2.2197,-2.2197,-2.2197,-2.1987,-2.1262,-2.1726,-2.1987,-2.1262,-2.1726,-2.2197,-2.2197,-2.2197,-2.2197,-2.2197,-2.2197,-2.2197,-2.2197,-2.1526,-2.1388,-2.2123,-2.1526,-2.1514,-2.2359,-2.242,-2.2482,-2.269,-2.269,-2.2347,-2.1616,-2.0944,-2.0646,-2.0571,-2.0571,-2.0571,-2.0571,-2.0571,-2.0571,-2.0571,-2.0431,-2.0805,-2.1325,-2.0484,-2.0915,-2.2082,-2.1879,-2.2184,-2.2849,-2.3414,-2.402,-2.4527,-2.6779,-2.6779,-2.6779,-2.6779,-2.6779,-2.6779,-2.6779,-2.6779,-2.6779,-2.6779,-2.6779,-2.6779,-2.6779,-2.6779,-2.6779,-2.6779,-2.6779,-2.6433,-2.5577,-2.5189,-2.4439,-2.3138,-2.3078,-2.3078,-2.3078,-2.2616,-2.2249,-2.1939,-2.1353,-2.0921,-2.0613,-1.9704,-1.9243,-1.9177,-1.8395,-1.8076,-1.8008,-1.8008,-1.8008,-1.8008,-1.8008,-1.8008,-1.8008,-1.8008,-1.8134,-1.8327,-1.8844,-1.9441,-2.0161,-2.0613,-2.1273,-2.1862,-2.1862,-2.1987,-2.2197,-2.2197,-2.2197,-2.2197,-2.2197,-2.2197,-2.2197,-2.2197,-2.2197,-2.2197,-2.2197,-2.2197,-2.2197,-2.2197,-2.2197,-2.2123,-2.1925,-2.2061,-2.2123,-2.1925,-2.2061,-2.2197,-2.2197,-2.2197,-2.2197,-2.2197,-2.2197,-2.2197,-2.2197,-2.1999,-2.1987,-2.2185,-2.1999,-2.1987,-2.2247,-2.2247,-2.2309,-2.2383,-2.2383,-2.2247,-2.2049,-2.1514,-2.1071,-2.0571,-2.0495,-2.0431,-2.0431,-2.0302,-2.0237,-2.0302,-2.0677,-2.0996,-2.1187,-2.0933,-2.124,-2.195,-2.2297,-2.2742,-2.3324,-2.44,-2.4886,-2.5087,-2.6779,-2.6779,-2.6779,-2.6779,-2.6779,-2.6779,-2.6779,-2.6779,-2.6779,-2.6779,-2.6779,-2.6779,-2.6779,-2.6779,-2.6779,-2.6779,-2.6779,-2.65,-2.5756,-2.5245,-2.4681,-2.3872,-2.3365,-2.3078,-2.3078,-2.2433,-2.1928,-2.1565,-2.0794,-2.0215,-1.9846,-1.932,-1.8921,-1.8787,-1.8405,-1.8144,-1.8008,-1.8008,-1.8008,-1.8008,-1.8008,-1.8008,-1.8008,-1.8008,-1.8134,-1.8462,-1.9177,-1.9901,-2.0613,-2.1325,-2.1851,-2.2197,-2.2197,-2.2197,-2.2197,-2.2197,-2.2197,-2.2197,-2.2197,-2.2197,-2.2197,-2.2197,-2.2197,-2.2197,-2.2197,-2.2197,-2.2197,-2.2197,-2.2197,-2.2197,-2.2197,-2.2197,-2.2197,-2.2197,-2.2197,-2.2197,-2.2197,-2.2197,-2.2197,-2.2197,-2.2197,-2.2197,-2.2197,-2.2197,-2.2197,-2.2197,-2.2197,-2.2197,-2.2197,-2.2197,-2.2197,-2.2197,-2.2197,-2.2197,-2.2197,-2.1975,-2.1651,-2.1221,-2.1146,-2.1083,-2.1083,-2.1019,-2.0955,-2.0944,-2.1336,-2.1526,-2.1526,-2.1526,-2.1713,-2.2075,-2.2843,-2.3323,-2.3686,-2.4895,-2.5312,-2.5312,-2.6779,-2.6779,-2.6779,-2.6779,-2.6779,-2.6779,-2.6779,-2.6779,-2.6779,-2.6779,-2.6779,-2.6779,-2.6779,-2.6779,-2.6779,-2.6779,-2.6779,-2.6727,-2.6674,-2.5632,-2.4951,-2.4851,-2.3695,-2.3078,-2.3078,-2.2372,-2.1678,-2.0996,-2.0291,-1.9649,-1.9075,-1.8998,-1.8808,-1.8482,-1.8482,-1.8279,-1.8008,-1.8008,-1.8008,-1.8008,-1.8008,-1.8008,-1.8008,-1.8076,-1.8462,-1.91,-1.9901,-2.0549,-2.1198,-2.1925,-2.2197,-2.2197,-2.2197,-2.2197,-2.2197,-2.2197,-2.2197,-2.2197,-2.2197,-2.2197,-2.2197,-2.2197,-2.2197,-2.2197,-2.2197,-2.2197,-2.2197,-2.2197,-2.2197,-2.2197,-2.2197,-2.2197,-2.2173,-2.2125,-2.2125,-2.2125,-2.2125,-2.2125,-2.2137,-2.2185,-2.2197,-2.2197,-2.2197,-2.2197,-2.2197,-2.2197,-2.2197,-2.2197,-2.2197,-2.2197,-2.2197,-2.2197,-2.2197,-2.2197,-2.2197,-2.2197,-2.2197,-2.2197,-2.2197,-2.2197,-2.2197,-2.2197,-2.2185,-2.2123,-2.2185,-2.2185,-2.2123,-2.2185,-2.2197,-2.2294,-2.3304,-2.3725,-2.3893,-2.4879,-2.5264,-2.5312,-2.6394,-2.6394,-2.6394,-2.6394,-2.6486,-2.6525,-2.6447,-2.6621,-2.6712,-2.6578,-2.6712,-2.6779,-2.6779,-2.6779,-2.6779,-2.6779,-2.6779,-2.6379,-2.5467,-2.5133,-2.4553,-2.3531,-2.3245,-2.3078,-2.2969,-2.1889,-2.0996,-2.0291,-1.9518,-1.8942,-1.8607,-1.8539,-1.8337,-1.8144,-1.8144,-1.8076,-1.8008,-1.8008,-1.8008,-1.8008,-1.8008,-1.8008,-1.8076,-1.8586,-1.8844,-1.9177,-2.0409,-2.1008,-2.1198,-2.1925,-2.2197,-2.2197,-2.2197,-2.2197,-2.2197,-2.2197,-2.2197,-2.2197,-2.2197,-2.2197,-2.2197,-2.2197,-2.2197,-2.2197,-2.2197,-2.2197,-2.2197,-2.2197,-2.2197,-2.2197,-2.2197,-2.2197,-2.2053,-2.1644,-2.1572,-2.1572,-2.1572,-2.1572,-2.1728,-2.2149,-2.2197,-2.2197,-2.2197,-2.2197,-2.2197,-2.2197,-2.2197,-2.2197,-2.2197,-2.2197,-2.2197,-2.2197,-2.2197,-2.2197,-2.2197,-2.2197,-2.2197,-2.2197,-2.2197,-2.2197,-2.2197,-2.2197,-2.1862,-2.14,-2.1925,-2.1862,-2.1388,-2.1987,-2.2197,-2.2258,-2.2907,-2.3412,-2.3845,-2.447,-2.4951,-2.5312,-2.6645,-2.6433,-2.6286,-2.6286,-2.6379,-2.6379,-2.6326,-2.6447,-2.65,-2.6418,-2.65,-2.6568,-2.6568,-2.6568,-2.6568,-2.6568,-2.6568,-2.6272,-2.5646,-2.5077,-2.4452,-2.3826,-2.3198,-2.258,-2.1815,-2.1175,-2.0666,-2.0344,-1.9198,-1.8617,-1.8482,-1.8414,-1.8279,-1.8134,-1.8134,-1.8076,-1.8008,-1.8008,-1.8008,-1.8008,-1.8337,-1.8462,-1.8519,-1.9243,-1.9507,-1.9628,-2.0741,-2.1336,-2.1663,-2.2061,-2.2197,-2.2197,-2.2197,-2.2197,-2.2197,-2.2197,-2.2197,-2.2197,-2.2197,-2.2197,-2.2197,-2.2197,-2.2005,-2.1885,-2.2137,-2.1993,-2.1813,-2.1813,-2.162,-2.144,-2.144,-2.144,-2.1344,-2.1067,-2.1031,-2.1031,-2.1031,-2.1031,-2.1127,-2.1404,-2.144,-2.1536,-2.1789,-2.1813,-2.1921,-2.2173,-2.2197,-2.2197,-2.2197,-2.2197,-2.2197,-2.2197,-2.2197,-2.2197,-2.2197,-2.2197,-2.2197,-2.2197,-2.2197,-2.2197,-2.2197,-2.2197,-2.1987,-2.1663,-2.2061,-2.1987,-2.1663,-2.2061,-2.2197,-2.2246,-2.2775,-2.3304,-2.3833,-2.4338,-2.4855,-2.5312,-2.7011,-2.6683,-2.6433,-2.6326,-2.6326,-2.634,-2.6233,-2.6286,-2.6286,-2.6286,-2.6286,-2.6286,-2.6286,-2.6286,-2.6286,-2.6286,-2.6286,-2.6218,-2.6002,-2.509,-2.4408,-2.4221,-2.3125,-2.1951,-2.0794,-2.0526,-2.0333,-2.0204,-1.9054,-1.8482,-1.8482,-1.8482,-1.8414,-1.8269,-1.8269,-1.8144,-1.8008,-1.8008,-1.8008,-1.8076,-1.8596,-1.8911,-1.911,-1.9835,-2.0161,-2.0355,-2.1071,-2.1663,-2.2197,-2.2197,-2.2197,-2.2197,-2.2197,-2.2197,-2.2197,-2.2197,-2.2247,-2.2297,-2.2247,-2.2175,-2.2164,-2.2115,-2.1668,-2.138,-2.1825,-2.1584,-2.126,-2.1272,-2.0923,-2.061,-2.061,-2.061,-2.0586,-2.049,-2.0466,-2.0466,-2.0466,-2.0466,-2.0502,-2.0598,-2.061,-2.0827,-2.1356,-2.1404,-2.162,-2.2149,-2.2197,-2.2197,-2.2197,-2.2197,-2.2197,-2.2197,-2.2197,-2.2197,-2.2197,-2.2197,-2.2197,-2.2197,-2.2197,-2.2197,-2.2197,-2.2197,-2.2197,-2.2197,-2.2197,-2.2197,-2.2197,-2.2197,-2.2197,-2.2234,-2.2678,-2.3171,-2.3701,-2.4302,-2.4855,-2.5312,-2.7086,-2.7034,-2.6864,-2.651,-2.6563,-2.6472,-2.6002,-2.6165,-2.6286,-2.6111,-2.6233,-2.6286,-2.6286,-2.6286,-2.6286,-2.6286,-2.6286,-2.5879,-2.4794,-2.4567,-2.406,-2.2969,-2.2199,-2.1628,-2.1325,-2.0085,-1.9243,-1.8808,-1.8607,-1.8414,-1.8337,-1.8337,-1.8202,-1.8008,-1.8008,-1.8008,-1.8008,-1.8008,-1.8008,-1.8008,-1.8076,-1.8462,-1.911,-1.9835,-2.0484,-2.106,-2.1788,-2.2123,-2.2197,-2.2197,-2.2197,-2.2197,-2.2197,-2.2197,-2.2197,-2.2197,-2.2592,-2.2859,-2.2359,-2.2249,-2.2163,-2.162,-2.1115,-2.0742,-2.0815,-2.0754,-2.0694,-2.0718,-2.0658,-2.061,-2.0574,-2.0598,-2.0454,-1.9973,-1.9889,-1.9889,-1.9889,-1.9889,-2.0057,-2.0514,-2.0598,-2.0827,-2.1356,-2.1404,-2.162,-2.2149,-2.2197,-2.2197,-2.2197,-2.2197,-2.2197,-2.2197,-2.2197,-2.2197,-2.2197,-2.2197,-2.2197,-2.2197,-2.2197,-2.2197,-2.2197,-2.2197,-2.2197,-2.2197,-2.2197,-2.2197,-2.2197,-2.2197,-2.2197,-2.2197,-2.227,-2.2618,-2.3207,-2.4169,-2.4855,-2.5312,-2.7509,-2.7291,-2.7019,-2.6864,-2.6864,-2.6811,-2.6616,-2.6472,-2.6365,-2.6312,-2.6165,-2.6056,-2.6056,-2.6056,-2.6056,-2.6056,-2.6056,-2.5729,-2.4821,-2.4452,-2.38,-2.2944,-2.2273,-2.1526,-2.0677,-2.0096,-1.9253,-1.8212,-1.8212,-1.8212,-1.8144,-1.8144,-1.8076,-1.8008,-1.8008,-1.8008,-1.8008,-1.8008,-1.8008,-1.8008,-1.8395,-1.8721,-1.911,-2.0226,-2.0869,-2.1198,-2.1925,-2.2197,-2.2197,-2.2197,-2.2197,-2.2197,-2.2197,-2.2197,-2.2197,-2.2197,-2.2153,-2.2078,-2.1813,-2.1581,-2.1284,-2.1017,-2.055,-2.0153,-2.0153,-1.9913,-1.978,-2.0081,-1.9913,-1.9708,-1.9696,-1.9696,-1.9624,-1.9372,-1.9336,-1.9336,-1.9336,-1.9336,-1.942,-1.966,-1.9696,-2.0033,-2.0887,-2.0959,-2.1308,-2.2125,-2.2197,-2.2197,-2.2197,-2.2197,-2.2197,-2.2197,-2.2197,-2.2197,-2.2197,-2.2197,-2.2197,-2.2197,-2.2197,-2.2197,-2.2197,-2.2197,-2.2197,-2.2197,-2.2197,-2.2197,-2.2197,-2.2197,-2.2197,-2.2197,-2.2197,-2.2522,-2.3099,-2.4145,-2.4675,-2.4915]}]]